<?xml version="1.0" encoding="utf-8"?>
<gpx xmlns:xsi="http://www.w3.org/2001/XMLSchema-instance" xmlns:xsd="http://www.w3.org/2001/XMLSchema" version="1.1" creator="Shapelink.com" xmlns="http://www.topografix.com/GPX/1/1" xmlns:gpxtpx="http://www.garmin.com/xmlschemas/TrackPointExtension/v1">
  <metadata>
    <name>Cycling 83.26 km, 2020-07-12</name>
    <desc></desc>
    <author><name>Marian Moron</name></author> 
    <time>2020-07-12T10:26:59Z</time>
  </metadata>
  <trk>
    <name>Cycling 83.26 km, 2020-07-12</name>
    <trkseg>
      <trkpt lat="51.230611424827" lon="4.460538055528">
        <ele>10</ele>
        <time>2020-07-12T10:26:59Z</time>
      </trkpt>
      <trkpt lat="51.230091160294" lon="4.46076084643">
        <ele>11.2</ele>
        <time>2020-07-12T10:27:11Z</time>
      </trkpt>
      <trkpt lat="51.22968329704" lon="4.460940805823">
        <ele>16</ele>
        <time>2020-07-12T10:27:20Z</time>
      </trkpt>
      <trkpt lat="51.229648260698" lon="4.461079107173">
        <ele>16.2</ele>
        <time>2020-07-12T10:27:22Z</time>
      </trkpt>
      <trkpt lat="51.229674747502" lon="4.461249930295">
        <ele>15.8</ele>
        <time>2020-07-12T10:27:24Z</time>
      </trkpt>
      <trkpt lat="51.229837943095" lon="4.462086695372">
        <ele>17.6</ele>
        <time>2020-07-12T10:27:33Z</time>
      </trkpt>
      <trkpt lat="51.230081521109" lon="4.462888340288">
        <ele>18.6</ele>
        <time>2020-07-12T10:27:43Z</time>
      </trkpt>
      <trkpt lat="51.230320656716" lon="4.463745305744">
        <ele>17</ele>
        <time>2020-07-12T10:27:54Z</time>
      </trkpt>
      <trkpt lat="51.230530790949" lon="4.464552482714">
        <ele>16.2</ele>
        <time>2020-07-12T10:28:04Z</time>
      </trkpt>
      <trkpt lat="51.230708654867" lon="4.465316157623">
        <ele>13.6</ele>
        <time>2020-07-12T10:28:14Z</time>
      </trkpt>
      <trkpt lat="51.230698596587" lon="4.466250739473">
        <ele>12.6</ele>
        <time>2020-07-12T10:28:25Z</time>
      </trkpt>
      <trkpt lat="51.230657022363" lon="4.46711013568">
        <ele>8.2</ele>
        <time>2020-07-12T10:28:36Z</time>
      </trkpt>
      <trkpt lat="51.230729777255" lon="4.46738087105">
        <ele>5.6</ele>
        <time>2020-07-12T10:28:42Z</time>
      </trkpt>
      <trkpt lat="51.231283234112" lon="4.4672258059">
        <ele>3</ele>
        <time>2020-07-12T10:28:55Z</time>
      </trkpt>
      <trkpt lat="51.231381889075" lon="4.467213819783">
        <ele>2.6</ele>
        <time>2020-07-12T10:28:57Z</time>
      </trkpt>
      <trkpt lat="51.231827973793" lon="4.467200157286">
        <ele>0</ele>
        <time>2020-07-12T10:29:07Z</time>
      </trkpt>
      <trkpt lat="51.231992426671" lon="4.4670330222">
        <ele>0</ele>
        <time>2020-07-12T10:29:13Z</time>
      </trkpt>
      <trkpt lat="51.232285457895" lon="4.467754284695">
        <ele>0</ele>
        <time>2020-07-12T10:29:28Z</time>
      </trkpt>
      <trkpt lat="51.232614531289" lon="4.468457777562">
        <ele>0</ele>
        <time>2020-07-12T10:29:39Z</time>
      </trkpt>
      <trkpt lat="51.232956931904" lon="4.469199324255">
        <ele>0</ele>
        <time>2020-07-12T10:29:52Z</time>
      </trkpt>
      <trkpt lat="51.233277204303" lon="4.469938607835">
        <ele>0</ele>
        <time>2020-07-12T10:30:07Z</time>
      </trkpt>
      <trkpt lat="51.233595465046" lon="4.47065232662">
        <ele>0</ele>
        <time>2020-07-12T10:30:21Z</time>
      </trkpt>
      <trkpt lat="51.233925460449" lon="4.471349365424">
        <ele>0</ele>
        <time>2020-07-12T10:30:34Z</time>
      </trkpt>
      <trkpt lat="51.234276997335" lon="4.472067778073">
        <ele>0</ele>
        <time>2020-07-12T10:30:45Z</time>
      </trkpt>
      <trkpt lat="51.234585115979" lon="4.472853497379">
        <ele>0</ele>
        <time>2020-07-12T10:30:56Z</time>
      </trkpt>
      <trkpt lat="51.234869597665" lon="4.473609209483">
        <ele>0</ele>
        <time>2020-07-12T10:31:07Z</time>
      </trkpt>
      <trkpt lat="51.234900778333" lon="4.473664865299">
        <ele>0</ele>
        <time>2020-07-12T10:31:08Z</time>
      </trkpt>
      <trkpt lat="51.234980490202" lon="4.473730327938">
        <ele>0</ele>
        <time>2020-07-12T10:31:10Z</time>
      </trkpt>
      <trkpt lat="51.235046120479" lon="4.473826803607">
        <ele>0</ele>
        <time>2020-07-12T10:31:12Z</time>
      </trkpt>
      <trkpt lat="51.235112756584" lon="4.47410818399">
        <ele>0</ele>
        <time>2020-07-12T10:31:16Z</time>
      </trkpt>
      <trkpt lat="51.235226834243" lon="4.474968250749">
        <ele>0</ele>
        <time>2020-07-12T10:31:27Z</time>
      </trkpt>
      <trkpt lat="51.235374020407" lon="4.475835106847">
        <ele>0</ele>
        <time>2020-07-12T10:31:37Z</time>
      </trkpt>
      <trkpt lat="51.235536713086" lon="4.476692659036">
        <ele>0</ele>
        <time>2020-07-12T10:31:47Z</time>
      </trkpt>
      <trkpt lat="51.235754558667" lon="4.477525400801">
        <ele>0</ele>
        <time>2020-07-12T10:31:57Z</time>
      </trkpt>
      <trkpt lat="51.235933093137" lon="4.478407176681">
        <ele>0</ele>
        <time>2020-07-12T10:32:07Z</time>
      </trkpt>
      <trkpt lat="51.236029317349" lon="4.479320468505">
        <ele>0</ele>
        <time>2020-07-12T10:32:17Z</time>
      </trkpt>
      <trkpt lat="51.236030155539" lon="4.479413172319">
        <ele>0</ele>
        <time>2020-07-12T10:32:18Z</time>
      </trkpt>
      <trkpt lat="51.236003920192" lon="4.48031917189">
        <ele>0</ele>
        <time>2020-07-12T10:32:28Z</time>
      </trkpt>
      <trkpt lat="51.235960669588" lon="4.481108998327">
        <ele>0</ele>
        <time>2020-07-12T10:32:37Z</time>
      </trkpt>
      <trkpt lat="51.235936781173" lon="4.48199555189">
        <ele>0</ele>
        <time>2020-07-12T10:32:47Z</time>
      </trkpt>
      <trkpt lat="51.235930494748" lon="4.482905574773">
        <ele>0</ele>
        <time>2020-07-12T10:32:58Z</time>
      </trkpt>
      <trkpt lat="51.235921609934" lon="4.483834121655">
        <ele>0</ele>
        <time>2020-07-12T10:33:09Z</time>
      </trkpt>
      <trkpt lat="51.235954550801" lon="4.484745988556">
        <ele>0</ele>
        <time>2020-07-12T10:33:21Z</time>
      </trkpt>
      <trkpt lat="51.235992520808" lon="4.485621058916">
        <ele>0</ele>
        <time>2020-07-12T10:33:34Z</time>
      </trkpt>
      <trkpt lat="51.236003920192" lon="4.486546755952">
        <ele>0</ele>
        <time>2020-07-12T10:33:46Z</time>
      </trkpt>
      <trkpt lat="51.23602504258" lon="4.487431381678">
        <ele>0</ele>
        <time>2020-07-12T10:33:56Z</time>
      </trkpt>
      <trkpt lat="51.23609712692" lon="4.488301925812">
        <ele>0</ele>
        <time>2020-07-12T10:34:07Z</time>
      </trkpt>
      <trkpt lat="51.236114812729" lon="4.488422038439">
        <ele>0</ele>
        <time>2020-07-12T10:34:09Z</time>
      </trkpt>
      <trkpt lat="51.236120680059" lon="4.488555897382">
        <ele>0</ele>
        <time>2020-07-12T10:34:11Z</time>
      </trkpt>
      <trkpt lat="51.236113723082" lon="4.488700401338">
        <ele>0</ele>
        <time>2020-07-12T10:34:13Z</time>
      </trkpt>
      <trkpt lat="51.236074914885" lon="4.48891397215">
        <ele>0</ele>
        <time>2020-07-12T10:34:16Z</time>
      </trkpt>
      <trkpt lat="51.236074914885" lon="4.489534316569">
        <ele>0</ele>
        <time>2020-07-12T10:34:24Z</time>
      </trkpt>
      <trkpt lat="51.235986821116" lon="4.490387761627">
        <ele>0</ele>
        <time>2020-07-12T10:34:39Z</time>
      </trkpt>
      <trkpt lat="51.235980953786" lon="4.490428916756">
        <ele>0</ele>
        <time>2020-07-12T10:34:40Z</time>
      </trkpt>
      <trkpt lat="51.236344141513" lon="4.490603008819">
        <ele>3.2</ele>
        <time>2020-07-12T10:35:59Z</time>
      </trkpt>
      <trkpt lat="51.236788466032" lon="4.490721193609">
        <ele>2.4</ele>
        <time>2020-07-12T10:36:09Z</time>
      </trkpt>
      <trkpt lat="51.236899945302" lon="4.490723121446">
        <ele>1.6</ele>
        <time>2020-07-12T10:36:11Z</time>
      </trkpt>
      <trkpt lat="51.237448959752" lon="4.490524805692">
        <ele>0</ele>
        <time>2020-07-12T10:36:21Z</time>
      </trkpt>
      <trkpt lat="51.237653059017" lon="4.490465126564">
        <ele>0</ele>
        <time>2020-07-12T10:36:25Z</time>
      </trkpt>
      <trkpt lat="51.237821451388" lon="4.490317269848">
        <ele>0</ele>
        <time>2020-07-12T10:36:29Z</time>
      </trkpt>
      <trkpt lat="51.238364682327" lon="4.49022238674">
        <ele>0</ele>
        <time>2020-07-12T10:36:40Z</time>
      </trkpt>
      <trkpt lat="51.238900704832" lon="4.490344427204">
        <ele>0</ele>
        <time>2020-07-12T10:36:50Z</time>
      </trkpt>
      <trkpt lat="51.239448461997" lon="4.490599739878">
        <ele>2</ele>
        <time>2020-07-12T10:37:01Z</time>
      </trkpt>
      <trkpt lat="51.239991776755" lon="4.490852621801">
        <ele>4.8</ele>
        <time>2020-07-12T10:37:13Z</time>
      </trkpt>
      <trkpt lat="51.240544311603" lon="4.491101145136">
        <ele>5.4</ele>
        <time>2020-07-12T10:37:23Z</time>
      </trkpt>
      <trkpt lat="51.241099193383" lon="4.491375317085">
        <ele>2.2</ele>
        <time>2020-07-12T10:37:32Z</time>
      </trkpt>
      <trkpt lat="51.241605543962" lon="4.491815199197">
        <ele>0</ele>
        <time>2020-07-12T10:37:40Z</time>
      </trkpt>
      <trkpt lat="51.241883403947" lon="4.4926313448">
        <ele>0</ele>
        <time>2020-07-12T10:37:48Z</time>
      </trkpt>
      <trkpt lat="51.241944843274" lon="4.493487220609">
        <ele>0</ele>
        <time>2020-07-12T10:37:56Z</time>
      </trkpt>
      <trkpt lat="51.242047270092" lon="4.49433370869">
        <ele>0</ele>
        <time>2020-07-12T10:38:05Z</time>
      </trkpt>
      <trkpt lat="51.24218238632" lon="4.495235349673">
        <ele>0</ele>
        <time>2020-07-12T10:38:17Z</time>
      </trkpt>
      <trkpt lat="51.242326806457" lon="4.496090722568">
        <ele>0</ele>
        <time>2020-07-12T10:38:29Z</time>
      </trkpt>
      <trkpt lat="51.242389000155" lon="4.496276214015">
        <ele>0</ele>
        <time>2020-07-12T10:38:32Z</time>
      </trkpt>
      <trkpt lat="51.242713463504" lon="4.497037122897">
        <ele>0</ele>
        <time>2020-07-12T10:38:44Z</time>
      </trkpt>
      <trkpt lat="51.243031724247" lon="4.497798953788">
        <ele>0</ele>
        <time>2020-07-12T10:38:55Z</time>
      </trkpt>
      <trkpt lat="51.243342189823" lon="4.498536812445">
        <ele>0</ele>
        <time>2020-07-12T10:39:08Z</time>
      </trkpt>
      <trkpt lat="51.243661540213" lon="4.499292524549">
        <ele>0</ele>
        <time>2020-07-12T10:39:21Z</time>
      </trkpt>
      <trkpt lat="51.243959516758" lon="4.500039100382">
        <ele>0</ele>
        <time>2020-07-12T10:39:34Z</time>
      </trkpt>
      <trkpt lat="51.244099075393" lon="4.500594652714">
        <ele>0</ele>
        <time>2020-07-12T10:39:41Z</time>
      </trkpt>
      <trkpt lat="51.244139895246" lon="4.500930096352">
        <ele>0</ele>
        <time>2020-07-12T10:39:45Z</time>
      </trkpt>
      <trkpt lat="51.244402667811" lon="4.501091364108">
        <ele>0</ele>
        <time>2020-07-12T10:39:53Z</time>
      </trkpt>
      <trkpt lat="51.244510207588" lon="4.501072253376">
        <ele>0</ele>
        <time>2020-07-12T10:39:55Z</time>
      </trkpt>
      <trkpt lat="51.244607186171" lon="4.501096979981">
        <ele>0</ele>
        <time>2020-07-12T10:39:57Z</time>
      </trkpt>
      <trkpt lat="51.244697878329" lon="4.501167304122">
        <ele>0</ele>
        <time>2020-07-12T10:39:59Z</time>
      </trkpt>
      <trkpt lat="51.244883956509" lon="4.501267886922">
        <ele>2.2</ele>
        <time>2020-07-12T10:40:03Z</time>
      </trkpt>
      <trkpt lat="51.24498697006" lon="4.501295798649">
        <ele>5.6</ele>
        <time>2020-07-12T10:40:05Z</time>
      </trkpt>
      <trkpt lat="51.245089648335" lon="4.501277861383">
        <ele>5.6</ele>
        <time>2020-07-12T10:40:07Z</time>
      </trkpt>
      <trkpt lat="51.245640506803" lon="4.501195634944">
        <ele>4.8</ele>
        <time>2020-07-12T10:40:16Z</time>
      </trkpt>
      <trkpt lat="51.246203435207" lon="4.50112975321">
        <ele>8.4</ele>
        <time>2020-07-12T10:40:26Z</time>
      </trkpt>
      <trkpt lat="51.246783127411" lon="4.501044090192">
        <ele>9.8</ele>
        <time>2020-07-12T10:40:37Z</time>
      </trkpt>
      <trkpt lat="51.247241784979" lon="4.500990697489">
        <ele>13.6</ele>
        <time>2020-07-12T10:40:46Z</time>
      </trkpt>
      <trkpt lat="51.247290902913" lon="4.501109971926">
        <ele>14.4</ele>
        <time>2020-07-12T10:40:48Z</time>
      </trkpt>
      <trkpt lat="51.247297356976" lon="4.501266881094">
        <ele>13</ele>
        <time>2020-07-12T10:40:50Z</time>
      </trkpt>
      <trkpt lat="51.247294926225" lon="4.501432004524">
        <ele>12.2</ele>
        <time>2020-07-12T10:40:52Z</time>
      </trkpt>
      <trkpt lat="51.247303643401" lon="4.501672145959">
        <ele>10.2</ele>
        <time>2020-07-12T10:40:55Z</time>
      </trkpt>
      <trkpt lat="51.247287214877" lon="4.502555262943">
        <ele>5.8</ele>
        <time>2020-07-12T10:41:06Z</time>
      </trkpt>
      <trkpt lat="51.247297524614" lon="4.503346514303">
        <ele>4.4</ele>
        <time>2020-07-12T10:41:16Z</time>
      </trkpt>
      <trkpt lat="51.247572618572" lon="4.503466207835">
        <ele>5</ele>
        <time>2020-07-12T10:41:24Z</time>
      </trkpt>
      <trkpt lat="51.248117442072" lon="4.503447516198">
        <ele>3.4</ele>
        <time>2020-07-12T10:41:34Z</time>
      </trkpt>
      <trkpt lat="51.248702917787" lon="4.503413318046">
        <ele>2.8</ele>
        <time>2020-07-12T10:41:44Z</time>
      </trkpt>
      <trkpt lat="51.249087563178" lon="4.503407785992">
        <ele>2.4</ele>
        <time>2020-07-12T10:41:51Z</time>
      </trkpt>
      <trkpt lat="51.249165682486" lon="4.503471488432">
        <ele>2.2</ele>
        <time>2020-07-12T10:41:53Z</time>
      </trkpt>
      <trkpt lat="51.249180853725" lon="4.503622614089">
        <ele>2</ele>
        <time>2020-07-12T10:41:55Z</time>
      </trkpt>
      <trkpt lat="51.249168029418" lon="4.504543868718">
        <ele>1.2</ele>
        <time>2020-07-12T10:42:06Z</time>
      </trkpt>
      <trkpt lat="51.249383779524" lon="4.505274435122">
        <ele>4</ele>
        <time>2020-07-12T10:42:16Z</time>
      </trkpt>
      <trkpt lat="51.249370787579" lon="4.505396307948">
        <ele>5</ele>
        <time>2020-07-12T10:42:18Z</time>
      </trkpt>
      <trkpt lat="51.249348240268" lon="4.505647513491">
        <ele>5.4</ele>
        <time>2020-07-12T10:42:25Z</time>
      </trkpt>
      <trkpt lat="51.249903708781" lon="4.505934928842">
        <ele>4.8</ele>
        <time>2020-07-12T10:42:37Z</time>
      </trkpt>
      <trkpt lat="51.250428415721" lon="4.506229804084">
        <ele>0</ele>
        <time>2020-07-12T10:42:48Z</time>
      </trkpt>
      <trkpt lat="51.250984387148" lon="4.506491822278">
        <ele>0</ele>
        <time>2020-07-12T10:42:58Z</time>
      </trkpt>
      <trkpt lat="51.251502053292" lon="4.506766245684">
        <ele>0</ele>
        <time>2020-07-12T10:43:08Z</time>
      </trkpt>
      <trkpt lat="51.252094402165" lon="4.507065479514">
        <ele>0</ele>
        <time>2020-07-12T10:43:19Z</time>
      </trkpt>
      <trkpt lat="51.252345104794" lon="4.507187268521">
        <ele>0</ele>
        <time>2020-07-12T10:43:24Z</time>
      </trkpt>
      <trkpt lat="51.252601423296" lon="4.507248037296">
        <ele>0</ele>
        <time>2020-07-12T10:43:29Z</time>
      </trkpt>
      <trkpt lat="51.25316183713" lon="4.507573506473">
        <ele>1</ele>
        <time>2020-07-12T10:43:39Z</time>
      </trkpt>
      <trkpt lat="51.253691070296" lon="4.507834602658">
        <ele>2.4</ele>
        <time>2020-07-12T10:43:47Z</time>
      </trkpt>
      <trkpt lat="51.254208820259" lon="4.508110953901">
        <ele>3.2</ele>
        <time>2020-07-12T10:43:55Z</time>
      </trkpt>
      <trkpt lat="51.254752805569" lon="4.508372636819">
        <ele>2.6</ele>
        <time>2020-07-12T10:44:04Z</time>
      </trkpt>
      <trkpt lat="51.255299137811" lon="4.508646054397">
        <ele>2</ele>
        <time>2020-07-12T10:44:13Z</time>
      </trkpt>
      <trkpt lat="51.25582644314" lon="4.508884184176">
        <ele>2.2</ele>
        <time>2020-07-12T10:44:22Z</time>
      </trkpt>
      <trkpt lat="51.256393478675" lon="4.509186016395">
        <ele>2.4</ele>
        <time>2020-07-12T10:44:31Z</time>
      </trkpt>
      <trkpt lat="51.256929584999" lon="4.509464127837">
        <ele>3.4</ele>
        <time>2020-07-12T10:44:40Z</time>
      </trkpt>
      <trkpt lat="51.257463512029" lon="4.509737796872">
        <ele>1.8</ele>
        <time>2020-07-12T10:44:49Z</time>
      </trkpt>
      <trkpt lat="51.257991404091" lon="4.509996546125">
        <ele>1.4</ele>
        <time>2020-07-12T10:44:58Z</time>
      </trkpt>
      <trkpt lat="51.258507980588" lon="4.510240124139">
        <ele>3.6</ele>
        <time>2020-07-12T10:45:07Z</time>
      </trkpt>
      <trkpt lat="51.259046433844" lon="4.510532652449">
        <ele>2.4</ele>
        <time>2020-07-12T10:45:17Z</time>
      </trkpt>
      <trkpt lat="51.259593939552" lon="4.510822917646">
        <ele>1</ele>
        <time>2020-07-12T10:45:27Z</time>
      </trkpt>
      <trkpt lat="51.260155526852" lon="4.511119385449">
        <ele>1.2</ele>
        <time>2020-07-12T10:45:37Z</time>
      </trkpt>
      <trkpt lat="51.260724071129" lon="4.511413003406">
        <ele>3.8</ele>
        <time>2020-07-12T10:45:47Z</time>
      </trkpt>
      <trkpt lat="51.261278617633" lon="4.511692539771">
        <ele>3.8</ele>
        <time>2020-07-12T10:45:57Z</time>
      </trkpt>
      <trkpt lat="51.261822602943" lon="4.511868559671">
        <ele>2.6</ele>
        <time>2020-07-12T10:46:09Z</time>
      </trkpt>
      <trkpt lat="51.261859315665" lon="4.51189546557">
        <ele>2.6</ele>
        <time>2020-07-12T10:46:10Z</time>
      </trkpt>
      <trkpt lat="51.262370695384" lon="4.512236441262">
        <ele>0.6</ele>
        <time>2020-07-12T10:46:22Z</time>
      </trkpt>
      <trkpt lat="51.262935467806" lon="4.512502985682">
        <ele>0.8</ele>
        <time>2020-07-12T10:46:32Z</time>
      </trkpt>
      <trkpt lat="51.263478028193" lon="4.512772379948">
        <ele>0</ele>
        <time>2020-07-12T10:46:41Z</time>
      </trkpt>
      <trkpt lat="51.264041291873" lon="4.513073457796">
        <ele>0</ele>
        <time>2020-07-12T10:46:51Z</time>
      </trkpt>
      <trkpt lat="51.264563903338" lon="4.513328016099">
        <ele>0</ele>
        <time>2020-07-12T10:47:00Z</time>
      </trkpt>
      <trkpt lat="51.265086263346" lon="4.513562374023">
        <ele>0</ele>
        <time>2020-07-12T10:47:09Z</time>
      </trkpt>
      <trkpt lat="51.265607198431" lon="4.513793463006">
        <ele>1.6</ele>
        <time>2020-07-12T10:47:18Z</time>
      </trkpt>
      <trkpt lat="51.266164175686" lon="4.514067383498">
        <ele>3.4</ele>
        <time>2020-07-12T10:47:27Z</time>
      </trkpt>
      <trkpt lat="51.26670363477" lon="4.514366030595">
        <ele>4.2</ele>
        <time>2020-07-12T10:47:36Z</time>
      </trkpt>
      <trkpt lat="51.267219456896" lon="4.514698540568">
        <ele>2.8</ele>
        <time>2020-07-12T10:47:45Z</time>
      </trkpt>
      <trkpt lat="51.26772957933" lon="4.515102212872">
        <ele>1.4</ele>
        <time>2020-07-12T10:47:54Z</time>
      </trkpt>
      <trkpt lat="51.268210197476" lon="4.515557014766">
        <ele>0</ele>
        <time>2020-07-12T10:48:03Z</time>
      </trkpt>
      <trkpt lat="51.268672375442" lon="4.516089181597">
        <ele>0</ele>
        <time>2020-07-12T10:48:12Z</time>
      </trkpt>
      <trkpt lat="51.269128015526" lon="4.516655965675">
        <ele>0</ele>
        <time>2020-07-12T10:48:21Z</time>
      </trkpt>
      <trkpt lat="51.26955767172" lon="4.517192407275">
        <ele>0</ele>
        <time>2020-07-12T10:48:30Z</time>
      </trkpt>
      <trkpt lat="51.269983220783" lon="4.517754246032">
        <ele>0</ele>
        <time>2020-07-12T10:48:40Z</time>
      </trkpt>
      <trkpt lat="51.2702801915" lon="4.518130509523">
        <ele>0</ele>
        <time>2020-07-12T10:48:47Z</time>
      </trkpt>
      <trkpt lat="51.270723677829" lon="4.518692264461">
        <ele>0</ele>
        <time>2020-07-12T10:48:58Z</time>
      </trkpt>
      <trkpt lat="51.271160039543" lon="4.519268603905">
        <ele>0</ele>
        <time>2020-07-12T10:49:10Z</time>
      </trkpt>
      <trkpt lat="51.271610231392" lon="4.519842093503">
        <ele>0</ele>
        <time>2020-07-12T10:49:20Z</time>
      </trkpt>
      <trkpt lat="51.272077606136" lon="4.520416924205">
        <ele>0</ele>
        <time>2020-07-12T10:49:30Z</time>
      </trkpt>
      <trkpt lat="51.272505083036" lon="4.520994688572">
        <ele>0</ele>
        <time>2020-07-12T10:49:40Z</time>
      </trkpt>
      <trkpt lat="51.272935996515" lon="4.521524843747">
        <ele>0</ele>
        <time>2020-07-12T10:49:50Z</time>
      </trkpt>
      <trkpt lat="51.273380237215" lon="4.5220853414">
        <ele>0</ele>
        <time>2020-07-12T10:50:00Z</time>
      </trkpt>
      <trkpt lat="51.273840152068" lon="4.522665452699">
        <ele>0</ele>
        <time>2020-07-12T10:50:10Z</time>
      </trkpt>
      <trkpt lat="51.274306101889" lon="4.523254281174">
        <ele>0</ele>
        <time>2020-07-12T10:50:20Z</time>
      </trkpt>
      <trkpt lat="51.274746403096" lon="4.523858699983">
        <ele>0</ele>
        <time>2020-07-12T10:50:30Z</time>
      </trkpt>
      <trkpt lat="51.275201624085" lon="4.524431602848">
        <ele>0</ele>
        <time>2020-07-12T10:50:40Z</time>
      </trkpt>
      <trkpt lat="51.275641422378" lon="4.524991010854">
        <ele>0</ele>
        <time>2020-07-12T10:50:50Z</time>
      </trkpt>
      <trkpt lat="51.276111814606" lon="4.52557807913">
        <ele>2.4</ele>
        <time>2020-07-12T10:51:00Z</time>
      </trkpt>
      <trkpt lat="51.276546248483" lon="4.526127680313">
        <ele>3.8</ele>
        <time>2020-07-12T10:51:09Z</time>
      </trkpt>
      <trkpt lat="51.27698822607" lon="4.526659847144">
        <ele>5.2</ele>
        <time>2020-07-12T10:51:18Z</time>
      </trkpt>
      <trkpt lat="51.277416876436" lon="4.527202239893">
        <ele>5.4</ele>
        <time>2020-07-12T10:51:28Z</time>
      </trkpt>
      <trkpt lat="51.277494995744" lon="4.52728379578">
        <ele>5.2</ele>
        <time>2020-07-12T10:51:30Z</time>
      </trkpt>
      <trkpt lat="51.277623741728" lon="4.527379014164">
        <ele>4.6</ele>
        <time>2020-07-12T10:51:45Z</time>
      </trkpt>
      <trkpt lat="51.277750056961" lon="4.527654527217">
        <ele>2</ele>
        <time>2020-07-12T10:51:51Z</time>
      </trkpt>
      <trkpt lat="51.278193878566" lon="4.528260035673">
        <ele>0.6</ele>
        <time>2020-07-12T10:52:00Z</time>
      </trkpt>
      <trkpt lat="51.278650608297" lon="4.528841571895">
        <ele>0</ele>
        <time>2020-07-12T10:52:09Z</time>
      </trkpt>
      <trkpt lat="51.279102895621" lon="4.529410116172">
        <ele>0.4</ele>
        <time>2020-07-12T10:52:18Z</time>
      </trkpt>
      <trkpt lat="51.279564151578" lon="4.529986204159">
        <ele>1.2</ele>
        <time>2020-07-12T10:52:28Z</time>
      </trkpt>
      <trkpt lat="51.280033957073" lon="4.530568159476">
        <ele>2</ele>
        <time>2020-07-12T10:52:38Z</time>
      </trkpt>
      <trkpt lat="51.280457997394" lon="4.531106361275">
        <ele>0.4</ele>
        <time>2020-07-12T10:52:47Z</time>
      </trkpt>
      <trkpt lat="51.28087994224" lon="4.531666272195">
        <ele>0</ele>
        <time>2020-07-12T10:52:56Z</time>
      </trkpt>
      <trkpt lat="51.281301384172" lon="4.532202881433">
        <ele>0</ele>
        <time>2020-07-12T10:53:05Z</time>
      </trkpt>
      <trkpt lat="51.281747385071" lon="4.532778801782">
        <ele>1.6</ele>
        <time>2020-07-12T10:53:15Z</time>
      </trkpt>
      <trkpt lat="51.282203947164" lon="4.53332463111">
        <ele>1.8</ele>
        <time>2020-07-12T10:53:24Z</time>
      </trkpt>
      <trkpt lat="51.282639638326" lon="4.533874316112">
        <ele>1.6</ele>
        <time>2020-07-12T10:53:33Z</time>
      </trkpt>
      <trkpt lat="51.283078598429" lon="4.534418217603">
        <ele>0.2</ele>
        <time>2020-07-12T10:53:42Z</time>
      </trkpt>
      <trkpt lat="51.283509595727" lon="4.534964549845">
        <ele>0</ele>
        <time>2020-07-12T10:53:51Z</time>
      </trkpt>
      <trkpt lat="51.28360154517" lon="4.535086925585">
        <ele>0</ele>
        <time>2020-07-12T10:53:53Z</time>
      </trkpt>
      <trkpt lat="51.284031704278" lon="4.535657565337">
        <ele>0</ele>
        <time>2020-07-12T10:54:02Z</time>
      </trkpt>
      <trkpt lat="51.284463288309" lon="4.536215129325">
        <ele>0</ele>
        <time>2020-07-12T10:54:11Z</time>
      </trkpt>
      <trkpt lat="51.284598655994" lon="4.536385952447">
        <ele>0</ele>
        <time>2020-07-12T10:54:15Z</time>
      </trkpt>
      <trkpt lat="51.285187149193" lon="4.537119703973">
        <ele>4</ele>
        <time>2020-07-12T10:58:48Z</time>
      </trkpt>
      <trkpt lat="51.285608339668" lon="4.537678776703">
        <ele>0</ele>
        <time>2020-07-12T10:58:59Z</time>
      </trkpt>
      <trkpt lat="51.28604235445" lon="4.538226282411">
        <ele>0.2</ele>
        <time>2020-07-12T10:59:09Z</time>
      </trkpt>
      <trkpt lat="51.286497240163" lon="4.538818379827">
        <ele>1.4</ele>
        <time>2020-07-12T10:59:19Z</time>
      </trkpt>
      <trkpt lat="51.286928656556" lon="4.539369741209">
        <ele>1.2</ele>
        <time>2020-07-12T10:59:29Z</time>
      </trkpt>
      <trkpt lat="51.287384967192" lon="4.539924036256">
        <ele>1</ele>
        <time>2020-07-12T10:59:40Z</time>
      </trkpt>
      <trkpt lat="51.287821496544" lon="4.54049450837">
        <ele>2.2</ele>
        <time>2020-07-12T10:59:53Z</time>
      </trkpt>
      <trkpt lat="51.288277388085" lon="4.541074452031">
        <ele>7.6</ele>
        <time>2020-07-12T11:00:05Z</time>
      </trkpt>
      <trkpt lat="51.288726909382" lon="4.541650204742">
        <ele>7.4</ele>
        <time>2020-07-12T11:00:15Z</time>
      </trkpt>
      <trkpt lat="51.289148016038" lon="4.542193854776">
        <ele>7.2</ele>
        <time>2020-07-12T11:00:24Z</time>
      </trkpt>
      <trkpt lat="51.289610613099" lon="4.542793914997">
        <ele>7.8</ele>
        <time>2020-07-12T11:00:34Z</time>
      </trkpt>
      <trkpt lat="51.290074299807" lon="4.543362040179">
        <ele>7.6</ele>
        <time>2020-07-12T11:00:44Z</time>
      </trkpt>
      <trkpt lat="51.290582326766" lon="4.543999483674">
        <ele>8.4</ele>
        <time>2020-07-12T11:00:55Z</time>
      </trkpt>
      <trkpt lat="51.291014246073" lon="4.544554113997">
        <ele>9</ele>
        <time>2020-07-12T11:01:05Z</time>
      </trkpt>
      <trkpt lat="51.2914528709" lon="4.545132129821">
        <ele>5.6</ele>
        <time>2020-07-12T11:01:16Z</time>
      </trkpt>
      <trkpt lat="51.291911612287" lon="4.545706876704">
        <ele>2.8</ele>
        <time>2020-07-12T11:01:27Z</time>
      </trkpt>
      <trkpt lat="51.292347974001" lon="4.546256729344">
        <ele>3.8</ele>
        <time>2020-07-12T11:01:37Z</time>
      </trkpt>
      <trkpt lat="51.292774612711" lon="4.546813203685">
        <ele>2.2</ele>
        <time>2020-07-12T11:01:46Z</time>
      </trkpt>
      <trkpt lat="51.293230923347" lon="4.547419382693">
        <ele>5.8</ele>
        <time>2020-07-12T11:01:56Z</time>
      </trkpt>
      <trkpt lat="51.293641720266" lon="4.548103010457">
        <ele>8.2</ele>
        <time>2020-07-12T11:02:06Z</time>
      </trkpt>
      <trkpt lat="51.293962160303" lon="4.548876492189">
        <ele>9.4</ele>
        <time>2020-07-12T11:02:17Z</time>
      </trkpt>
      <trkpt lat="51.294251838767" lon="4.549643855134">
        <ele>9.6</ele>
        <time>2020-07-12T11:02:29Z</time>
      </trkpt>
      <trkpt lat="51.294554760633" lon="4.550369895312">
        <ele>7.8</ele>
        <time>2020-07-12T11:02:39Z</time>
      </trkpt>
      <trkpt lat="51.294859777974" lon="4.551136587705">
        <ele>9.8</ele>
        <time>2020-07-12T11:02:49Z</time>
      </trkpt>
      <trkpt lat="51.295170746464" lon="4.551899675881">
        <ele>10.8</ele>
        <time>2020-07-12T11:02:59Z</time>
      </trkpt>
      <trkpt lat="51.295473333054" lon="4.552675756002">
        <ele>10.2</ele>
        <time>2020-07-12T11:03:09Z</time>
      </trkpt>
      <trkpt lat="51.295781786974" lon="4.553420571636">
        <ele>9.6</ele>
        <time>2020-07-12T11:03:19Z</time>
      </trkpt>
      <trkpt lat="51.296092336369" lon="4.554163124157">
        <ele>11.6</ele>
        <time>2020-07-12T11:03:29Z</time>
      </trkpt>
      <trkpt lat="51.296396180244" lon="4.55492478741">
        <ele>11.2</ele>
        <time>2020-07-12T11:03:39Z</time>
      </trkpt>
      <trkpt lat="51.296708908933" lon="4.555700364617">
        <ele>11</ele>
        <time>2020-07-12T11:03:49Z</time>
      </trkpt>
      <trkpt lat="51.29703270173" lon="4.556504691741">
        <ele>11</ele>
        <time>2020-07-12T11:03:59Z</time>
      </trkpt>
      <trkpt lat="51.297330091542" lon="4.557246406072">
        <ele>11.4</ele>
        <time>2020-07-12T11:04:08Z</time>
      </trkpt>
      <trkpt lat="51.297643826059" lon="4.558007147316">
        <ele>12.2</ele>
        <time>2020-07-12T11:04:17Z</time>
      </trkpt>
      <trkpt lat="51.297945155364" lon="4.558762775601">
        <ele>12.6</ele>
        <time>2020-07-12T11:04:28Z</time>
      </trkpt>
      <trkpt lat="51.298061077041" lon="4.559059243404">
        <ele>12.8</ele>
        <time>2020-07-12T11:04:33Z</time>
      </trkpt>
      <trkpt lat="51.298357125749" lon="4.559778829519">
        <ele>14.2</ele>
        <time>2020-07-12T11:04:47Z</time>
      </trkpt>
      <trkpt lat="51.298680331813" lon="4.560567650128">
        <ele>14.6</ele>
        <time>2020-07-12T11:04:59Z</time>
      </trkpt>
      <trkpt lat="51.298981912575" lon="4.561350938683">
        <ele>13.6</ele>
        <time>2020-07-12T11:05:10Z</time>
      </trkpt>
      <trkpt lat="51.299294641264" lon="4.562138669645">
        <ele>13.8</ele>
        <time>2020-07-12T11:05:21Z</time>
      </trkpt>
      <trkpt lat="51.299607286134" lon="4.562863620176">
        <ele>15</ele>
        <time>2020-07-12T11:05:31Z</time>
      </trkpt>
      <trkpt lat="51.299923032307" lon="4.563661325599">
        <ele>15.4</ele>
        <time>2020-07-12T11:05:42Z</time>
      </trkpt>
      <trkpt lat="51.300218326644" lon="4.564386527587">
        <ele>15.6</ele>
        <time>2020-07-12T11:05:52Z</time>
      </trkpt>
      <trkpt lat="51.300508005108" lon="4.565149364306">
        <ele>13.4</ele>
        <time>2020-07-12T11:06:02Z</time>
      </trkpt>
      <trkpt lat="51.300864235858" lon="4.565890743361">
        <ele>18.8</ele>
        <time>2020-07-12T11:06:13Z</time>
      </trkpt>
      <trkpt lat="51.301027431451" lon="4.566302462289">
        <ele>17.6</ele>
        <time>2020-07-12T11:06:19Z</time>
      </trkpt>
      <trkpt lat="51.301327838747" lon="4.567057420022">
        <ele>17.8</ele>
        <time>2020-07-12T11:06:29Z</time>
      </trkpt>
      <trkpt lat="51.301630341518" lon="4.567805336959">
        <ele>17.6</ele>
        <time>2020-07-12T11:06:40Z</time>
      </trkpt>
      <trkpt lat="51.301922199276" lon="4.568533556431">
        <ele>17.4</ele>
        <time>2020-07-12T11:06:50Z</time>
      </trkpt>
      <trkpt lat="51.302222019839" lon="4.569221123688">
        <ele>18.2</ele>
        <time>2020-07-12T11:07:00Z</time>
      </trkpt>
      <trkpt lat="51.302658297734" lon="4.570256539795">
        <ele>21.8</ele>
        <time>2020-07-12T11:07:38Z</time>
      </trkpt>
      <trkpt lat="51.302929452199" lon="4.571005127284">
        <ele>21.4</ele>
        <time>2020-07-12T11:07:50Z</time>
      </trkpt>
      <trkpt lat="51.303213011876" lon="4.571764275967">
        <ele>21.2</ele>
        <time>2020-07-12T11:08:00Z</time>
      </trkpt>
      <trkpt lat="51.303489111662" lon="4.572524849573">
        <ele>18.4</ele>
        <time>2020-07-12T11:08:10Z</time>
      </trkpt>
      <trkpt lat="51.303808964966" lon="4.57331299963">
        <ele>15</ele>
        <time>2020-07-12T11:08:20Z</time>
      </trkpt>
      <trkpt lat="51.304115323411" lon="4.574098635117">
        <ele>10.4</ele>
        <time>2020-07-12T11:08:29Z</time>
      </trkpt>
      <trkpt lat="51.304425621349" lon="4.574812689178">
        <ele>14.2</ele>
        <time>2020-07-12T11:08:37Z</time>
      </trkpt>
      <trkpt lat="51.304729465224" lon="4.575570664395">
        <ele>15.8</ele>
        <time>2020-07-12T11:08:47Z</time>
      </trkpt>
      <trkpt lat="51.305020736249" lon="4.576334506942">
        <ele>17.2</ele>
        <time>2020-07-12T11:08:57Z</time>
      </trkpt>
      <trkpt lat="51.305328100522" lon="4.577067671735">
        <ele>18</ele>
        <time>2020-07-12T11:09:07Z</time>
      </trkpt>
      <trkpt lat="51.305640996849" lon="4.577821456002">
        <ele>16.8</ele>
        <time>2020-07-12T11:09:18Z</time>
      </trkpt>
      <trkpt lat="51.3059535579" lon="4.578594853915">
        <ele>15.6</ele>
        <time>2020-07-12T11:09:29Z</time>
      </trkpt>
      <trkpt lat="51.306219599406" lon="4.579355678978">
        <ele>14</ele>
        <time>2020-07-12T11:09:39Z</time>
      </trkpt>
      <trkpt lat="51.306502739988" lon="4.580091106884">
        <ele>10.4</ele>
        <time>2020-07-12T11:09:49Z</time>
      </trkpt>
      <trkpt lat="51.306806919139" lon="4.580844388237">
        <ele>14</ele>
        <time>2020-07-12T11:09:59Z</time>
      </trkpt>
      <trkpt lat="51.307122246217" lon="4.581608398422">
        <ele>19.8</ele>
        <time>2020-07-12T11:10:09Z</time>
      </trkpt>
      <trkpt lat="51.307449894688" lon="4.582383556534">
        <ele>17</ele>
        <time>2020-07-12T11:10:20Z</time>
      </trkpt>
      <trkpt lat="51.307772933114" lon="4.5831223372">
        <ele>12.4</ele>
        <time>2020-07-12T11:10:29Z</time>
      </trkpt>
      <trkpt lat="51.308090858581" lon="4.583933202206">
        <ele>12.2</ele>
        <time>2020-07-12T11:10:38Z</time>
      </trkpt>
      <trkpt lat="51.308376010819" lon="4.584700146056">
        <ele>11.8</ele>
        <time>2020-07-12T11:10:46Z</time>
      </trkpt>
      <trkpt lat="51.308688320413" lon="4.585405063846">
        <ele>11</ele>
        <time>2020-07-12T11:10:54Z</time>
      </trkpt>
      <trkpt lat="51.309006916432" lon="4.586160273036">
        <ele>15</ele>
        <time>2020-07-12T11:11:03Z</time>
      </trkpt>
      <trkpt lat="51.309036672177" lon="4.586244930226">
        <ele>15</ele>
        <time>2020-07-12T11:11:04Z</time>
      </trkpt>
      <trkpt lat="51.309345964287" lon="4.58697465844">
        <ele>16.6</ele>
        <time>2020-07-12T11:11:13Z</time>
      </trkpt>
      <trkpt lat="51.309637905864" lon="4.587718049151">
        <ele>17.8</ele>
        <time>2020-07-12T11:11:21Z</time>
      </trkpt>
      <trkpt lat="51.309926746138" lon="4.588476192006">
        <ele>14.8</ele>
        <time>2020-07-12T11:11:31Z</time>
      </trkpt>
      <trkpt lat="51.310232853126" lon="4.589258893828">
        <ele>14.6</ele>
        <time>2020-07-12T11:11:41Z</time>
      </trkpt>
      <trkpt lat="51.310539127752" lon="4.590032459379">
        <ele>16.4</ele>
        <time>2020-07-12T11:11:51Z</time>
      </trkpt>
      <trkpt lat="51.310838613039" lon="4.590802839808">
        <ele>14.4</ele>
        <time>2020-07-12T11:12:01Z</time>
      </trkpt>
      <trkpt lat="51.311161986741" lon="4.591604652362">
        <ele>11.2</ele>
        <time>2020-07-12T11:12:11Z</time>
      </trkpt>
      <trkpt lat="51.311474380154" lon="4.592330776359">
        <ele>10.4</ele>
        <time>2020-07-12T11:12:21Z</time>
      </trkpt>
      <trkpt lat="51.311807895955" lon="4.593125129022">
        <ele>9.4</ele>
        <time>2020-07-12T11:12:31Z</time>
      </trkpt>
      <trkpt lat="51.31210671069" lon="4.593856449797">
        <ele>10</ele>
        <time>2020-07-12T11:12:40Z</time>
      </trkpt>
      <trkpt lat="51.312424971433" lon="4.594641750008">
        <ele>11.6</ele>
        <time>2020-07-12T11:12:50Z</time>
      </trkpt>
      <trkpt lat="51.312743483633" lon="4.595427636952">
        <ele>14.2</ele>
        <time>2020-07-12T11:13:00Z</time>
      </trkpt>
      <trkpt lat="51.313045232033" lon="4.596226934936">
        <ele>12.6</ele>
        <time>2020-07-12T11:13:10Z</time>
      </trkpt>
      <trkpt lat="51.313366845536" lon="4.596977114986">
        <ele>12.2</ele>
        <time>2020-07-12T11:13:19Z</time>
      </trkpt>
      <trkpt lat="51.313667085194" lon="4.597737688592">
        <ele>8.2</ele>
        <time>2020-07-12T11:13:30Z</time>
      </trkpt>
      <trkpt lat="51.313974114191" lon="4.598519971319">
        <ele>10.8</ele>
        <time>2020-07-12T11:13:40Z</time>
      </trkpt>
      <trkpt lat="51.31428768107" lon="4.599326980651">
        <ele>12.8</ele>
        <time>2020-07-12T11:13:50Z</time>
      </trkpt>
      <trkpt lat="51.314613653161" lon="4.60009987565">
        <ele>16</ele>
        <time>2020-07-12T11:14:00Z</time>
      </trkpt>
      <trkpt lat="51.314918586683" lon="4.600858940514">
        <ele>10.8</ele>
        <time>2020-07-12T11:14:11Z</time>
      </trkpt>
      <trkpt lat="51.315195021745" lon="4.601602331225">
        <ele>4.2</ele>
        <time>2020-07-12T11:14:22Z</time>
      </trkpt>
      <trkpt lat="51.315495093765" lon="4.602414285878">
        <ele>3.4</ele>
        <time>2020-07-12T11:14:32Z</time>
      </trkpt>
      <trkpt lat="51.31580564316" lon="4.603221965762">
        <ele>4.6</ele>
        <time>2020-07-12T11:14:42Z</time>
      </trkpt>
      <trkpt lat="51.316198670451" lon="4.604036183528">
        <ele>8.8</ele>
        <time>2020-07-12T11:14:53Z</time>
      </trkpt>
      <trkpt lat="51.316477536264" lon="4.604677901792">
        <ele>9</ele>
        <time>2020-07-12T11:15:02Z</time>
      </trkpt>
      <trkpt lat="51.316781128682" lon="4.605453646637">
        <ele>14</ele>
        <time>2020-07-12T11:15:12Z</time>
      </trkpt>
      <trkpt lat="51.317107016954" lon="4.606167700698">
        <ele>15.4</ele>
        <time>2020-07-12T11:15:21Z</time>
      </trkpt>
      <trkpt lat="51.31739233683" lon="4.606922239336">
        <ele>12.2</ele>
        <time>2020-07-12T11:15:31Z</time>
      </trkpt>
      <trkpt lat="51.317714620885" lon="4.60768549515">
        <ele>17.6</ele>
        <time>2020-07-12T11:15:41Z</time>
      </trkpt>
      <trkpt lat="51.318009663765" lon="4.608467777877">
        <ele>16</ele>
        <time>2020-07-12T11:15:51Z</time>
      </trkpt>
      <trkpt lat="51.318345610317" lon="4.609243187446">
        <ele>18.8</ele>
        <time>2020-07-12T11:16:01Z</time>
      </trkpt>
      <trkpt lat="51.318673174969" lon="4.610036115186">
        <ele>18.8</ele>
        <time>2020-07-12T11:16:12Z</time>
      </trkpt>
      <trkpt lat="51.318978695224" lon="4.610776320775">
        <ele>20.4</ele>
        <time>2020-07-12T11:16:22Z</time>
      </trkpt>
      <trkpt lat="51.319298045614" lon="4.611533709259">
        <ele>21.6</ele>
        <time>2020-07-12T11:16:32Z</time>
      </trkpt>
      <trkpt lat="51.319599207281" lon="4.612269472441">
        <ele>21.2</ele>
        <time>2020-07-12T11:16:42Z</time>
      </trkpt>
      <trkpt lat="51.319909589038" lon="4.61303985287">
        <ele>20.4</ele>
        <time>2020-07-12T11:16:52Z</time>
      </trkpt>
      <trkpt lat="51.320212427085" lon="4.613799839743">
        <ele>20</ele>
        <time>2020-07-12T11:17:02Z</time>
      </trkpt>
      <trkpt lat="51.320524233765" lon="4.614563095557">
        <ele>20.6</ele>
        <time>2020-07-12T11:17:12Z</time>
      </trkpt>
      <trkpt lat="51.320830676029" lon="4.615304726069">
        <ele>21</ele>
        <time>2020-07-12T11:17:22Z</time>
      </trkpt>
      <trkpt lat="51.321136950655" lon="4.616089104271">
        <ele>21</ele>
        <time>2020-07-12T11:17:32Z</time>
      </trkpt>
      <trkpt lat="51.321416570839" lon="4.616849510239">
        <ele>20.6</ele>
        <time>2020-07-12T11:17:41Z</time>
      </trkpt>
      <trkpt lat="51.321738435799" lon="4.6176557652">
        <ele>20</ele>
        <time>2020-07-12T11:17:50Z</time>
      </trkpt>
      <trkpt lat="51.322017050155" lon="4.618412734589">
        <ele>17</ele>
        <time>2020-07-12T11:18:00Z</time>
      </trkpt>
      <trkpt lat="51.322321396944" lon="4.619189736719">
        <ele>10.6</ele>
        <time>2020-07-12T11:18:10Z</time>
      </trkpt>
      <trkpt lat="51.322632113977" lon="4.619894319233">
        <ele>11</ele>
        <time>2020-07-12T11:18:19Z</time>
      </trkpt>
      <trkpt lat="51.322963701941" lon="4.620626059103">
        <ele>16.2</ele>
        <time>2020-07-12T11:18:28Z</time>
      </trkpt>
      <trkpt lat="51.323295457543" lon="4.621403228871">
        <ele>18.6</ele>
        <time>2020-07-12T11:18:38Z</time>
      </trkpt>
      <trkpt lat="51.323573736623" lon="4.622209232375">
        <ele>19.2</ele>
        <time>2020-07-12T11:18:48Z</time>
      </trkpt>
      <trkpt lat="51.323863247449" lon="4.623007105436">
        <ele>14.4</ele>
        <time>2020-07-12T11:18:58Z</time>
      </trkpt>
      <trkpt lat="51.324142532357" lon="4.62381059437">
        <ele>11</ele>
        <time>2020-07-12T11:19:08Z</time>
      </trkpt>
      <trkpt lat="51.324476467253" lon="4.624604192662">
        <ele>11.8</ele>
        <time>2020-07-12T11:19:18Z</time>
      </trkpt>
      <trkpt lat="51.324790285589" lon="4.625377674394">
        <ele>14.2</ele>
        <time>2020-07-12T11:19:28Z</time>
      </trkpt>
      <trkpt lat="51.325131680376" lon="4.626151156126">
        <ele>14.8</ele>
        <time>2020-07-12T11:19:38Z</time>
      </trkpt>
      <trkpt lat="51.325447594187" lon="4.62690603004">
        <ele>13.6</ele>
        <time>2020-07-12T11:19:48Z</time>
      </trkpt>
      <trkpt lat="51.325767363672" lon="4.627668866759">
        <ele>15.8</ele>
        <time>2020-07-12T11:19:58Z</time>
      </trkpt>
      <trkpt lat="51.326079002714" lon="4.628373449273">
        <ele>19.4</ele>
        <time>2020-07-12T11:20:08Z</time>
      </trkpt>
      <trkpt lat="51.326376476345" lon="4.629095717596">
        <ele>20.2</ele>
        <time>2020-07-12T11:20:18Z</time>
      </trkpt>
      <trkpt lat="51.326403214606" lon="4.629150367584">
        <ele>20.4</ele>
        <time>2020-07-12T11:20:19Z</time>
      </trkpt>
      <trkpt lat="51.326481250095" lon="4.629340720533">
        <ele>21.2</ele>
        <time>2020-07-12T11:20:22Z</time>
      </trkpt>
      <trkpt lat="51.326789704015" lon="4.630149992978">
        <ele>21.2</ele>
        <time>2020-07-12T11:20:33Z</time>
      </trkpt>
      <trkpt lat="51.327090027492" lon="4.630887097264">
        <ele>20.6</ele>
        <time>2020-07-12T11:20:42Z</time>
      </trkpt>
      <trkpt lat="51.327377442843" lon="4.631677678072">
        <ele>19.8</ele>
        <time>2020-07-12T11:20:52Z</time>
      </trkpt>
      <trkpt lat="51.327682208727" lon="4.632440347153">
        <ele>19.2</ele>
        <time>2020-07-12T11:21:02Z</time>
      </trkpt>
      <trkpt lat="51.327992841941" lon="4.633210559944">
        <ele>18.2</ele>
        <time>2020-07-12T11:21:12Z</time>
      </trkpt>
      <trkpt lat="51.328284029147" lon="4.633946993678">
        <ele>17.8</ele>
        <time>2020-07-12T11:21:21Z</time>
      </trkpt>
      <trkpt lat="51.328595332913" lon="4.634741011065">
        <ele>19.8</ele>
        <time>2020-07-12T11:21:31Z</time>
      </trkpt>
      <trkpt lat="51.32888475992" lon="4.635384824804">
        <ele>19.4</ele>
        <time>2020-07-12T11:21:40Z</time>
      </trkpt>
      <trkpt lat="51.329033454826" lon="4.635576854133">
        <ele>21</ele>
        <time>2020-07-12T11:21:54Z</time>
      </trkpt>
      <trkpt lat="51.329087685719" lon="4.635834597558">
        <ele>20.4</ele>
        <time>2020-07-12T11:21:59Z</time>
      </trkpt>
      <trkpt lat="51.329381638952" lon="4.636593410965">
        <ele>20.4</ele>
        <time>2020-07-12T11:22:08Z</time>
      </trkpt>
      <trkpt lat="51.329708030138" lon="4.637361444462">
        <ele>20.4</ele>
        <time>2020-07-12T11:22:17Z</time>
      </trkpt>
      <trkpt lat="51.329741473919" lon="4.637444089996">
        <ele>20.6</ele>
        <time>2020-07-12T11:22:18Z</time>
      </trkpt>
      <trkpt lat="51.330048502916" lon="4.638228719655">
        <ele>20.8</ele>
        <time>2020-07-12T11:22:28Z</time>
      </trkpt>
      <trkpt lat="51.330332146412" lon="4.639001698473">
        <ele>19.8</ele>
        <time>2020-07-12T11:22:38Z</time>
      </trkpt>
      <trkpt lat="51.330648646956" lon="4.639808372529">
        <ele>18.4</ele>
        <time>2020-07-12T11:22:48Z</time>
      </trkpt>
      <trkpt lat="51.330957017057" lon="4.640544303349">
        <ele>17</ele>
        <time>2020-07-12T11:22:57Z</time>
      </trkpt>
      <trkpt lat="51.331272679411" lon="4.641346032084">
        <ele>15.6</ele>
        <time>2020-07-12T11:23:07Z</time>
      </trkpt>
      <trkpt lat="51.331577780571" lon="4.642156813271">
        <ele>13.6</ele>
        <time>2020-07-12T11:23:17Z</time>
      </trkpt>
      <trkpt lat="51.331901489549" lon="4.642900958353">
        <ele>15</ele>
        <time>2020-07-12T11:23:27Z</time>
      </trkpt>
      <trkpt lat="51.332196280972" lon="4.643622639943">
        <ele>16.6</ele>
        <time>2020-07-12T11:23:36Z</time>
      </trkpt>
      <trkpt lat="51.332512362421" lon="4.644357481116">
        <ele>20.6</ele>
        <time>2020-07-12T11:23:45Z</time>
      </trkpt>
      <trkpt lat="51.332825845481" lon="4.645120150197">
        <ele>20.2</ele>
        <time>2020-07-12T11:23:55Z</time>
      </trkpt>
      <trkpt lat="51.333116194497" lon="4.645858427949">
        <ele>20.8</ele>
        <time>2020-07-12T11:24:04Z</time>
      </trkpt>
      <trkpt lat="51.333432024489" lon="4.646626461446">
        <ele>20.6</ele>
        <time>2020-07-12T11:24:14Z</time>
      </trkpt>
      <trkpt lat="51.333725810084" lon="4.647402793024">
        <ele>19.4</ele>
        <time>2020-07-12T11:24:24Z</time>
      </trkpt>
      <trkpt lat="51.334042394447" lon="4.64819186509">
        <ele>18</ele>
        <time>2020-07-12T11:24:34Z</time>
      </trkpt>
      <trkpt lat="51.334358894991" lon="4.64893450143">
        <ele>18.2</ele>
        <time>2020-07-12T11:24:44Z</time>
      </trkpt>
      <trkpt lat="51.334663996151" lon="4.649684597661">
        <ele>18.4</ele>
        <time>2020-07-12T11:24:53Z</time>
      </trkpt>
      <trkpt lat="51.334959793402" lon="4.650424467974">
        <ele>19.6</ele>
        <time>2020-07-12T11:25:03Z</time>
      </trkpt>
      <trkpt lat="51.335267828227" lon="4.651189316349">
        <ele>20.6</ele>
        <time>2020-07-12T11:25:14Z</time>
      </trkpt>
      <trkpt lat="51.335569492808" lon="4.651949889955">
        <ele>19</ele>
        <time>2020-07-12T11:25:24Z</time>
      </trkpt>
      <trkpt lat="51.335885658076" lon="4.652715241244">
        <ele>17</ele>
        <time>2020-07-12T11:25:34Z</time>
      </trkpt>
      <trkpt lat="51.336195201643" lon="4.653506744061">
        <ele>15.8</ele>
        <time>2020-07-12T11:25:44Z</time>
      </trkpt>
      <trkpt lat="51.336495189844" lon="4.654230940221">
        <ele>17.8</ele>
        <time>2020-07-12T11:25:53Z</time>
      </trkpt>
      <trkpt lat="51.336816803347" lon="4.655022945952">
        <ele>19.4</ele>
        <time>2020-07-12T11:26:03Z</time>
      </trkpt>
      <trkpt lat="51.337137662479" lon="4.655811766561">
        <ele>20.2</ele>
        <time>2020-07-12T11:26:13Z</time>
      </trkpt>
      <trkpt lat="51.337453660109" lon="4.656542668241">
        <ele>20.2</ele>
        <time>2020-07-12T11:26:23Z</time>
      </trkpt>
      <trkpt lat="51.337768484273" lon="4.657299889087">
        <ele>20.2</ele>
        <time>2020-07-12T11:26:33Z</time>
      </trkpt>
      <trkpt lat="51.337914496971" lon="4.657667351583">
        <ele>19.8</ele>
        <time>2020-07-12T11:26:38Z</time>
      </trkpt>
      <trkpt lat="51.338169306731" lon="4.658374281029">
        <ele>19</ele>
        <time>2020-07-12T11:26:59Z</time>
      </trkpt>
      <trkpt lat="51.338461164489" lon="4.659111133858">
        <ele>20.2</ele>
        <time>2020-07-12T11:27:09Z</time>
      </trkpt>
      <trkpt lat="51.338777497395" lon="4.659857709691">
        <ele>20</ele>
        <time>2020-07-12T11:27:18Z</time>
      </trkpt>
      <trkpt lat="51.339080083985" lon="4.66060545899">
        <ele>17.2</ele>
        <time>2020-07-12T11:27:28Z</time>
      </trkpt>
      <trkpt lat="51.339387029163" lon="4.661399895472">
        <ele>14.6</ele>
        <time>2020-07-12T11:27:38Z</time>
      </trkpt>
      <trkpt lat="51.339693890522" lon="4.66218963809">
        <ele>13</ele>
        <time>2020-07-12T11:27:48Z</time>
      </trkpt>
      <trkpt lat="51.339979210398" lon="4.66292556891">
        <ele>10.8</ele>
        <time>2020-07-12T11:27:57Z</time>
      </trkpt>
      <trkpt lat="51.340281210255" lon="4.663648172509">
        <ele>9.4</ele>
        <time>2020-07-12T11:28:06Z</time>
      </trkpt>
      <trkpt lat="51.340765684075" lon="4.664924735879">
        <ele>10</ele>
        <time>2020-07-12T11:28:22Z</time>
      </trkpt>
      <trkpt lat="51.341079753868" lon="4.66572679989">
        <ele>7.6</ele>
        <time>2020-07-12T11:28:32Z</time>
      </trkpt>
      <trkpt lat="51.341407067063" lon="4.666511094273">
        <ele>7.8</ele>
        <time>2020-07-12T11:28:42Z</time>
      </trkpt>
      <trkpt lat="51.341715101888" lon="4.667288934593">
        <ele>10</ele>
        <time>2020-07-12T11:28:52Z</time>
      </trkpt>
      <trkpt lat="51.342026908568" lon="4.668068367474">
        <ele>12.4</ele>
        <time>2020-07-12T11:29:02Z</time>
      </trkpt>
      <trkpt lat="51.342338966705" lon="4.668869509476">
        <ele>12.4</ele>
        <time>2020-07-12T11:29:12Z</time>
      </trkpt>
      <trkpt lat="51.342669045927" lon="4.669576858017">
        <ele>15.8</ele>
        <time>2020-07-12T11:29:21Z</time>
      </trkpt>
      <trkpt lat="51.342954114346" lon="4.670271298432">
        <ele>16.8</ele>
        <time>2020-07-12T11:29:30Z</time>
      </trkpt>
      <trkpt lat="51.343254018728" lon="4.671058275023">
        <ele>13.4</ele>
        <time>2020-07-12T11:29:42Z</time>
      </trkpt>
      <trkpt lat="51.343500195131" lon="4.671670908094">
        <ele>12</ele>
        <time>2020-07-12T11:29:51Z</time>
      </trkpt>
      <trkpt lat="51.343605220338" lon="4.671922113637">
        <ele>14</ele>
        <time>2020-07-12T11:29:56Z</time>
      </trkpt>
      <trkpt lat="51.343770511406" lon="4.672384710698">
        <ele>15.8</ele>
        <time>2020-07-12T11:30:04Z</time>
      </trkpt>
      <trkpt lat="51.34385231875" lon="4.672721243983">
        <ele>18.2</ele>
        <time>2020-07-12T11:30:09Z</time>
      </trkpt>
      <trkpt lat="51.344241741824" lon="4.673693376745">
        <ele>17.2</ele>
        <time>2020-07-12T11:30:29Z</time>
      </trkpt>
      <trkpt lat="51.344772232275" lon="4.673309485725">
        <ele>19.8</ele>
        <time>2020-07-12T11:30:41Z</time>
      </trkpt>
      <trkpt lat="51.345165846299" lon="4.673046964617">
        <ele>23</ele>
        <time>2020-07-12T11:30:49Z</time>
      </trkpt>
      <trkpt lat="51.345256873733" lon="4.673104967365">
        <ele>23.2</ele>
        <time>2020-07-12T11:30:51Z</time>
      </trkpt>
      <trkpt lat="51.345326778779" lon="4.673241005602">
        <ele>23.8</ele>
        <time>2020-07-12T11:30:53Z</time>
      </trkpt>
      <trkpt lat="51.345572787544" lon="4.674034520075">
        <ele>22.2</ele>
        <time>2020-07-12T11:31:02Z</time>
      </trkpt>
      <trkpt lat="51.345821143241" lon="4.674861729786">
        <ele>20.2</ele>
        <time>2020-07-12T11:31:12Z</time>
      </trkpt>
      <trkpt lat="51.346036977166" lon="4.675657339734">
        <ele>19.8</ele>
        <time>2020-07-12T11:31:22Z</time>
      </trkpt>
      <trkpt lat="51.34625457129" lon="4.676537606872">
        <ele>21.2</ele>
        <time>2020-07-12T11:31:33Z</time>
      </trkpt>
      <trkpt lat="51.346333612607" lon="4.676855699977">
        <ele>20.8</ele>
        <time>2020-07-12T11:31:37Z</time>
      </trkpt>
      <trkpt lat="51.346400164893" lon="4.676974806776">
        <ele>19.8</ele>
        <time>2020-07-12T11:31:39Z</time>
      </trkpt>
      <trkpt lat="51.346481553142" lon="4.676980255011">
        <ele>17.4</ele>
        <time>2020-07-12T11:31:41Z</time>
      </trkpt>
      <trkpt lat="51.346720772568" lon="4.676808342242">
        <ele>14.6</ele>
        <time>2020-07-12T11:31:46Z</time>
      </trkpt>
      <trkpt lat="51.347194433737" lon="4.676359323859">
        <ele>18.6</ele>
        <time>2020-07-12T11:31:56Z</time>
      </trkpt>
      <trkpt lat="51.347462235442" lon="4.676153464395">
        <ele>22</ele>
        <time>2020-07-12T11:32:02Z</time>
      </trkpt>
      <trkpt lat="51.347552340867" lon="4.676181040846">
        <ele>22.6</ele>
        <time>2020-07-12T11:32:04Z</time>
      </trkpt>
      <trkpt lat="51.347617971144" lon="4.676293945039">
        <ele>22.4</ele>
        <time>2020-07-12T11:32:06Z</time>
      </trkpt>
      <trkpt lat="51.347686535086" lon="4.676482286332">
        <ele>22.2</ele>
        <time>2020-07-12T11:32:09Z</time>
      </trkpt>
      <trkpt lat="51.347664155413" lon="4.676572224119">
        <ele>21.8</ele>
        <time>2020-07-12T11:32:12Z</time>
      </trkpt>
      <trkpt lat="51.347610175977" lon="4.676280031085">
        <ele>21.8</ele>
        <time>2020-07-12T11:32:17Z</time>
      </trkpt>
      <trkpt lat="51.347513616489" lon="4.676154386404">
        <ele>22.6</ele>
        <time>2020-07-12T11:32:20Z</time>
      </trkpt>
      <trkpt lat="51.347419571571" lon="4.67618741109">
        <ele>21.8</ele>
        <time>2020-07-12T11:32:22Z</time>
      </trkpt>
      <trkpt lat="51.346909281499" lon="4.676589407014">
        <ele>21.2</ele>
        <time>2020-07-12T11:32:32Z</time>
      </trkpt>
      <trkpt lat="51.346395219572" lon="4.676980171192">
        <ele>17.4</ele>
        <time>2020-07-12T11:32:43Z</time>
      </trkpt>
      <trkpt lat="51.346361440515" lon="4.677023505615">
        <ele>17</ele>
        <time>2020-07-12T11:32:44Z</time>
      </trkpt>
      <trkpt lat="51.34631827373" lon="4.677144707889">
        <ele>16.6</ele>
        <time>2020-07-12T11:32:46Z</time>
      </trkpt>
      <trkpt lat="51.346310310925" lon="4.677300108315">
        <ele>15.8</ele>
        <time>2020-07-12T11:32:48Z</time>
      </trkpt>
      <trkpt lat="51.346404774938" lon="4.677968732478">
        <ele>15.6</ele>
        <time>2020-07-12T11:32:56Z</time>
      </trkpt>
      <trkpt lat="51.346636702111" lon="4.678773730154">
        <ele>16.6</ele>
        <time>2020-07-12T11:33:07Z</time>
      </trkpt>
      <trkpt lat="51.346727142812" lon="4.679101965358">
        <ele>18.2</ele>
        <time>2020-07-12T11:33:12Z</time>
      </trkpt>
      <trkpt lat="51.346741224404" lon="4.67938091499">
        <ele>18.2</ele>
        <time>2020-07-12T11:33:16Z</time>
      </trkpt>
      <trkpt lat="51.346774416728" lon="4.67950748168">
        <ele>18.2</ele>
        <time>2020-07-12T11:33:18Z</time>
      </trkpt>
      <trkpt lat="51.347047582849" lon="4.680330416622">
        <ele>16.4</ele>
        <time>2020-07-12T11:33:30Z</time>
      </trkpt>
      <trkpt lat="51.347320162237" lon="4.681087972744">
        <ele>16.8</ele>
        <time>2020-07-12T11:33:40Z</time>
      </trkpt>
      <trkpt lat="51.347400796115" lon="4.681388463859">
        <ele>16.2</ele>
        <time>2020-07-12T11:33:44Z</time>
      </trkpt>
      <trkpt lat="51.347541612035" lon="4.682257080156">
        <ele>18</ele>
        <time>2020-07-12T11:33:55Z</time>
      </trkpt>
      <trkpt lat="51.347695838995" lon="4.683130809412">
        <ele>22.6</ele>
        <time>2020-07-12T11:34:06Z</time>
      </trkpt>
      <trkpt lat="51.347710339682" lon="4.683426941939">
        <ele>20.4</ele>
        <time>2020-07-12T11:34:13Z</time>
      </trkpt>
      <trkpt lat="51.348961338257" lon="4.684579704646">
        <ele>14.2</ele>
        <time>2020-07-12T11:35:46Z</time>
      </trkpt>
      <trkpt lat="51.349307594546" lon="4.685268445369">
        <ele>17</ele>
        <time>2020-07-12T11:35:58Z</time>
      </trkpt>
      <trkpt lat="51.34968528296" lon="4.685975207177">
        <ele>17.6</ele>
        <time>2020-07-12T11:36:09Z</time>
      </trkpt>
      <trkpt lat="51.350083674667" lon="4.686670821058">
        <ele>18.6</ele>
        <time>2020-07-12T11:36:20Z</time>
      </trkpt>
      <trkpt lat="51.350137151189" lon="4.686807781304">
        <ele>18.8</ele>
        <time>2020-07-12T11:36:22Z</time>
      </trkpt>
      <trkpt lat="51.350129775117" lon="4.686954129278">
        <ele>18.2</ele>
        <time>2020-07-12T11:36:24Z</time>
      </trkpt>
      <trkpt lat="51.350066910867" lon="4.687063932168">
        <ele>17.4</ele>
        <time>2020-07-12T11:36:26Z</time>
      </trkpt>
      <trkpt lat="51.34976742558" lon="4.687557290802">
        <ele>16.8</ele>
        <time>2020-07-12T11:36:34Z</time>
      </trkpt>
      <trkpt lat="51.349741357871" lon="4.687705901889">
        <ele>16.6</ele>
        <time>2020-07-12T11:36:36Z</time>
      </trkpt>
      <trkpt lat="51.349772873815" lon="4.687858703926">
        <ele>15.4</ele>
        <time>2020-07-12T11:36:38Z</time>
      </trkpt>
      <trkpt lat="51.350126506176" lon="4.688551803237">
        <ele>14.8</ele>
        <time>2020-07-12T11:36:49Z</time>
      </trkpt>
      <trkpt lat="51.350521377485" lon="4.689062177128">
        <ele>17.4</ele>
        <time>2020-07-12T11:36:59Z</time>
      </trkpt>
      <trkpt lat="51.350622547018" lon="4.689184217592">
        <ele>24.8</ele>
        <time>2020-07-12T11:38:35Z</time>
      </trkpt>
      <trkpt lat="51.351109116313" lon="4.6896311405">
        <ele>24.4</ele>
        <time>2020-07-12T11:38:49Z</time>
      </trkpt>
      <trkpt lat="51.351355711811" lon="4.689832809014">
        <ele>23</ele>
        <time>2020-07-12T11:38:54Z</time>
      </trkpt>
      <trkpt lat="51.351459060638" lon="4.689873628867">
        <ele>21.8</ele>
        <time>2020-07-12T11:38:56Z</time>
      </trkpt>
      <trkpt lat="51.351565762225" lon="4.689878238912">
        <ele>20.8</ele>
        <time>2020-07-12T11:38:58Z</time>
      </trkpt>
      <trkpt lat="51.351723341945" lon="4.689832138462">
        <ele>19.2</ele>
        <time>2020-07-12T11:39:01Z</time>
      </trkpt>
      <trkpt lat="51.351858961087" lon="4.689746559263">
        <ele>18.8</ele>
        <time>2020-07-12T11:39:04Z</time>
      </trkpt>
      <trkpt lat="51.352189207947" lon="4.689625021713">
        <ele>18</ele>
        <time>2020-07-12T11:39:13Z</time>
      </trkpt>
      <trkpt lat="51.352812737488" lon="4.689393178359">
        <ele>16.8</ele>
        <time>2020-07-12T11:39:34Z</time>
      </trkpt>
      <trkpt lat="51.35333224765" lon="4.689162089376">
        <ele>17</ele>
        <time>2020-07-12T11:39:44Z</time>
      </trkpt>
      <trkpt lat="51.353790402304" lon="4.689017753058">
        <ele>17.4</ele>
        <time>2020-07-12T11:39:53Z</time>
      </trkpt>
      <trkpt lat="51.353854356201" lon="4.689112217071">
        <ele>17.6</ele>
        <time>2020-07-12T11:39:55Z</time>
      </trkpt>
      <trkpt lat="51.353882351747" lon="4.689270299705">
        <ele>17.6</ele>
        <time>2020-07-12T11:39:57Z</time>
      </trkpt>
      <trkpt lat="51.354046720806" lon="4.690129192998">
        <ele>17.6</ele>
        <time>2020-07-12T11:40:06Z</time>
      </trkpt>
      <trkpt lat="51.354326927723" lon="4.690967299179">
        <ele>18.4</ele>
        <time>2020-07-12T11:40:16Z</time>
      </trkpt>
      <trkpt lat="51.35465826423" lon="4.691649418201">
        <ele>17.8</ele>
        <time>2020-07-12T11:40:25Z</time>
      </trkpt>
      <trkpt lat="51.355059841059" lon="4.692340505856">
        <ele>18</ele>
        <time>2020-07-12T11:40:35Z</time>
      </trkpt>
      <trkpt lat="51.355103594577" lon="4.692407141961">
        <ele>17.8</ele>
        <time>2020-07-12T11:40:36Z</time>
      </trkpt>
      <trkpt lat="51.355196130753" lon="4.692518453593">
        <ele>17.4</ele>
        <time>2020-07-12T11:40:38Z</time>
      </trkpt>
      <trkpt lat="51.355370977187" lon="4.692837636345">
        <ele>18.6</ele>
        <time>2020-07-12T11:40:43Z</time>
      </trkpt>
      <trkpt lat="51.355480863896" lon="4.693190346697">
        <ele>19</ele>
        <time>2020-07-12T11:40:50Z</time>
      </trkpt>
      <trkpt lat="51.355696614002" lon="4.693187329213">
        <ele>19.2</ele>
        <time>2020-07-12T11:40:54Z</time>
      </trkpt>
      <trkpt lat="51.356238671475" lon="4.693497291875">
        <ele>18.2</ele>
        <time>2020-07-12T11:41:03Z</time>
      </trkpt>
      <trkpt lat="51.356693221912" lon="4.694065919971">
        <ele>18.6</ele>
        <time>2020-07-12T11:41:13Z</time>
      </trkpt>
      <trkpt lat="51.357092032714" lon="4.694714259936">
        <ele>17.4</ele>
        <time>2020-07-12T11:41:24Z</time>
      </trkpt>
      <trkpt lat="51.357200243043" lon="4.694896901537">
        <ele>17</ele>
        <time>2020-07-12T11:41:27Z</time>
      </trkpt>
      <trkpt lat="51.357581787131" lon="4.695387577963">
        <ele>23</ele>
        <time>2020-07-12T11:43:11Z</time>
      </trkpt>
      <trkpt lat="51.357978670096" lon="4.696036253204">
        <ele>19.8</ele>
        <time>2020-07-12T11:43:23Z</time>
      </trkpt>
      <trkpt lat="51.358373709043" lon="4.696659615107">
        <ele>18.6</ele>
        <time>2020-07-12T11:43:36Z</time>
      </trkpt>
      <trkpt lat="51.358785930885" lon="4.697269649789">
        <ele>21.6</ele>
        <time>2020-07-12T11:43:47Z</time>
      </trkpt>
      <trkpt lat="51.359230339223" lon="4.697888904561">
        <ele>21</ele>
        <time>2020-07-12T11:43:58Z</time>
      </trkpt>
      <trkpt lat="51.359643902169" lon="4.698512685559">
        <ele>20</ele>
        <time>2020-07-12T11:44:08Z</time>
      </trkpt>
      <trkpt lat="51.360038102926" lon="4.699115092712">
        <ele>19.2</ele>
        <time>2020-07-12T11:44:17Z</time>
      </trkpt>
      <trkpt lat="51.360432722778" lon="4.699724456842">
        <ele>20.2</ele>
        <time>2020-07-12T11:44:26Z</time>
      </trkpt>
      <trkpt lat="51.360842597688" lon="4.700338933931">
        <ele>19.4</ele>
        <time>2020-07-12T11:44:36Z</time>
      </trkpt>
      <trkpt lat="51.361247192001" lon="4.700959948902">
        <ele>19.2</ele>
        <time>2020-07-12T11:44:45Z</time>
      </trkpt>
      <trkpt lat="51.361666454639" lon="4.701604265555">
        <ele>18</ele>
        <time>2020-07-12T11:44:55Z</time>
      </trkpt>
      <trkpt lat="51.362059062835" lon="4.702221676309">
        <ele>17.8</ele>
        <time>2020-07-12T11:45:04Z</time>
      </trkpt>
      <trkpt lat="51.36247773874" lon="4.70286783698">
        <ele>17.4</ele>
        <time>2020-07-12T11:45:14Z</time>
      </trkpt>
      <trkpt lat="51.362888535659" lon="4.703479631861">
        <ele>17</ele>
        <time>2020-07-12T11:45:24Z</time>
      </trkpt>
      <trkpt lat="51.363348115236" lon="4.704028143397">
        <ele>16.6</ele>
        <time>2020-07-12T11:45:35Z</time>
      </trkpt>
      <trkpt lat="51.363789422271" lon="4.704543294971">
        <ele>16</ele>
        <time>2020-07-12T11:45:45Z</time>
      </trkpt>
      <trkpt lat="51.364235004075" lon="4.705071857585">
        <ele>14.6</ele>
        <time>2020-07-12T11:45:57Z</time>
      </trkpt>
      <trkpt lat="51.364696092394" lon="4.70561961475">
        <ele>15.6</ele>
        <time>2020-07-12T11:46:08Z</time>
      </trkpt>
      <trkpt lat="51.365172687228" lon="4.706160582576">
        <ele>17.4</ele>
        <time>2020-07-12T11:46:18Z</time>
      </trkpt>
      <trkpt lat="51.365304031601" lon="4.706316653554">
        <ele>17.8</ele>
        <time>2020-07-12T11:46:21Z</time>
      </trkpt>
      <trkpt lat="51.365780542616" lon="4.706872122067">
        <ele>17.4</ele>
        <time>2020-07-12T11:46:32Z</time>
      </trkpt>
      <trkpt lat="51.366249845197" lon="4.707417113205">
        <ele>17.8</ele>
        <time>2020-07-12T11:46:42Z</time>
      </trkpt>
      <trkpt lat="51.366713028991" lon="4.707970989157">
        <ele>17</ele>
        <time>2020-07-12T11:46:53Z</time>
      </trkpt>
      <trkpt lat="51.367184343228" lon="4.708526541489">
        <ele>16.4</ele>
        <time>2020-07-12T11:47:04Z</time>
      </trkpt>
      <trkpt lat="51.367621878408" lon="4.709039681407">
        <ele>16.4</ele>
        <time>2020-07-12T11:47:14Z</time>
      </trkpt>
      <trkpt lat="51.368079949243" lon="4.709578302301">
        <ele>16.8</ele>
        <time>2020-07-12T11:47:24Z</time>
      </trkpt>
      <trkpt lat="51.368557466086" lon="4.710134609004">
        <ele>18</ele>
        <time>2020-07-12T11:47:34Z</time>
      </trkpt>
      <trkpt lat="51.368998437845" lon="4.710649928216">
        <ele>17.6</ele>
        <time>2020-07-12T11:47:43Z</time>
      </trkpt>
      <trkpt lat="51.369463381838" lon="4.711188800567">
        <ele>16.6</ele>
        <time>2020-07-12T11:47:53Z</time>
      </trkpt>
      <trkpt lat="51.370014240306" lon="4.711835296514">
        <ele>17.8</ele>
        <time>2020-07-12T11:48:05Z</time>
      </trkpt>
      <trkpt lat="51.370484632534" lon="4.712395207434">
        <ele>18</ele>
        <time>2020-07-12T11:48:15Z</time>
      </trkpt>
      <trkpt lat="51.370950330898" lon="4.712932151948">
        <ele>17.8</ele>
        <time>2020-07-12T11:48:25Z</time>
      </trkpt>
      <trkpt lat="51.371391470295" lon="4.713442274382">
        <ele>17.4</ele>
        <time>2020-07-12T11:48:34Z</time>
      </trkpt>
      <trkpt lat="51.371838477022" lon="4.713942422355">
        <ele>17</ele>
        <time>2020-07-12T11:48:43Z</time>
      </trkpt>
      <trkpt lat="51.372314066028" lon="4.714494957203">
        <ele>18.2</ele>
        <time>2020-07-12T11:48:53Z</time>
      </trkpt>
      <trkpt lat="51.372792337242" lon="4.715071967199">
        <ele>19.2</ele>
        <time>2020-07-12T11:49:03Z</time>
      </trkpt>
      <trkpt lat="51.373246552403" lon="4.715642439313">
        <ele>20.2</ele>
        <time>2020-07-12T11:49:13Z</time>
      </trkpt>
      <trkpt lat="51.373712083129" lon="4.716169577004">
        <ele>19</ele>
        <time>2020-07-12T11:49:23Z</time>
      </trkpt>
      <trkpt lat="51.374162610254" lon="4.716760249497">
        <ele>18.6</ele>
        <time>2020-07-12T11:49:33Z</time>
      </trkpt>
      <trkpt lat="51.374616238682" lon="4.717299960038">
        <ele>17.6</ele>
        <time>2020-07-12T11:49:42Z</time>
      </trkpt>
      <trkpt lat="51.375098784665" lon="4.717851572877">
        <ele>15.8</ele>
        <time>2020-07-12T11:49:52Z</time>
      </trkpt>
      <trkpt lat="51.375539085872" lon="4.718362533501">
        <ele>16.6</ele>
        <time>2020-07-12T11:50:02Z</time>
      </trkpt>
      <trkpt lat="51.376012998498" lon="4.718924539896">
        <ele>16.6</ele>
        <time>2020-07-12T11:50:12Z</time>
      </trkpt>
      <trkpt lat="51.376479451233" lon="4.719449330655">
        <ele>16</ele>
        <time>2020-07-12T11:50:22Z</time>
      </trkpt>
      <trkpt lat="51.376919165707" lon="4.719965571876">
        <ele>14.6</ele>
        <time>2020-07-12T11:50:31Z</time>
      </trkpt>
      <trkpt lat="51.377396431093" lon="4.720518525819">
        <ele>15.2</ele>
        <time>2020-07-12T11:50:41Z</time>
      </trkpt>
      <trkpt lat="51.377849137512" lon="4.721051027926">
        <ele>15.4</ele>
        <time>2020-07-12T11:50:50Z</time>
      </trkpt>
      <trkpt lat="51.378293797307" lon="4.721586463698">
        <ele>16.8</ele>
        <time>2020-07-12T11:51:00Z</time>
      </trkpt>
      <trkpt lat="51.378745665536" lon="4.72213279594">
        <ele>17.6</ele>
        <time>2020-07-12T11:51:10Z</time>
      </trkpt>
      <trkpt lat="51.379199293964" lon="4.722656580871">
        <ele>17.2</ele>
        <time>2020-07-12T11:51:20Z</time>
      </trkpt>
      <trkpt lat="51.379667423079" lon="4.723209618633">
        <ele>16</ele>
        <time>2020-07-12T11:51:31Z</time>
      </trkpt>
      <trkpt lat="51.380128259941" lon="4.723752262839">
        <ele>13.6</ele>
        <time>2020-07-12T11:51:41Z</time>
      </trkpt>
      <trkpt lat="51.380602088748" lon="4.724315777976">
        <ele>14.2</ele>
        <time>2020-07-12T11:51:51Z</time>
      </trkpt>
      <trkpt lat="51.381064685809" lon="4.724849705006">
        <ele>16.6</ele>
        <time>2020-07-12T11:52:02Z</time>
      </trkpt>
      <trkpt lat="51.381527785784" lon="4.72537240029">
        <ele>16</ele>
        <time>2020-07-12T11:52:12Z</time>
      </trkpt>
      <trkpt lat="51.381972110303" lon="4.725893251556">
        <ele>16</ele>
        <time>2020-07-12T11:52:23Z</time>
      </trkpt>
      <trkpt lat="51.38240989694" lon="4.72641510865">
        <ele>16.2</ele>
        <time>2020-07-12T11:52:33Z</time>
      </trkpt>
      <trkpt lat="51.382854640554" lon="4.726938642124">
        <ele>16.8</ele>
        <time>2020-07-12T11:52:43Z</time>
      </trkpt>
      <trkpt lat="51.383308017525" lon="4.727478939398">
        <ele>15.4</ele>
        <time>2020-07-12T11:52:53Z</time>
      </trkpt>
      <trkpt lat="51.383758796107" lon="4.728043460363">
        <ele>15.4</ele>
        <time>2020-07-12T11:53:05Z</time>
      </trkpt>
      <trkpt lat="51.383835574311" lon="4.728145468086">
        <ele>15.6</ele>
        <time>2020-07-12T11:53:07Z</time>
      </trkpt>
      <trkpt lat="51.383883183503" lon="4.728286032549">
        <ele>16</ele>
        <time>2020-07-12T11:53:09Z</time>
      </trkpt>
      <trkpt lat="51.383916543465" lon="4.728443612269">
        <ele>16.2</ele>
        <time>2020-07-12T11:53:11Z</time>
      </trkpt>
      <trkpt lat="51.383976054955" lon="4.72857428609">
        <ele>16.2</ele>
        <time>2020-07-12T11:53:13Z</time>
      </trkpt>
      <trkpt lat="51.384068004398" lon="4.728642514756">
        <ele>16</ele>
        <time>2020-07-12T11:53:15Z</time>
      </trkpt>
      <trkpt lat="51.384177974926" lon="4.728637234159">
        <ele>15.8</ele>
        <time>2020-07-12T11:53:17Z</time>
      </trkpt>
      <trkpt lat="51.384273947681" lon="4.728680903858">
        <ele>16.4</ele>
        <time>2020-07-12T11:53:19Z</time>
      </trkpt>
      <trkpt lat="51.384476789661" lon="4.72887016716">
        <ele>17</ele>
        <time>2020-07-12T11:53:24Z</time>
      </trkpt>
      <trkpt lat="51.384898063955" lon="4.72942337256">
        <ele>18</ele>
        <time>2020-07-12T11:53:34Z</time>
      </trkpt>
      <trkpt lat="51.385263347157" lon="4.730134325318">
        <ele>21</ele>
        <time>2020-07-12T11:53:46Z</time>
      </trkpt>
      <trkpt lat="51.385517570184" lon="4.730938149528">
        <ele>23.8</ele>
        <time>2020-07-12T11:53:58Z</time>
      </trkpt>
      <trkpt lat="51.385677832112" lon="4.731768795818">
        <ele>21</ele>
        <time>2020-07-12T11:54:09Z</time>
      </trkpt>
      <trkpt lat="51.385807416286" lon="4.732685105126">
        <ele>18.4</ele>
        <time>2020-07-12T11:54:19Z</time>
      </trkpt>
      <trkpt lat="51.385976982123" lon="4.733586494652">
        <ele>19.2</ele>
        <time>2020-07-12T11:54:29Z</time>
      </trkpt>
      <trkpt lat="51.386141015906" lon="4.73449358387">
        <ele>19.6</ele>
        <time>2020-07-12T11:54:39Z</time>
      </trkpt>
      <trkpt lat="51.386308737725" lon="4.735384328383">
        <ele>19</ele>
        <time>2020-07-12T11:54:49Z</time>
      </trkpt>
      <trkpt lat="51.386458857554" lon="4.736229810636">
        <ele>18.8</ele>
        <time>2020-07-12T11:54:58Z</time>
      </trkpt>
      <trkpt lat="51.386603026234" lon="4.737087865739">
        <ele>16.8</ele>
        <time>2020-07-12T11:55:07Z</time>
      </trkpt>
      <trkpt lat="51.386803605101" lon="4.737984058487">
        <ele>22.2</ele>
        <time>2020-07-12T11:55:16Z</time>
      </trkpt>
      <trkpt lat="51.386965627228" lon="4.738825014514">
        <ele>23</ele>
        <time>2020-07-12T11:55:25Z</time>
      </trkpt>
      <trkpt lat="51.387112059021" lon="4.739696732114">
        <ele>22.8</ele>
        <time>2020-07-12T11:55:36Z</time>
      </trkpt>
      <trkpt lat="51.38735186518" lon="4.740507513301">
        <ele>33.2</ele>
        <time>2020-07-12T11:55:46Z</time>
      </trkpt>
      <trkpt lat="51.387501146819" lon="4.741400940022">
        <ele>32.4</ele>
        <time>2020-07-12T11:55:56Z</time>
      </trkpt>
      <trkpt lat="51.387638023246" lon="4.742281710074">
        <ele>27.4</ele>
        <time>2020-07-12T11:56:06Z</time>
      </trkpt>
      <trkpt lat="51.387759393158" lon="4.743207239472">
        <ele>21.8</ele>
        <time>2020-07-12T11:56:18Z</time>
      </trkpt>
      <trkpt lat="51.387887133314" lon="4.744082728927">
        <ele>18.4</ele>
        <time>2020-07-12T11:56:28Z</time>
      </trkpt>
      <trkpt lat="51.38806348849" lon="4.744986800661">
        <ele>21.2</ele>
        <time>2020-07-12T11:56:38Z</time>
      </trkpt>
      <trkpt lat="51.388249650489" lon="4.745843011746">
        <ele>23.6</ele>
        <time>2020-07-12T11:56:48Z</time>
      </trkpt>
      <trkpt lat="51.388462718387" lon="4.746737779571">
        <ele>25.6</ele>
        <time>2020-07-12T11:56:58Z</time>
      </trkpt>
      <trkpt lat="51.388593392208" lon="4.747589045335">
        <ele>26</ele>
        <time>2020-07-12T11:57:07Z</time>
      </trkpt>
      <trkpt lat="51.38872314402" lon="4.74846034384">
        <ele>25</ele>
        <time>2020-07-12T11:57:16Z</time>
      </trkpt>
      <trkpt lat="51.388941995429" lon="4.749346143032">
        <ele>23.2</ele>
        <time>2020-07-12T11:57:26Z</time>
      </trkpt>
      <trkpt lat="51.389230165151" lon="4.750077966721">
        <ele>18.6</ele>
        <time>2020-07-12T11:57:36Z</time>
      </trkpt>
      <trkpt lat="51.389593269059" lon="4.750753464042">
        <ele>16.8</ele>
        <time>2020-07-12T11:57:46Z</time>
      </trkpt>
      <trkpt lat="51.389960144822" lon="4.75140993445">
        <ele>16.4</ele>
        <time>2020-07-12T11:57:57Z</time>
      </trkpt>
      <trkpt lat="51.390341521272" lon="4.752083755391">
        <ele>15.4</ele>
        <time>2020-07-12T11:58:08Z</time>
      </trkpt>
      <trkpt lat="51.390738320418" lon="4.75274349474">
        <ele>13</ele>
        <time>2020-07-12T11:58:19Z</time>
      </trkpt>
      <trkpt lat="51.390777715348" lon="4.752801916583">
        <ele>12.6</ele>
        <time>2020-07-12T11:58:20Z</time>
      </trkpt>
      <trkpt lat="51.390903695305" lon="4.752945833806">
        <ele>12</ele>
        <time>2020-07-12T11:58:23Z</time>
      </trkpt>
      <trkpt lat="51.391274762018" lon="4.75361353596">
        <ele>14.2</ele>
        <time>2020-07-12T11:58:34Z</time>
      </trkpt>
      <trkpt lat="51.391636441003" lon="4.754296241715">
        <ele>14.4</ele>
        <time>2020-07-12T11:58:45Z</time>
      </trkpt>
      <trkpt lat="51.392022511317" lon="4.754997890564">
        <ele>14.2</ele>
        <time>2020-07-12T11:58:56Z</time>
      </trkpt>
      <trkpt lat="51.392092081087" lon="4.755581857537">
        <ele>14.2</ele>
        <time>2020-07-12T11:59:09Z</time>
      </trkpt>
      <trkpt lat="51.391546419397" lon="4.755626784521">
        <ele>12.4</ele>
        <time>2020-07-12T11:59:23Z</time>
      </trkpt>
      <trkpt lat="51.391506856829" lon="4.755639608828">
        <ele>13.4</ele>
        <time>2020-07-12T11:59:24Z</time>
      </trkpt>
      <trkpt lat="51.391470479383" lon="4.755730971538">
        <ele>13.4</ele>
        <time>2020-07-12T11:59:26Z</time>
      </trkpt>
      <trkpt lat="51.391423540743" lon="4.756654237823">
        <ele>15.4</ele>
        <time>2020-07-12T11:59:38Z</time>
      </trkpt>
      <trkpt lat="51.391460840198" lon="4.756790108422">
        <ele>15.8</ele>
        <time>2020-07-12T11:59:40Z</time>
      </trkpt>
      <trkpt lat="51.391616743538" lon="4.756905443366">
        <ele>15</ele>
        <time>2020-07-12T11:59:44Z</time>
      </trkpt>
      <trkpt lat="51.392207332212" lon="4.756846770066">
        <ele>12.2</ele>
        <time>2020-07-12T11:59:54Z</time>
      </trkpt>
      <trkpt lat="51.392751904255" lon="4.757016754998">
        <ele>14.4</ele>
        <time>2020-07-12T12:00:04Z</time>
      </trkpt>
      <trkpt lat="51.393215255687" lon="4.757285813988">
        <ele>13</ele>
        <time>2020-07-12T12:00:13Z</time>
      </trkpt>
      <trkpt lat="51.393438465684" lon="4.757411877764">
        <ele>11.6</ele>
        <time>2020-07-12T12:00:20Z</time>
      </trkpt>
      <trkpt lat="51.393276778833" lon="4.757691162672">
        <ele>11.6</ele>
        <time>2020-07-12T12:00:28Z</time>
      </trkpt>
      <trkpt lat="51.393294045547" lon="4.757847485107">
        <ele>11.8</ele>
        <time>2020-07-12T12:00:30Z</time>
      </trkpt>
      <trkpt lat="51.393366800439" lon="4.758253252886">
        <ele>13</ele>
        <time>2020-07-12T12:00:35Z</time>
      </trkpt>
      <trkpt lat="51.393542904158" lon="4.758822635353">
        <ele>15</ele>
        <time>2020-07-12T12:00:43Z</time>
      </trkpt>
      <trkpt lat="51.393620520552" lon="4.758900167928">
        <ele>14.8</ele>
        <time>2020-07-12T12:00:45Z</time>
      </trkpt>
      <trkpt lat="51.393707440855" lon="4.758908968923">
        <ele>14</ele>
        <time>2020-07-12T12:00:47Z</time>
      </trkpt>
      <trkpt lat="51.39407666355" lon="4.758580901357">
        <ele>16</ele>
        <time>2020-07-12T12:00:56Z</time>
      </trkpt>
      <trkpt lat="51.394137264687" lon="4.758466907517">
        <ele>18</ele>
        <time>2020-07-12T12:00:58Z</time>
      </trkpt>
      <trkpt lat="51.39438930842" lon="4.758302873734">
        <ele>17</ele>
        <time>2020-07-12T12:01:04Z</time>
      </trkpt>
      <trkpt lat="51.394464158787" lon="4.758346291976">
        <ele>17.2</ele>
        <time>2020-07-12T12:01:06Z</time>
      </trkpt>
      <trkpt lat="51.394542529552" lon="4.758552821992">
        <ele>20</ele>
        <time>2020-07-12T12:01:11Z</time>
      </trkpt>
      <trkpt lat="51.394556192049" lon="4.758468164802">
        <ele>19.8</ele>
        <time>2020-07-12T12:01:14Z</time>
      </trkpt>
      <trkpt lat="51.394478659474" lon="4.758319218439">
        <ele>18.8</ele>
        <time>2020-07-12T12:01:18Z</time>
      </trkpt>
      <trkpt lat="51.394354858811" lon="4.758343861225">
        <ele>18</ele>
        <time>2020-07-12T12:01:21Z</time>
      </trkpt>
      <trkpt lat="51.394115555566" lon="4.758487275534">
        <ele>19</ele>
        <time>2020-07-12T12:01:26Z</time>
      </trkpt>
      <trkpt lat="51.393969039954" lon="4.758531280509">
        <ele>18.6</ele>
        <time>2020-07-12T12:01:29Z</time>
      </trkpt>
      <trkpt lat="51.393500994658" lon="4.758922044687">
        <ele>19.2</ele>
        <time>2020-07-12T12:01:40Z</time>
      </trkpt>
      <trkpt lat="51.393738202428" lon="4.759960562097">
        <ele>16.8</ele>
        <time>2020-07-12T12:01:56Z</time>
      </trkpt>
      <trkpt lat="51.393510550024" lon="4.760544361432">
        <ele>14.2</ele>
        <time>2020-07-12T12:04:53Z</time>
      </trkpt>
      <trkpt lat="51.393012581345" lon="4.760899837811">
        <ele>17.6</ele>
        <time>2020-07-12T12:05:05Z</time>
      </trkpt>
      <trkpt lat="51.392583595703" lon="4.761206531532">
        <ele>18.6</ele>
        <time>2020-07-12T12:05:14Z</time>
      </trkpt>
      <trkpt lat="51.392540848013" lon="4.761350197298">
        <ele>18</ele>
        <time>2020-07-12T12:05:16Z</time>
      </trkpt>
      <trkpt lat="51.392553001768" lon="4.761529486139">
        <ele>17.4</ele>
        <time>2020-07-12T12:05:18Z</time>
      </trkpt>
      <trkpt lat="51.39259222906" lon="4.761704081116">
        <ele>17</ele>
        <time>2020-07-12T12:05:20Z</time>
      </trkpt>
      <trkpt lat="51.39271795756" lon="4.762278995637">
        <ele>16.4</ele>
        <time>2020-07-12T12:05:27Z</time>
      </trkpt>
      <trkpt lat="51.392712760782" lon="4.762442861782">
        <ele>17.8</ele>
        <time>2020-07-12T12:05:29Z</time>
      </trkpt>
      <trkpt lat="51.392659200441" lon="4.762584851168">
        <ele>18.6</ele>
        <time>2020-07-12T12:05:31Z</time>
      </trkpt>
      <trkpt lat="51.392581919323" lon="4.762683087036">
        <ele>18.8</ele>
        <time>2020-07-12T12:05:33Z</time>
      </trkpt>
      <trkpt lat="51.392026953724" lon="4.762765313475">
        <ele>19.2</ele>
        <time>2020-07-12T12:05:43Z</time>
      </trkpt>
      <trkpt lat="51.39174984811" lon="4.762812084477">
        <ele>20.2</ele>
        <time>2020-07-12T12:05:48Z</time>
      </trkpt>
      <trkpt lat="51.391360173579" lon="4.763028337497">
        <ele>17.8</ele>
        <time>2020-07-12T12:05:56Z</time>
      </trkpt>
      <trkpt lat="51.391315078957" lon="4.763134284713">
        <ele>18.4</ele>
        <time>2020-07-12T12:05:58Z</time>
      </trkpt>
      <trkpt lat="51.391333686775" lon="4.763274765357">
        <ele>17.6</ele>
        <time>2020-07-12T12:06:00Z</time>
      </trkpt>
      <trkpt lat="51.391524039724" lon="4.764149165165">
        <ele>16.2</ele>
        <time>2020-07-12T12:06:10Z</time>
      </trkpt>
      <trkpt lat="51.391662005798" lon="4.764742855142">
        <ele>17.2</ele>
        <time>2020-07-12T12:06:17Z</time>
      </trkpt>
      <trkpt lat="51.391732581396" lon="4.764810413256">
        <ele>15.4</ele>
        <time>2020-07-12T12:06:19Z</time>
      </trkpt>
      <trkpt lat="51.391826877771" lon="4.764792056895">
        <ele>13</ele>
        <time>2020-07-12T12:06:21Z</time>
      </trkpt>
      <trkpt lat="51.392351584711" lon="4.76437505737">
        <ele>13.8</ele>
        <time>2020-07-12T12:06:32Z</time>
      </trkpt>
      <trkpt lat="51.392867909751" lon="4.76394087495">
        <ele>13.8</ele>
        <time>2020-07-12T12:06:42Z</time>
      </trkpt>
      <trkpt lat="51.393368644457" lon="4.76360056981">
        <ele>13.4</ele>
        <time>2020-07-12T12:06:52Z</time>
      </trkpt>
      <trkpt lat="51.393426479567" lon="4.76355866031">
        <ele>14.2</ele>
        <time>2020-07-12T12:06:54Z</time>
      </trkpt>
      <trkpt lat="51.393584478382" lon="4.76353938194">
        <ele>28</ele>
        <time>2020-07-12T12:09:25Z</time>
      </trkpt>
      <trkpt lat="51.394130978262" lon="4.763261773412">
        <ele>23.6</ele>
        <time>2020-07-12T12:09:39Z</time>
      </trkpt>
      <trkpt lat="51.394636239194" lon="4.763159346594">
        <ele>23</ele>
        <time>2020-07-12T12:09:48Z</time>
      </trkpt>
      <trkpt lat="51.394725338791" lon="4.763366128067">
        <ele>21.2</ele>
        <time>2020-07-12T12:09:51Z</time>
      </trkpt>
      <trkpt lat="51.394741264401" lon="4.763538292293">
        <ele>20.4</ele>
        <time>2020-07-12T12:09:53Z</time>
      </trkpt>
      <trkpt lat="51.394789208869" lon="4.764147824061">
        <ele>20.2</ele>
        <time>2020-07-12T12:10:00Z</time>
      </trkpt>
      <trkpt lat="51.394830531636" lon="4.764301380469">
        <ele>20.6</ele>
        <time>2020-07-12T12:10:02Z</time>
      </trkpt>
      <trkpt lat="51.39519313263" lon="4.765061702618">
        <ele>22.8</ele>
        <time>2020-07-12T12:10:12Z</time>
      </trkpt>
      <trkpt lat="51.395547016448" lon="4.765783803303">
        <ele>24.2</ele>
        <time>2020-07-12T12:10:21Z</time>
      </trkpt>
      <trkpt lat="51.395940379015" lon="4.76643365201">
        <ele>24.2</ele>
        <time>2020-07-12T12:10:30Z</time>
      </trkpt>
      <trkpt lat="51.396347571717" lon="4.766999849355">
        <ele>22.4</ele>
        <time>2020-07-12T12:10:39Z</time>
      </trkpt>
      <trkpt lat="51.396439018246" lon="4.767117782688">
        <ele>22</ele>
        <time>2020-07-12T12:10:41Z</time>
      </trkpt>
      <trkpt lat="51.396548988774" lon="4.767306040162">
        <ele>22</ele>
        <time>2020-07-12T12:10:44Z</time>
      </trkpt>
      <trkpt lat="51.396620654019" lon="4.767424476409">
        <ele>22.8</ele>
        <time>2020-07-12T12:10:46Z</time>
      </trkpt>
      <trkpt lat="51.396696342576" lon="4.767537799697">
        <ele>22.4</ele>
        <time>2020-07-12T12:10:48Z</time>
      </trkpt>
      <trkpt lat="51.397147540253" lon="4.768090921278">
        <ele>18.6</ele>
        <time>2020-07-12T12:10:58Z</time>
      </trkpt>
      <trkpt lat="51.397616591377" lon="4.768667093084">
        <ele>19.2</ele>
        <time>2020-07-12T12:11:08Z</time>
      </trkpt>
      <trkpt lat="51.39798262895" lon="4.769017037409">
        <ele>17.6</ele>
        <time>2020-07-12T12:11:16Z</time>
      </trkpt>
      <trkpt lat="51.398078014972" lon="4.769029861716">
        <ele>17.8</ele>
        <time>2020-07-12T12:11:18Z</time>
      </trkpt>
      <trkpt lat="51.398157391565" lon="4.76894235468">
        <ele>17</ele>
        <time>2020-07-12T12:11:20Z</time>
      </trkpt>
      <trkpt lat="51.398215561951" lon="4.768791648118">
        <ele>16</ele>
        <time>2020-07-12T12:11:22Z</time>
      </trkpt>
      <trkpt lat="51.398327627954" lon="4.76848135018">
        <ele>15</ele>
        <time>2020-07-12T12:11:26Z</time>
      </trkpt>
      <trkpt lat="51.398748902248" lon="4.767867040729">
        <ele>12.8</ele>
        <time>2020-07-12T12:11:37Z</time>
      </trkpt>
      <trkpt lat="51.399080490212" lon="4.767517347861">
        <ele>14.8</ele>
        <time>2020-07-12T12:11:45Z</time>
      </trkpt>
      <trkpt lat="51.399190376921" lon="4.767645004198">
        <ele>16.8</ele>
        <time>2020-07-12T12:11:48Z</time>
      </trkpt>
      <trkpt lat="51.3994452705" lon="4.768404823433">
        <ele>19</ele>
        <time>2020-07-12T12:11:57Z</time>
      </trkpt>
      <trkpt lat="51.399552139725" lon="4.768735154112">
        <ele>19.4</ele>
        <time>2020-07-12T12:12:01Z</time>
      </trkpt>
      <trkpt lat="51.399636042544" lon="4.768801203484">
        <ele>19.2</ele>
        <time>2020-07-12T12:12:03Z</time>
      </trkpt>
      <trkpt lat="51.399728075806" lon="4.768774046128">
        <ele>18.6</ele>
        <time>2020-07-12T12:12:05Z</time>
      </trkpt>
      <trkpt lat="51.400208693952" lon="4.768359225897">
        <ele>15.6</ele>
        <time>2020-07-12T12:12:14Z</time>
      </trkpt>
      <trkpt lat="51.400711021219" lon="4.767926300762">
        <ele>11</ele>
        <time>2020-07-12T12:12:25Z</time>
      </trkpt>
      <trkpt lat="51.401214941047" lon="4.767641902895">
        <ele>8</ele>
        <time>2020-07-12T12:12:36Z</time>
      </trkpt>
      <trkpt lat="51.401285768102" lon="4.767701246747">
        <ele>7.8</ele>
        <time>2020-07-12T12:12:38Z</time>
      </trkpt>
      <trkpt lat="51.401318289874" lon="4.767836614432">
        <ele>7.2</ele>
        <time>2020-07-12T12:12:40Z</time>
      </trkpt>
      <trkpt lat="51.401374616242" lon="4.768781841295">
        <ele>15.8</ele>
        <time>2020-07-12T12:12:50Z</time>
      </trkpt>
      <trkpt lat="51.401386434721" lon="4.769713908575">
        <ele>20.8</ele>
        <time>2020-07-12T12:13:00Z</time>
      </trkpt>
      <trkpt lat="51.40139406225" lon="4.770585458537">
        <ele>19.6</ele>
        <time>2020-07-12T12:13:09Z</time>
      </trkpt>
      <trkpt lat="51.401418621217" lon="4.771506880804">
        <ele>17.8</ele>
        <time>2020-07-12T12:13:19Z</time>
      </trkpt>
      <trkpt lat="51.401442090537" lon="4.772460741024">
        <ele>18.6</ele>
        <time>2020-07-12T12:13:29Z</time>
      </trkpt>
      <trkpt lat="51.401470421359" lon="4.773327932398">
        <ele>18</ele>
        <time>2020-07-12T12:13:38Z</time>
      </trkpt>
      <trkpt lat="51.401541918966" lon="4.774221694395">
        <ele>20.2</ele>
        <time>2020-07-12T12:13:48Z</time>
      </trkpt>
      <trkpt lat="51.401543846803" lon="4.775112774184">
        <ele>19</ele>
        <time>2020-07-12T12:13:58Z</time>
      </trkpt>
      <trkpt lat="51.401525406623" lon="4.776033944994">
        <ele>18.4</ele>
        <time>2020-07-12T12:14:09Z</time>
      </trkpt>
      <trkpt lat="51.401475031404" lon="4.776172916896">
        <ele>17.4</ele>
        <time>2020-07-12T12:14:11Z</time>
      </trkpt>
      <trkpt lat="51.401398337019" lon="4.776275092257">
        <ele>17.4</ele>
        <time>2020-07-12T12:14:13Z</time>
      </trkpt>
      <trkpt lat="51.400967088264" lon="4.776678429285">
        <ele>16.8</ele>
        <time>2020-07-12T12:14:23Z</time>
      </trkpt>
      <trkpt lat="51.400901877082" lon="4.776823687612">
        <ele>17</ele>
        <time>2020-07-12T12:14:27Z</time>
      </trkpt>
      <trkpt lat="51.400968345549" lon="4.776747160865">
        <ele>12.8</ele>
        <time>2020-07-12T12:14:47Z</time>
      </trkpt>
      <trkpt lat="51.401273195252" lon="4.77638632007">
        <ele>10.2</ele>
        <time>2020-07-12T12:14:58Z</time>
      </trkpt>
      <trkpt lat="51.401482239838" lon="4.776136371812">
        <ele>9.2</ele>
        <time>2020-07-12T12:15:04Z</time>
      </trkpt>
      <trkpt lat="51.401403952892" lon="4.776485561766">
        <ele>9.2</ele>
        <time>2020-07-12T12:15:11Z</time>
      </trkpt>
      <trkpt lat="51.401326001222" lon="4.776563261979">
        <ele>9</ele>
        <time>2020-07-12T12:15:13Z</time>
      </trkpt>
      <trkpt lat="51.400825015059" lon="4.77692527624">
        <ele>7.8</ele>
        <time>2020-07-12T12:15:23Z</time>
      </trkpt>
      <trkpt lat="51.400314305892" lon="4.777274633832">
        <ele>11.8</ele>
        <time>2020-07-12T12:15:32Z</time>
      </trkpt>
      <trkpt lat="51.399795717739" lon="4.777675037195">
        <ele>11.4</ele>
        <time>2020-07-12T12:15:42Z</time>
      </trkpt>
      <trkpt lat="51.399716089689" lon="4.777788192845">
        <ele>11.2</ele>
        <time>2020-07-12T12:15:44Z</time>
      </trkpt>
      <trkpt lat="51.399288864246" lon="4.778339805684">
        <ele>11.2</ele>
        <time>2020-07-12T12:15:54Z</time>
      </trkpt>
      <trkpt lat="51.398976219376" lon="4.779151844156">
        <ele>11.8</ele>
        <time>2020-07-12T12:16:04Z</time>
      </trkpt>
      <trkpt lat="51.398870858893" lon="4.780012246191">
        <ele>11.4</ele>
        <time>2020-07-12T12:16:13Z</time>
      </trkpt>
      <trkpt lat="51.398831966877" lon="4.780902823066">
        <ele>12.8</ele>
        <time>2020-07-12T12:16:22Z</time>
      </trkpt>
      <trkpt lat="51.398794918879" lon="4.781812510673">
        <ele>13.6</ele>
        <time>2020-07-12T12:16:31Z</time>
      </trkpt>
      <trkpt lat="51.398759798718" lon="4.782680372599">
        <ele>12.8</ele>
        <time>2020-07-12T12:16:40Z</time>
      </trkpt>
      <trkpt lat="51.398701879789" lon="4.783619145399">
        <ele>11.4</ele>
        <time>2020-07-12T12:16:50Z</time>
      </trkpt>
      <trkpt lat="51.398661898126" lon="4.784548279014">
        <ele>11.8</ele>
        <time>2020-07-12T12:17:00Z</time>
      </trkpt>
      <trkpt lat="51.398640943376" lon="4.785431563636">
        <ele>18.6</ele>
        <time>2020-07-12T12:17:12Z</time>
      </trkpt>
      <trkpt lat="51.398592747451" lon="4.786332198791">
        <ele>21.4</ele>
        <time>2020-07-12T12:17:22Z</time>
      </trkpt>
      <trkpt lat="51.398523010043" lon="4.787264768985">
        <ele>17.6</ele>
        <time>2020-07-12T12:17:31Z</time>
      </trkpt>
      <trkpt lat="51.398482525466" lon="4.788215444083">
        <ele>15.6</ele>
        <time>2020-07-12T12:17:41Z</time>
      </trkpt>
      <trkpt lat="51.398430557686" lon="4.789103841664">
        <ele>15.6</ele>
        <time>2020-07-12T12:17:52Z</time>
      </trkpt>
      <trkpt lat="51.398405747262" lon="4.789422437683">
        <ele>16</ele>
        <time>2020-07-12T12:17:57Z</time>
      </trkpt>
      <trkpt lat="51.398362245201" lon="4.790345368692">
        <ele>17.4</ele>
        <time>2020-07-12T12:18:09Z</time>
      </trkpt>
      <trkpt lat="51.398312205258" lon="4.791209961677">
        <ele>16.4</ele>
        <time>2020-07-12T12:18:21Z</time>
      </trkpt>
      <trkpt lat="51.398288400662" lon="4.791502489987">
        <ele>16</ele>
        <time>2020-07-12T12:18:25Z</time>
      </trkpt>
      <trkpt lat="51.398278258563" lon="4.791644311735">
        <ele>16.4</ele>
        <time>2020-07-12T12:18:27Z</time>
      </trkpt>
      <trkpt lat="51.398260572754" lon="4.792545868899">
        <ele>17.4</ele>
        <time>2020-07-12T12:18:39Z</time>
      </trkpt>
      <trkpt lat="51.3982215131" lon="4.793182725661">
        <ele>19.2</ele>
        <time>2020-07-12T12:18:47Z</time>
      </trkpt>
      <trkpt lat="51.398089581994" lon="4.79358681706">
        <ele>18.8</ele>
        <time>2020-07-12T12:18:53Z</time>
      </trkpt>
      <trkpt lat="51.397973241222" lon="4.793845566313">
        <ele>18.2</ele>
        <time>2020-07-12T12:18:57Z</time>
      </trkpt>
      <trkpt lat="51.397674510306" lon="4.794603876806">
        <ele>18.6</ele>
        <time>2020-07-12T12:19:09Z</time>
      </trkpt>
      <trkpt lat="51.397612735703" lon="4.794714098791">
        <ele>18.8</ele>
        <time>2020-07-12T12:19:11Z</time>
      </trkpt>
      <trkpt lat="51.397533862024" lon="4.794780818715">
        <ele>18.4</ele>
        <time>2020-07-12T12:19:13Z</time>
      </trkpt>
      <trkpt lat="51.397019381002" lon="4.795044680927">
        <ele>16</ele>
        <time>2020-07-12T12:19:23Z</time>
      </trkpt>
      <trkpt lat="51.396966910308" lon="4.795087931531">
        <ele>16.6</ele>
        <time>2020-07-12T12:19:24Z</time>
      </trkpt>
      <trkpt lat="51.396740515189" lon="4.79539227832">
        <ele>16.8</ele>
        <time>2020-07-12T12:19:30Z</time>
      </trkpt>
      <trkpt lat="51.396632556317" lon="4.7954442461">
        <ele>15.6</ele>
        <time>2020-07-12T12:19:36Z</time>
      </trkpt>
      <trkpt lat="51.396702545182" lon="4.795472157827">
        <ele>23.4</ele>
        <time>2020-07-12T12:20:03Z</time>
      </trkpt>
      <trkpt lat="51.396456620236" lon="4.796165173319">
        <ele>19.6</ele>
        <time>2020-07-12T12:20:20Z</time>
      </trkpt>
      <trkpt lat="51.396389565036" lon="4.796077331007">
        <ele>19.6</ele>
        <time>2020-07-12T12:20:22Z</time>
      </trkpt>
      <trkpt lat="51.39631965999" lon="4.796011030178">
        <ele>19.8</ele>
        <time>2020-07-12T12:20:24Z</time>
      </trkpt>
      <trkpt lat="51.396228884013" lon="4.796021591372">
        <ele>18.6</ele>
        <time>2020-07-12T12:20:26Z</time>
      </trkpt>
      <trkpt lat="51.396150177972" lon="4.796113373177">
        <ele>17.6</ele>
        <time>2020-07-12T12:20:28Z</time>
      </trkpt>
      <trkpt lat="51.395776429051" lon="4.796831366731">
        <ele>17.4</ele>
        <time>2020-07-12T12:20:38Z</time>
      </trkpt>
      <trkpt lat="51.395615245114" lon="4.797101263911">
        <ele>16</ele>
        <time>2020-07-12T12:20:42Z</time>
      </trkpt>
      <trkpt lat="51.395149127655" lon="4.797673496224">
        <ele>21</ele>
        <time>2020-07-12T12:20:52Z</time>
      </trkpt>
      <trkpt lat="51.394718046538" lon="4.798290990797">
        <ele>18.6</ele>
        <time>2020-07-12T12:21:02Z</time>
      </trkpt>
      <trkpt lat="51.394636825927" lon="4.798446810318">
        <ele>17.4</ele>
        <time>2020-07-12T12:21:04Z</time>
      </trkpt>
      <trkpt lat="51.394351003137" lon="4.799209563218">
        <ele>17.6</ele>
        <time>2020-07-12T12:21:12Z</time>
      </trkpt>
      <trkpt lat="51.394102563621" lon="4.80000567608">
        <ele>16.6</ele>
        <time>2020-07-12T12:21:21Z</time>
      </trkpt>
      <trkpt lat="51.394036011335" lon="4.800445222916">
        <ele>16.2</ele>
        <time>2020-07-12T12:21:26Z</time>
      </trkpt>
      <trkpt lat="51.394048835642" lon="4.800617303323">
        <ele>16.4</ele>
        <time>2020-07-12T12:21:28Z</time>
      </trkpt>
      <trkpt lat="51.394094433178" lon="4.800769183351">
        <ele>16</ele>
        <time>2020-07-12T12:21:30Z</time>
      </trkpt>
      <trkpt lat="51.394406742772" lon="4.801520201591">
        <ele>20.2</ele>
        <time>2020-07-12T12:21:40Z</time>
      </trkpt>
      <trkpt lat="51.39473296632" lon="4.802207852667">
        <ele>30.4</ele>
        <time>2020-07-12T12:21:54Z</time>
      </trkpt>
      <trkpt lat="51.394777306571" lon="4.802355038831">
        <ele>29.4</ele>
        <time>2020-07-12T12:21:57Z</time>
      </trkpt>
      <trkpt lat="51.394657613039" lon="4.802793663658">
        <ele>28.6</ele>
        <time>2020-07-12T12:22:03Z</time>
      </trkpt>
      <trkpt lat="51.394165846966" lon="4.804204421247">
        <ele>18.2</ele>
        <time>2020-07-12T12:22:19Z</time>
      </trkpt>
      <trkpt lat="51.393912797405" lon="4.80504319798">
        <ele>17</ele>
        <time>2020-07-12T12:22:29Z</time>
      </trkpt>
      <trkpt lat="51.393661927138" lon="4.805849033846">
        <ele>16</ele>
        <time>2020-07-12T12:22:39Z</time>
      </trkpt>
      <trkpt lat="51.393426144291" lon="4.806643637966">
        <ele>15.6</ele>
        <time>2020-07-12T12:22:48Z</time>
      </trkpt>
      <trkpt lat="51.39320159319" lon="4.807483001432">
        <ele>16</ele>
        <time>2020-07-12T12:22:58Z</time>
      </trkpt>
      <trkpt lat="51.393028423136" lon="4.808322616355">
        <ele>15.4</ele>
        <time>2020-07-12T12:23:08Z</time>
      </trkpt>
      <trkpt lat="51.392830777934" lon="4.809171032273">
        <ele>16.2</ele>
        <time>2020-07-12T12:23:18Z</time>
      </trkpt>
      <trkpt lat="51.392581584047" lon="4.809998828717">
        <ele>16.2</ele>
        <time>2020-07-12T12:23:28Z</time>
      </trkpt>
      <trkpt lat="51.392263826218" lon="4.81078396129">
        <ele>16</ele>
        <time>2020-07-12T12:23:38Z</time>
      </trkpt>
      <trkpt lat="51.391962999827" lon="4.811516623169">
        <ele>16.6</ele>
        <time>2020-07-12T12:23:47Z</time>
      </trkpt>
      <trkpt lat="51.391643062704" lon="4.812047700353">
        <ele>16.8</ele>
        <time>2020-07-12T12:23:55Z</time>
      </trkpt>
      <trkpt lat="51.391153643563" lon="4.812430920821">
        <ele>15</ele>
        <time>2020-07-12T12:24:04Z</time>
      </trkpt>
      <trkpt lat="51.390624745673" lon="4.812874742426">
        <ele>15.2</ele>
        <time>2020-07-12T12:24:14Z</time>
      </trkpt>
      <trkpt lat="51.390112192488" lon="4.813373046381">
        <ele>14.6</ele>
        <time>2020-07-12T12:24:23Z</time>
      </trkpt>
      <trkpt lat="51.389695276782" lon="4.814037311956">
        <ele>15</ele>
        <time>2020-07-12T12:24:32Z</time>
      </trkpt>
      <trkpt lat="51.38939453421" lon="4.814797717924">
        <ele>14</ele>
        <time>2020-07-12T12:24:41Z</time>
      </trkpt>
      <trkpt lat="51.389094797466" lon="4.815570780561">
        <ele>13.8</ele>
        <time>2020-07-12T12:24:50Z</time>
      </trkpt>
      <trkpt lat="51.388788187564" lon="4.816373347486">
        <ele>15</ele>
        <time>2020-07-12T12:24:59Z</time>
      </trkpt>
      <trkpt lat="51.388472441391" lon="4.817175411497">
        <ele>14.6</ele>
        <time>2020-07-12T12:25:08Z</time>
      </trkpt>
      <trkpt lat="51.388183098203" lon="4.817929614859">
        <ele>15.2</ele>
        <time>2020-07-12T12:25:17Z</time>
      </trkpt>
      <trkpt lat="51.387906327865" lon="4.818759842054">
        <ele>15.6</ele>
        <time>2020-07-12T12:25:27Z</time>
      </trkpt>
      <trkpt lat="51.387779593537" lon="4.819647401445">
        <ele>14</ele>
        <time>2020-07-12T12:25:37Z</time>
      </trkpt>
      <trkpt lat="51.38765445177" lon="4.820573349938">
        <ele>18.2</ele>
        <time>2020-07-12T12:25:47Z</time>
      </trkpt>
      <trkpt lat="51.38738706916" lon="4.821342053987">
        <ele>18.8</ele>
        <time>2020-07-12T12:25:57Z</time>
      </trkpt>
      <trkpt lat="51.387185568284" lon="4.821697781823">
        <ele>18.2</ele>
        <time>2020-07-12T12:26:02Z</time>
      </trkpt>
      <trkpt lat="51.386716014246" lon="4.822148225129">
        <ele>17.4</ele>
        <time>2020-07-12T12:26:11Z</time>
      </trkpt>
      <trkpt lat="51.386225756915" lon="4.822594142209">
        <ele>15</ele>
        <time>2020-07-12T12:26:20Z</time>
      </trkpt>
      <trkpt lat="51.385727285322" lon="4.823086578834">
        <ele>14.8</ele>
        <time>2020-07-12T12:26:29Z</time>
      </trkpt>
      <trkpt lat="51.385259910578" lon="4.823536267769">
        <ele>13.8</ele>
        <time>2020-07-12T12:26:37Z</time>
      </trkpt>
      <trkpt lat="51.38479454749" lon="4.823979251184">
        <ele>13.8</ele>
        <time>2020-07-12T12:26:45Z</time>
      </trkpt>
      <trkpt lat="51.38431426462" lon="4.824448805222">
        <ele>16.2</ele>
        <time>2020-07-12T12:26:55Z</time>
      </trkpt>
      <trkpt lat="51.383841357822" lon="4.824872174991">
        <ele>13.6</ele>
        <time>2020-07-12T12:27:04Z</time>
      </trkpt>
      <trkpt lat="51.383379347494" lon="4.825363270512">
        <ele>15</ele>
        <time>2020-07-12T12:27:13Z</time>
      </trkpt>
      <trkpt lat="51.382895125131" lon="4.825857467336">
        <ele>17.4</ele>
        <time>2020-07-12T12:27:23Z</time>
      </trkpt>
      <trkpt lat="51.382382069032" lon="4.826281172381">
        <ele>15</ele>
        <time>2020-07-12T12:27:33Z</time>
      </trkpt>
      <trkpt lat="51.381884770905" lon="4.826734968447">
        <ele>14</ele>
        <time>2020-07-12T12:27:42Z</time>
      </trkpt>
      <trkpt lat="51.381403985121" lon="4.827164959917">
        <ele>13.4</ele>
        <time>2020-07-12T12:27:51Z</time>
      </trkpt>
      <trkpt lat="51.38093468254" lon="4.827690672685">
        <ele>17</ele>
        <time>2020-07-12T12:28:01Z</time>
      </trkpt>
      <trkpt lat="51.380473510402" lon="4.828225102629">
        <ele>18.4</ele>
        <time>2020-07-12T12:28:10Z</time>
      </trkpt>
      <trkpt lat="51.38001099716" lon="4.828694991943">
        <ele>17.8</ele>
        <time>2020-07-12T12:28:18Z</time>
      </trkpt>
      <trkpt lat="51.379519314906" lon="4.829155996443">
        <ele>17</ele>
        <time>2020-07-12T12:28:27Z</time>
      </trkpt>
      <trkpt lat="51.379057723673" lon="4.829605685378">
        <ele>16.4</ele>
        <time>2020-07-12T12:28:36Z</time>
      </trkpt>
      <trkpt lat="51.378596802992" lon="4.830086806438">
        <ele>18</ele>
        <time>2020-07-12T12:28:45Z</time>
      </trkpt>
      <trkpt lat="51.378118950873" lon="4.830527694378">
        <ele>17.8</ele>
        <time>2020-07-12T12:28:54Z</time>
      </trkpt>
      <trkpt lat="51.377645541161" lon="4.830969420508">
        <ele>18</ele>
        <time>2020-07-12T12:29:03Z</time>
      </trkpt>
      <trkpt lat="51.377152266346" lon="4.83148473972">
        <ele>18.6</ele>
        <time>2020-07-12T12:29:13Z</time>
      </trkpt>
      <trkpt lat="51.376655806409" lon="4.831986312616">
        <ele>18</ele>
        <time>2020-07-12T12:29:23Z</time>
      </trkpt>
      <trkpt lat="51.376243165472" lon="4.83263808916">
        <ele>20.4</ele>
        <time>2020-07-12T12:29:33Z</time>
      </trkpt>
      <trkpt lat="51.375876373528" lon="4.833298666699">
        <ele>20</ele>
        <time>2020-07-12T12:29:43Z</time>
      </trkpt>
      <trkpt lat="51.37547974202" lon="4.83400266248">
        <ele>19.2</ele>
        <time>2020-07-12T12:29:53Z</time>
      </trkpt>
      <trkpt lat="51.375082523779" lon="4.834716967998">
        <ele>19.6</ele>
        <time>2020-07-12T12:30:03Z</time>
      </trkpt>
      <trkpt lat="51.374720174242" lon="4.83540830711">
        <ele>23</ele>
        <time>2020-07-12T12:30:13Z</time>
      </trkpt>
      <trkpt lat="51.374358830533" lon="4.836073913789">
        <ele>23.6</ele>
        <time>2020-07-12T12:30:22Z</time>
      </trkpt>
      <trkpt lat="51.373975610065" lon="4.836777490475">
        <ele>21.6</ele>
        <time>2020-07-12T12:30:31Z</time>
      </trkpt>
      <trkpt lat="51.373590545579" lon="4.837439576756">
        <ele>20.6</ele>
        <time>2020-07-12T12:30:40Z</time>
      </trkpt>
      <trkpt lat="51.373201625419" lon="4.838128652755">
        <ele>20.6</ele>
        <time>2020-07-12T12:30:51Z</time>
      </trkpt>
      <trkpt lat="51.372799713314" lon="4.838836336572">
        <ele>21.6</ele>
        <time>2020-07-12T12:31:01Z</time>
      </trkpt>
      <trkpt lat="51.372416492846" lon="4.839547792244">
        <ele>22.4</ele>
        <time>2020-07-12T12:31:09Z</time>
      </trkpt>
      <trkpt lat="51.372041821916" lon="4.840205519937">
        <ele>22.8</ele>
        <time>2020-07-12T12:31:17Z</time>
      </trkpt>
      <trkpt lat="51.371643849304" lon="4.840908006976">
        <ele>21.8</ele>
        <time>2020-07-12T12:31:26Z</time>
      </trkpt>
      <trkpt lat="51.371269094555" lon="4.841579145709">
        <ele>20.8</ele>
        <time>2020-07-12T12:31:35Z</time>
      </trkpt>
      <trkpt lat="51.370885957906" lon="4.842261516188">
        <ele>22</ele>
        <time>2020-07-12T12:31:46Z</time>
      </trkpt>
      <trkpt lat="51.370531990269" lon="4.842921674632">
        <ele>25</ele>
        <time>2020-07-12T12:31:55Z</time>
      </trkpt>
      <trkpt lat="51.370159330995" lon="4.843560375412">
        <ele>24.2</ele>
        <time>2020-07-12T12:32:04Z</time>
      </trkpt>
      <trkpt lat="51.369795305078" lon="4.844221120589">
        <ele>22.8</ele>
        <time>2020-07-12T12:32:13Z</time>
      </trkpt>
      <trkpt lat="51.369446618038" lon="4.844891672589">
        <ele>23.8</ele>
        <time>2020-07-12T12:32:22Z</time>
      </trkpt>
      <trkpt lat="51.369074545497" lon="4.845579239846">
        <ele>23.2</ele>
        <time>2020-07-12T12:32:31Z</time>
      </trkpt>
      <trkpt lat="51.36868453569" lon="4.846262616153">
        <ele>21.8</ele>
        <time>2020-07-12T12:32:41Z</time>
      </trkpt>
      <trkpt lat="51.368327550569" lon="4.846936101818">
        <ele>20.4</ele>
        <time>2020-07-12T12:32:50Z</time>
      </trkpt>
      <trkpt lat="51.367915580184" lon="4.847622998523">
        <ele>20.8</ele>
        <time>2020-07-12T12:33:00Z</time>
      </trkpt>
      <trkpt lat="51.367517020839" lon="4.848296148912">
        <ele>21.4</ele>
        <time>2020-07-12T12:33:10Z</time>
      </trkpt>
      <trkpt lat="51.367140673529" lon="4.849019003968">
        <ele>20.2</ele>
        <time>2020-07-12T12:33:20Z</time>
      </trkpt>
      <trkpt lat="51.366759297079" lon="4.849703050827">
        <ele>20.6</ele>
        <time>2020-07-12T12:33:29Z</time>
      </trkpt>
      <trkpt lat="51.366378926457" lon="4.850392378283">
        <ele>20.6</ele>
        <time>2020-07-12T12:33:38Z</time>
      </trkpt>
      <trkpt lat="51.365995454532" lon="4.851103331041">
        <ele>20.6</ele>
        <time>2020-07-12T12:33:48Z</time>
      </trkpt>
      <trkpt lat="51.36559748192" lon="4.851789473375">
        <ele>20.2</ele>
        <time>2020-07-12T12:33:59Z</time>
      </trkpt>
      <trkpt lat="51.365221553705" lon="4.852466814714">
        <ele>21.6</ele>
        <time>2020-07-12T12:34:09Z</time>
      </trkpt>
      <trkpt lat="51.364838668513" lon="4.853136444705">
        <ele>22.8</ele>
        <time>2020-07-12T12:34:20Z</time>
      </trkpt>
      <trkpt lat="51.364475480786" lon="4.853789394715">
        <ele>21.2</ele>
        <time>2020-07-12T12:34:29Z</time>
      </trkpt>
      <trkpt lat="51.363869804692" lon="4.854894212954">
        <ele>21.6</ele>
        <time>2020-07-12T12:34:44Z</time>
      </trkpt>
      <trkpt lat="51.363475939211" lon="4.855578343632">
        <ele>21</ele>
        <time>2020-07-12T12:34:54Z</time>
      </trkpt>
      <trkpt lat="51.363112500027" lon="4.856266832898">
        <ele>22.4</ele>
        <time>2020-07-12T12:35:04Z</time>
      </trkpt>
      <trkpt lat="51.362800274252" lon="4.856791120743">
        <ele>21.8</ele>
        <time>2020-07-12T12:35:12Z</time>
      </trkpt>
      <trkpt lat="51.362416467051" lon="4.857482962769">
        <ele>21</ele>
        <time>2020-07-12T12:35:22Z</time>
      </trkpt>
      <trkpt lat="51.362042801949" lon="4.858147898896">
        <ele>21.2</ele>
        <time>2020-07-12T12:35:32Z</time>
      </trkpt>
      <trkpt lat="51.361670729408" lon="4.858833286859">
        <ele>20.8</ele>
        <time>2020-07-12T12:35:42Z</time>
      </trkpt>
      <trkpt lat="51.361562183803" lon="4.858988687285">
        <ele>21</ele>
        <time>2020-07-12T12:35:45Z</time>
      </trkpt>
      <trkpt lat="51.361474760586" lon="4.858989776932">
        <ele>21.6</ele>
        <time>2020-07-12T12:35:47Z</time>
      </trkpt>
      <trkpt lat="51.360989616214" lon="4.858436822989">
        <ele>22.6</ele>
        <time>2020-07-12T12:35:57Z</time>
      </trkpt>
      <trkpt lat="51.36047446464" lon="4.858012447392">
        <ele>23.2</ele>
        <time>2020-07-12T12:36:07Z</time>
      </trkpt>
      <trkpt lat="51.36014505597" lon="4.857795188544">
        <ele>23.6</ele>
        <time>2020-07-12T12:36:13Z</time>
      </trkpt>
      <trkpt lat="51.360047658292" lon="4.857726540783">
        <ele>23.8</ele>
        <time>2020-07-12T12:36:15Z</time>
      </trkpt>
      <trkpt lat="51.359952104632" lon="4.857748920456">
        <ele>23.4</ele>
        <time>2020-07-12T12:36:17Z</time>
      </trkpt>
      <trkpt lat="51.359895442988" lon="4.857894933154">
        <ele>23.2</ele>
        <time>2020-07-12T12:36:19Z</time>
      </trkpt>
      <trkpt lat="51.359659324865" lon="4.858683250849">
        <ele>21.2</ele>
        <time>2020-07-12T12:36:28Z</time>
      </trkpt>
      <trkpt lat="51.359509791769" lon="4.859563853263">
        <ele>21.8</ele>
        <time>2020-07-12T12:36:38Z</time>
      </trkpt>
      <trkpt lat="51.359445754053" lon="4.86050874485">
        <ele>22.4</ele>
        <time>2020-07-12T12:36:48Z</time>
      </trkpt>
      <trkpt lat="51.359407364951" lon="4.861421449941">
        <ele>22</ele>
        <time>2020-07-12T12:36:58Z</time>
      </trkpt>
      <trkpt lat="51.359349446022" lon="4.861702746505">
        <ele>21.6</ele>
        <time>2020-07-12T12:37:04Z</time>
      </trkpt>
      <trkpt lat="51.359185747515" lon="4.86162018479">
        <ele>21.4</ele>
        <time>2020-07-12T12:37:08Z</time>
      </trkpt>
      <trkpt lat="51.359056582436" lon="4.862129971948">
        <ele>24.4</ele>
        <time>2020-07-12T12:37:22Z</time>
      </trkpt>
      <trkpt lat="51.35909312752" lon="4.862295179197">
        <ele>25</ele>
        <time>2020-07-12T12:37:24Z</time>
      </trkpt>
      <trkpt lat="51.359206115532" lon="4.863008562706">
        <ele>26.6</ele>
        <time>2020-07-12T12:37:32Z</time>
      </trkpt>
      <trkpt lat="51.359183065307" lon="4.863425059317">
        <ele>27.4</ele>
        <time>2020-07-12T12:37:41Z</time>
      </trkpt>
      <trkpt lat="51.358765898144" lon="4.863413408476">
        <ele>23.8</ele>
        <time>2020-07-12T12:37:50Z</time>
      </trkpt>
      <trkpt lat="51.357711119848" lon="4.862496260978">
        <ele>37</ele>
        <time>2020-07-12T12:39:02Z</time>
      </trkpt>
      <trkpt lat="51.35741590933" lon="4.862389727029">
        <ele>34.8</ele>
        <time>2020-07-12T12:39:09Z</time>
      </trkpt>
      <trkpt lat="51.356960185427" lon="4.862255448991">
        <ele>32.2</ele>
        <time>2020-07-12T12:39:17Z</time>
      </trkpt>
      <trkpt lat="51.356378816843" lon="4.862120919496">
        <ele>29.4</ele>
        <time>2020-07-12T12:39:27Z</time>
      </trkpt>
      <trkpt lat="51.355842459062" lon="4.861998124661">
        <ele>24.8</ele>
        <time>2020-07-12T12:39:36Z</time>
      </trkpt>
      <trkpt lat="51.355505590501" lon="4.861815650698">
        <ele>25.8</ele>
        <time>2020-07-12T12:39:44Z</time>
      </trkpt>
      <trkpt lat="51.355503243569" lon="4.861718169201">
        <ele>29.8</ele>
        <time>2020-07-12T12:39:46Z</time>
      </trkpt>
      <trkpt lat="51.355706672282" lon="4.861287171903">
        <ele>31.4</ele>
        <time>2020-07-12T12:48:49Z</time>
      </trkpt>
      <trkpt lat="51.355843381071" lon="4.860440683822">
        <ele>31</ele>
        <time>2020-07-12T12:49:05Z</time>
      </trkpt>
      <trkpt lat="51.355983861715" lon="4.859559746132">
        <ele>30.2</ele>
        <time>2020-07-12T12:49:19Z</time>
      </trkpt>
      <trkpt lat="51.356117720658" lon="4.858704457056">
        <ele>30.6</ele>
        <time>2020-07-12T12:49:30Z</time>
      </trkpt>
      <trkpt lat="51.356204389504" lon="4.858083525904">
        <ele>30.2</ele>
        <time>2020-07-12T12:49:38Z</time>
      </trkpt>
      <trkpt lat="51.3562198122" lon="4.857882444123">
        <ele>29.8</ele>
        <time>2020-07-12T12:49:41Z</time>
      </trkpt>
      <trkpt lat="51.356284604287" lon="4.857649259665">
        <ele>30</ele>
        <time>2020-07-12T12:49:45Z</time>
      </trkpt>
      <trkpt lat="51.356311510186" lon="4.857528476486">
        <ele>29.8</ele>
        <time>2020-07-12T12:49:47Z</time>
      </trkpt>
      <trkpt lat="51.356254261809" lon="4.857371651137">
        <ele>29.2</ele>
        <time>2020-07-12T12:49:50Z</time>
      </trkpt>
      <trkpt lat="51.356198270717" lon="4.857242569877">
        <ele>29.2</ele>
        <time>2020-07-12T12:49:52Z</time>
      </trkpt>
      <trkpt lat="51.355816894267" lon="4.856599007595">
        <ele>27.8</ele>
        <time>2020-07-12T12:50:02Z</time>
      </trkpt>
      <trkpt lat="51.355732404715" lon="4.856231209823">
        <ele>28.2</ele>
        <time>2020-07-12T12:50:06Z</time>
      </trkpt>
      <trkpt lat="51.355704492988" lon="4.855297801439">
        <ele>28</ele>
        <time>2020-07-12T12:50:16Z</time>
      </trkpt>
      <trkpt lat="51.355688818835" lon="4.85436816491">
        <ele>25.8</ele>
        <time>2020-07-12T12:50:26Z</time>
      </trkpt>
      <trkpt lat="51.355670378655" lon="4.853416903079">
        <ele>26.4</ele>
        <time>2020-07-12T12:50:37Z</time>
      </trkpt>
      <trkpt lat="51.355652776665" lon="4.852491960414">
        <ele>27.6</ele>
        <time>2020-07-12T12:50:48Z</time>
      </trkpt>
      <trkpt lat="51.355646071145" lon="4.852259697965">
        <ele>27.8</ele>
        <time>2020-07-12T12:50:51Z</time>
      </trkpt>
      <trkpt lat="51.355675575433" lon="4.851351854376">
        <ele>28.8</ele>
        <time>2020-07-12T12:51:01Z</time>
      </trkpt>
      <trkpt lat="51.355715054182" lon="4.850459014388">
        <ele>30</ele>
        <time>2020-07-12T12:51:11Z</time>
      </trkpt>
      <trkpt lat="51.355694015613" lon="4.849551338437">
        <ele>31</ele>
        <time>2020-07-12T12:51:22Z</time>
      </trkpt>
      <trkpt lat="51.355610112794" lon="4.848683895606">
        <ele>31.8</ele>
        <time>2020-07-12T12:51:32Z</time>
      </trkpt>
      <trkpt lat="51.355456640205" lon="4.847789546876">
        <ele>29.8</ele>
        <time>2020-07-12T12:51:44Z</time>
      </trkpt>
      <trkpt lat="51.355302916159" lon="4.846949261401">
        <ele>29.4</ele>
        <time>2020-07-12T12:51:54Z</time>
      </trkpt>
      <trkpt lat="51.35513603253" lon="4.846066395874">
        <ele>29.2</ele>
        <time>2020-07-12T12:52:04Z</time>
      </trkpt>
      <trkpt lat="51.354966382874" lon="4.845181351053">
        <ele>29.8</ele>
        <time>2020-07-12T12:52:14Z</time>
      </trkpt>
      <trkpt lat="51.354807629688" lon="4.844314997869">
        <ele>29.4</ele>
        <time>2020-07-12T12:52:24Z</time>
      </trkpt>
      <trkpt lat="51.354723475412" lon="4.843865141296">
        <ele>29.6</ele>
        <time>2020-07-12T12:52:30Z</time>
      </trkpt>
      <trkpt lat="51.354898573303" lon="4.843635812512">
        <ele>30</ele>
        <time>2020-07-12T12:52:36Z</time>
      </trkpt>
      <trkpt lat="51.355447503934" lon="4.843548221657">
        <ele>35.2</ele>
        <time>2020-07-12T12:52:45Z</time>
      </trkpt>
      <trkpt lat="51.355994087633" lon="4.843424840089">
        <ele>40.2</ele>
        <time>2020-07-12T12:52:54Z</time>
      </trkpt>
      <trkpt lat="51.356536815658" lon="4.843242533764">
        <ele>45</ele>
        <time>2020-07-12T12:53:04Z</time>
      </trkpt>
      <trkpt lat="51.357106784858" lon="4.843037931585">
        <ele>43.4</ele>
        <time>2020-07-12T12:53:14Z</time>
      </trkpt>
      <trkpt lat="51.357499895968" lon="4.842772309174">
        <ele>41.6</ele>
        <time>2020-07-12T12:53:24Z</time>
      </trkpt>
      <trkpt lat="51.357276602152" lon="4.841979884348">
        <ele>36.2</ele>
        <time>2020-07-12T12:53:37Z</time>
      </trkpt>
      <trkpt lat="51.357004777135" lon="4.841196931069">
        <ele>36.6</ele>
        <time>2020-07-12T12:53:48Z</time>
      </trkpt>
      <trkpt lat="51.356984073842" lon="4.841138006312">
        <ele>36.4</ele>
        <time>2020-07-12T12:53:49Z</time>
      </trkpt>
      <trkpt lat="51.356962364721" lon="4.841007667767">
        <ele>38</ele>
        <time>2020-07-12T12:53:51Z</time>
      </trkpt>
      <trkpt lat="51.356949708052" lon="4.84080625071">
        <ele>38.4</ele>
        <time>2020-07-12T12:53:54Z</time>
      </trkpt>
      <trkpt lat="51.356791541599" lon="4.840328901505">
        <ele>36.4</ele>
        <time>2020-07-12T12:54:00Z</time>
      </trkpt>
      <trkpt lat="51.356762037311" lon="4.840146343723">
        <ele>35.2</ele>
        <time>2020-07-12T12:54:02Z</time>
      </trkpt>
      <trkpt lat="51.356472777942" lon="4.839312847587">
        <ele>32</ele>
        <time>2020-07-12T12:54:12Z</time>
      </trkpt>
      <trkpt lat="51.356174801397" lon="4.838508520463">
        <ele>31.8</ele>
        <time>2020-07-12T12:54:21Z</time>
      </trkpt>
      <trkpt lat="51.35589543267" lon="4.837742330984">
        <ele>32</ele>
        <time>2020-07-12T12:54:29Z</time>
      </trkpt>
      <trkpt lat="51.355616734495" lon="4.836926101562">
        <ele>33.4</ele>
        <time>2020-07-12T12:54:38Z</time>
      </trkpt>
      <trkpt lat="51.355337952501" lon="4.836134682564">
        <ele>33.6</ele>
        <time>2020-07-12T12:54:47Z</time>
      </trkpt>
      <trkpt lat="51.355066127484" lon="4.835342844471">
        <ele>32.4</ele>
        <time>2020-07-12T12:54:57Z</time>
      </trkpt>
      <trkpt lat="51.35481584395" lon="4.834571542033">
        <ele>28.6</ele>
        <time>2020-07-12T12:55:07Z</time>
      </trkpt>
      <trkpt lat="51.354543683657" lon="4.833751456937">
        <ele>25.4</ele>
        <time>2020-07-12T12:55:17Z</time>
      </trkpt>
      <trkpt lat="51.354259118152" lon="4.832973951893">
        <ele>25.8</ele>
        <time>2020-07-12T12:55:27Z</time>
      </trkpt>
      <trkpt lat="51.3539650811" lon="4.832158225385">
        <ele>27.4</ele>
        <time>2020-07-12T12:55:37Z</time>
      </trkpt>
      <trkpt lat="51.353697530852" lon="4.831311653485">
        <ele>25</ele>
        <time>2020-07-12T12:55:46Z</time>
      </trkpt>
      <trkpt lat="51.353643719054" lon="4.831102189804">
        <ele>24.4</ele>
        <time>2020-07-12T12:55:48Z</time>
      </trkpt>
      <trkpt lat="51.353570377429" lon="4.83091225595">
        <ele>24.8</ele>
        <time>2020-07-12T12:55:50Z</time>
      </trkpt>
      <trkpt lat="51.353449426612" lon="4.830652249412">
        <ele>25.4</ele>
        <time>2020-07-12T12:55:53Z</time>
      </trkpt>
      <trkpt lat="51.353173745921" lon="4.829849179573">
        <ele>26.2</ele>
        <time>2020-07-12T12:56:02Z</time>
      </trkpt>
      <trkpt lat="51.352886833484" lon="4.829056419471">
        <ele>26.6</ele>
        <time>2020-07-12T12:56:11Z</time>
      </trkpt>
      <trkpt lat="51.352619450874" lon="4.828297186969">
        <ele>26.4</ele>
        <time>2020-07-12T12:56:20Z</time>
      </trkpt>
      <trkpt lat="51.352358103232" lon="4.82752429197">
        <ele>23.6</ele>
        <time>2020-07-12T12:56:28Z</time>
      </trkpt>
      <trkpt lat="51.352094492477" lon="4.826758605405">
        <ele>23.4</ele>
        <time>2020-07-12T12:56:36Z</time>
      </trkpt>
      <trkpt lat="51.3518612242" lon="4.82592837821">
        <ele>25.8</ele>
        <time>2020-07-12T12:56:45Z</time>
      </trkpt>
      <trkpt lat="51.351717306977" lon="4.824999076957">
        <ele>28.2</ele>
        <time>2020-07-12T12:56:55Z</time>
      </trkpt>
      <trkpt lat="51.351602642585" lon="4.824125682977">
        <ele>27.8</ele>
        <time>2020-07-12T12:57:05Z</time>
      </trkpt>
      <trkpt lat="51.351478758103" lon="4.823225550736">
        <ele>26</ele>
        <time>2020-07-12T12:57:15Z</time>
      </trkpt>
      <trkpt lat="51.35135579563" lon="4.822365316339">
        <ele>26</ele>
        <time>2020-07-12T12:57:24Z</time>
      </trkpt>
      <trkpt lat="51.351225457085" lon="4.821461579881">
        <ele>25.8</ele>
        <time>2020-07-12T12:57:33Z</time>
      </trkpt>
      <trkpt lat="51.351094867083" lon="4.820560693269">
        <ele>25.2</ele>
        <time>2020-07-12T12:57:42Z</time>
      </trkpt>
      <trkpt lat="51.350964779995" lon="4.819673469154">
        <ele>26.6</ele>
        <time>2020-07-12T12:57:51Z</time>
      </trkpt>
      <trkpt lat="51.350934772793" lon="4.819421341602">
        <ele>27.4</ele>
        <time>2020-07-12T12:57:54Z</time>
      </trkpt>
      <trkpt lat="51.35080342842" lon="4.818484077544">
        <ele>26.2</ele>
        <time>2020-07-12T12:58:03Z</time>
      </trkpt>
      <trkpt lat="51.350664540337" lon="4.817621160939">
        <ele>24.2</ele>
        <time>2020-07-12T12:58:11Z</time>
      </trkpt>
      <trkpt lat="51.35050084183" lon="4.816755981221">
        <ele>26.4</ele>
        <time>2020-07-12T12:58:21Z</time>
      </trkpt>
      <trkpt lat="51.350322642636" lon="4.815899937774">
        <ele>26.8</ele>
        <time>2020-07-12T12:58:29Z</time>
      </trkpt>
      <trkpt lat="51.350080741002" lon="4.814728651068">
        <ele>26.8</ele>
        <time>2020-07-12T12:58:41Z</time>
      </trkpt>
      <trkpt lat="51.349905475473" lon="4.813851820509">
        <ele>26.8</ele>
        <time>2020-07-12T12:58:50Z</time>
      </trkpt>
      <trkpt lat="51.349737502197" lon="4.813026287178">
        <ele>26.6</ele>
        <time>2020-07-12T12:58:59Z</time>
      </trkpt>
      <trkpt lat="51.349555279691" lon="4.812125316747">
        <ele>26.8</ele>
        <time>2020-07-12T12:59:09Z</time>
      </trkpt>
      <trkpt lat="51.349360400516" lon="4.811250078749">
        <ele>33.4</ele>
        <time>2020-07-12T12:59:19Z</time>
      </trkpt>
      <trkpt lat="51.349200725321" lon="4.810378947882">
        <ele>31.8</ele>
        <time>2020-07-12T12:59:29Z</time>
      </trkpt>
      <trkpt lat="51.349041804497" lon="4.809486694627">
        <ele>28.4</ele>
        <time>2020-07-12T12:59:39Z</time>
      </trkpt>
      <trkpt lat="51.348891349392" lon="4.808636853786">
        <ele>25.8</ele>
        <time>2020-07-12T12:59:49Z</time>
      </trkpt>
      <trkpt lat="51.348718766071" lon="4.807751138413">
        <ele>27.6</ele>
        <time>2020-07-12T12:59:59Z</time>
      </trkpt>
      <trkpt lat="51.348550122243" lon="4.806897860993">
        <ele>28.8</ele>
        <time>2020-07-12T13:00:09Z</time>
      </trkpt>
      <trkpt lat="51.348389776496" lon="4.806024047918">
        <ele>34.6</ele>
        <time>2020-07-12T13:00:20Z</time>
      </trkpt>
      <trkpt lat="51.348189197629" lon="4.805182588977">
        <ele>34</ele>
        <time>2020-07-12T13:00:29Z</time>
      </trkpt>
      <trkpt lat="51.348008483865" lon="4.804289916627">
        <ele>33</ele>
        <time>2020-07-12T13:00:38Z</time>
      </trkpt>
      <trkpt lat="51.34784880867" lon="4.803451642808">
        <ele>31.8</ele>
        <time>2020-07-12T13:00:47Z</time>
      </trkpt>
      <trkpt lat="51.347679997204" lon="4.80255712644">
        <ele>32</ele>
        <time>2020-07-12T13:00:57Z</time>
      </trkpt>
      <trkpt lat="51.347507078607" lon="4.801661017511">
        <ele>31.4</ele>
        <time>2020-07-12T13:01:09Z</time>
      </trkpt>
      <trkpt lat="51.347331310164" lon="4.800817798371">
        <ele>29.4</ele>
        <time>2020-07-12T13:01:19Z</time>
      </trkpt>
      <trkpt lat="51.347164677992" lon="4.799972819032">
        <ele>28.4</ele>
        <time>2020-07-12T13:01:29Z</time>
      </trkpt>
      <trkpt lat="51.346993435775" lon="4.79909372536">
        <ele>28.8</ele>
        <time>2020-07-12T13:01:39Z</time>
      </trkpt>
      <trkpt lat="51.346836191331" lon="4.798224689968">
        <ele>28.6</ele>
        <time>2020-07-12T13:01:49Z</time>
      </trkpt>
      <trkpt lat="51.34664013869" lon="4.797344841925">
        <ele>27.6</ele>
        <time>2020-07-12T13:01:59Z</time>
      </trkpt>
      <trkpt lat="51.346551961102" lon="4.796807645954">
        <ele>27.6</ele>
        <time>2020-07-12T13:02:05Z</time>
      </trkpt>
      <trkpt lat="51.346538801519" lon="4.795875830131">
        <ele>26.4</ele>
        <time>2020-07-12T13:02:16Z</time>
      </trkpt>
      <trkpt lat="51.346548021609" lon="4.794965052877">
        <ele>26.4</ele>
        <time>2020-07-12T13:02:25Z</time>
      </trkpt>
      <trkpt lat="51.346566294151" lon="4.794010605924">
        <ele>27.2</ele>
        <time>2020-07-12T13:02:35Z</time>
      </trkpt>
      <trkpt lat="51.34656302521" lon="4.793074850608">
        <ele>26.6</ele>
        <time>2020-07-12T13:02:46Z</time>
      </trkpt>
      <trkpt lat="51.346560845916" lon="4.792921880933">
        <ele>26.6</ele>
        <time>2020-07-12T13:02:48Z</time>
      </trkpt>
      <trkpt lat="51.346440314194" lon="4.792754410571">
        <ele>28</ele>
        <time>2020-07-12T13:03:02Z</time>
      </trkpt>
      <trkpt lat="51.346434363045" lon="4.793252211612">
        <ele>27.2</ele>
        <time>2020-07-12T13:03:09Z</time>
      </trkpt>
      <trkpt lat="51.346373175175" lon="4.793328486902">
        <ele>26.6</ele>
        <time>2020-07-12T13:03:11Z</time>
      </trkpt>
      <trkpt lat="51.34628223156" lon="4.793294540207">
        <ele>26.6</ele>
        <time>2020-07-12T13:03:13Z</time>
      </trkpt>
      <trkpt lat="51.345797254826" lon="4.792909727178">
        <ele>26.4</ele>
        <time>2020-07-12T13:03:21Z</time>
      </trkpt>
      <trkpt lat="51.34525544881" lon="4.792530278565">
        <ele>26.4</ele>
        <time>2020-07-12T13:03:30Z</time>
      </trkpt>
      <trkpt lat="51.344748092403" lon="4.79216859958">
        <ele>26.8</ele>
        <time>2020-07-12T13:03:39Z</time>
      </trkpt>
      <trkpt lat="51.344222882549" lon="4.791830892829">
        <ele>25.4</ele>
        <time>2020-07-12T13:03:48Z</time>
      </trkpt>
      <trkpt lat="51.343696163953" lon="4.791464771437">
        <ele>26</ele>
        <time>2020-07-12T13:03:57Z</time>
      </trkpt>
      <trkpt lat="51.343189394279" lon="4.791114743293">
        <ele>27.4</ele>
        <time>2020-07-12T13:04:06Z</time>
      </trkpt>
      <trkpt lat="51.342685474451" lon="4.790788016831">
        <ele>33.6</ele>
        <time>2020-07-12T13:04:16Z</time>
      </trkpt>
      <trkpt lat="51.342160767511" lon="4.790444107474">
        <ele>41.6</ele>
        <time>2020-07-12T13:04:27Z</time>
      </trkpt>
      <trkpt lat="51.341604376989" lon="4.790099024651">
        <ele>41.6</ele>
        <time>2020-07-12T13:04:36Z</time>
      </trkpt>
      <trkpt lat="51.341110012527" lon="4.789720581866">
        <ele>35.8</ele>
        <time>2020-07-12T13:04:45Z</time>
      </trkpt>
      <trkpt lat="51.340580192628" lon="4.789333505724">
        <ele>32.6</ele>
        <time>2020-07-12T13:04:52Z</time>
      </trkpt>
      <trkpt lat="51.340059173724" lon="4.788987752349">
        <ele>28.2</ele>
        <time>2020-07-12T13:05:00Z</time>
      </trkpt>
      <trkpt lat="51.339915256501" lon="4.788869651378">
        <ele>28</ele>
        <time>2020-07-12T13:05:03Z</time>
      </trkpt>
      <trkpt lat="51.33969405816" lon="4.788691536003">
        <ele>28</ele>
        <time>2020-07-12T13:05:10Z</time>
      </trkpt>
      <trkpt lat="51.339616441766" lon="4.788651386702">
        <ele>28.2</ele>
        <time>2020-07-12T13:05:12Z</time>
      </trkpt>
      <trkpt lat="51.339533209499" lon="4.788585169692">
        <ele>27.8</ele>
        <time>2020-07-12T13:05:14Z</time>
      </trkpt>
      <trkpt lat="51.339398344728" lon="4.788519036501">
        <ele>26.8</ele>
        <time>2020-07-12T13:05:17Z</time>
      </trkpt>
      <trkpt lat="51.338892077968" lon="4.788062474408">
        <ele>27</ele>
        <time>2020-07-12T13:05:27Z</time>
      </trkpt>
      <trkpt lat="51.33842671488" lon="4.787525110799">
        <ele>25.8</ele>
        <time>2020-07-12T13:05:35Z</time>
      </trkpt>
      <trkpt lat="51.337989850252" lon="4.786987579552">
        <ele>28.4</ele>
        <time>2020-07-12T13:05:44Z</time>
      </trkpt>
      <trkpt lat="51.337539742222" lon="4.78647393672">
        <ele>28.6</ele>
        <time>2020-07-12T13:05:53Z</time>
      </trkpt>
      <trkpt lat="51.337084856509" lon="4.785965406847">
        <ele>29</ele>
        <time>2020-07-12T13:06:02Z</time>
      </trkpt>
      <trkpt lat="51.336639274705" lon="4.785438352975">
        <ele>27.4</ele>
        <time>2020-07-12T13:06:11Z</time>
      </trkpt>
      <trkpt lat="51.3362457445" lon="4.784733938099">
        <ele>26.2</ele>
        <time>2020-07-12T13:06:21Z</time>
      </trkpt>
      <trkpt lat="51.335860763833" lon="4.784106133789">
        <ele>25.6</ele>
        <time>2020-07-12T13:06:30Z</time>
      </trkpt>
      <trkpt lat="51.335428425431" lon="4.783518311142">
        <ele>25.2</ele>
        <time>2020-07-12T13:06:40Z</time>
      </trkpt>
      <trkpt lat="51.334987453672" lon="4.782906264804">
        <ele>25.6</ele>
        <time>2020-07-12T13:06:49Z</time>
      </trkpt>
      <trkpt lat="51.334537429461" lon="4.782315592311">
        <ele>26.2</ele>
        <time>2020-07-12T13:06:59Z</time>
      </trkpt>
      <trkpt lat="51.334208858981" lon="4.781799854004">
        <ele>26.2</ele>
        <time>2020-07-12T13:07:07Z</time>
      </trkpt>
      <trkpt lat="51.333782555547" lon="4.781208846235">
        <ele>27.6</ele>
        <time>2020-07-12T13:07:17Z</time>
      </trkpt>
      <trkpt lat="51.333436047801" lon="4.780546089402">
        <ele>27.6</ele>
        <time>2020-07-12T13:07:26Z</time>
      </trkpt>
      <trkpt lat="51.333084175639" lon="4.779785851072">
        <ele>28.4</ele>
        <time>2020-07-12T13:07:36Z</time>
      </trkpt>
      <trkpt lat="51.332774380615" lon="4.779060313808">
        <ele>27.2</ele>
        <time>2020-07-12T13:07:45Z</time>
      </trkpt>
      <trkpt lat="51.332370121578" lon="4.778456733189">
        <ele>24.6</ele>
        <time>2020-07-12T13:07:53Z</time>
      </trkpt>
      <trkpt lat="51.331914146218" lon="4.777986676237">
        <ele>25.2</ele>
        <time>2020-07-12T13:08:03Z</time>
      </trkpt>
      <trkpt lat="51.331438641031" lon="4.77749105449">
        <ele>25.4</ele>
        <time>2020-07-12T13:08:13Z</time>
      </trkpt>
      <trkpt lat="51.33095089827" lon="4.776996187114">
        <ele>24.8</ele>
        <time>2020-07-12T13:08:23Z</time>
      </trkpt>
      <trkpt lat="51.330495090548" lon="4.776472234545">
        <ele>26.2</ele>
        <time>2020-07-12T13:08:33Z</time>
      </trkpt>
      <trkpt lat="51.330043641414" lon="4.775911569254">
        <ele>26</ele>
        <time>2020-07-12T13:08:43Z</time>
      </trkpt>
      <trkpt lat="51.329719094246" lon="4.775502700172">
        <ele>25.6</ele>
        <time>2020-07-12T13:08:51Z</time>
      </trkpt>
      <trkpt lat="51.329655727082" lon="4.77540982872">
        <ele>24.8</ele>
        <time>2020-07-12T13:08:53Z</time>
      </trkpt>
      <trkpt lat="51.329674670176" lon="4.775284519315">
        <ele>25</ele>
        <time>2020-07-12T13:08:55Z</time>
      </trkpt>
      <trkpt lat="51.32989394068" lon="4.77471916016">
        <ele>25.8</ele>
        <time>2020-07-12T13:09:03Z</time>
      </trkpt>
      <trkpt lat="51.330037438808" lon="4.773873929364">
        <ele>27.8</ele>
        <time>2020-07-12T13:09:15Z</time>
      </trkpt>
      <trkpt lat="51.329967617581" lon="4.773482243177">
        <ele>26.4</ele>
        <time>2020-07-12T13:09:23Z</time>
      </trkpt>
      <trkpt lat="51.329509295289" lon="4.773488278145">
        <ele>22.8</ele>
        <time>2020-07-12T13:09:33Z</time>
      </trkpt>
      <trkpt lat="51.329271919881" lon="4.773376463599">
        <ele>24.6</ele>
        <time>2020-07-12T13:09:40Z</time>
      </trkpt>
      <trkpt lat="51.329341070556" lon="4.772874136332">
        <ele>28.8</ele>
        <time>2020-07-12T13:09:49Z</time>
      </trkpt>
      <trkpt lat="51.329445425211" lon="4.772260162157">
        <ele>26.4</ele>
        <time>2020-07-12T13:11:31Z</time>
      </trkpt>
      <trkpt lat="51.32948825672" lon="4.771972076254">
        <ele>25.4</ele>
        <time>2020-07-12T13:11:35Z</time>
      </trkpt>
      <trkpt lat="51.329565286381" lon="4.771086947614">
        <ele>23.4</ele>
        <time>2020-07-12T13:11:44Z</time>
      </trkpt>
      <trkpt lat="51.329619684912" lon="4.770141050199">
        <ele>20.8</ele>
        <time>2020-07-12T13:11:54Z</time>
      </trkpt>
      <trkpt lat="51.329630413744" lon="4.769241001777">
        <ele>19.2</ele>
        <time>2020-07-12T13:12:03Z</time>
      </trkpt>
      <trkpt lat="51.329615913057" lon="4.768294852905">
        <ele>18.4</ele>
        <time>2020-07-12T13:12:13Z</time>
      </trkpt>
      <trkpt lat="51.329560592517" lon="4.76733554445">
        <ele>16.2</ele>
        <time>2020-07-12T13:12:23Z</time>
      </trkpt>
      <trkpt lat="51.329487502349" lon="4.766432310906">
        <ele>16.6</ele>
        <time>2020-07-12T13:12:31Z</time>
      </trkpt>
      <trkpt lat="51.329385326988" lon="4.765503680205">
        <ele>21.2</ele>
        <time>2020-07-12T13:12:39Z</time>
      </trkpt>
      <trkpt lat="51.329320031987" lon="4.764600781937">
        <ele>21.6</ele>
        <time>2020-07-12T13:12:47Z</time>
      </trkpt>
      <trkpt lat="51.329233866055" lon="4.763703164266">
        <ele>23.2</ele>
        <time>2020-07-12T13:12:56Z</time>
      </trkpt>
      <trkpt lat="51.329166643217" lon="4.76282440587">
        <ele>24.2</ele>
        <time>2020-07-12T13:13:04Z</time>
      </trkpt>
      <trkpt lat="51.329107886098" lon="4.761942881447">
        <ele>24</ele>
        <time>2020-07-12T13:13:14Z</time>
      </trkpt>
      <trkpt lat="51.329034879749" lon="4.761538454772">
        <ele>25.6</ele>
        <time>2020-07-12T13:13:21Z</time>
      </trkpt>
      <trkpt lat="51.328658532439" lon="4.761670721154">
        <ele>20.2</ele>
        <time>2020-07-12T13:13:32Z</time>
      </trkpt>
      <trkpt lat="51.328562978779" lon="4.761624201609">
        <ele>20.4</ele>
        <time>2020-07-12T13:13:34Z</time>
      </trkpt>
      <trkpt lat="51.32851092718" lon="4.761454887229">
        <ele>19.8</ele>
        <time>2020-07-12T13:13:36Z</time>
      </trkpt>
      <trkpt lat="51.32850170709" lon="4.761239304761">
        <ele>19.6</ele>
        <time>2020-07-12T13:13:38Z</time>
      </trkpt>
      <trkpt lat="51.328501623271" lon="4.760316792847">
        <ele>18</ele>
        <time>2020-07-12T13:13:46Z</time>
      </trkpt>
      <trkpt lat="51.328520650184" lon="4.759428981999">
        <ele>18.4</ele>
        <time>2020-07-12T13:13:54Z</time>
      </trkpt>
      <trkpt lat="51.328517129786" lon="4.75852616755">
        <ele>18.2</ele>
        <time>2020-07-12T13:14:03Z</time>
      </trkpt>
      <trkpt lat="51.328508999343" lon="4.757658221805">
        <ele>18.2</ele>
        <time>2020-07-12T13:14:12Z</time>
      </trkpt>
      <trkpt lat="51.328511346275" lon="4.757411877764">
        <ele>17.8</ele>
        <time>2020-07-12T13:14:15Z</time>
      </trkpt>
      <trkpt lat="51.328531546654" lon="4.756708803992">
        <ele>21.6</ele>
        <time>2020-07-12T13:15:44Z</time>
      </trkpt>
      <trkpt lat="51.328547556083" lon="4.756357434744">
        <ele>20.8</ele>
        <time>2020-07-12T13:15:50Z</time>
      </trkpt>
      <trkpt lat="51.32852014727" lon="4.75606021257">
        <ele>19.8</ele>
        <time>2020-07-12T13:15:54Z</time>
      </trkpt>
      <trkpt lat="51.328281933672" lon="4.755253538514">
        <ele>18.6</ele>
        <time>2020-07-12T13:16:05Z</time>
      </trkpt>
      <trkpt lat="51.328015389252" lon="4.754419958559">
        <ele>18.6</ele>
        <time>2020-07-12T13:16:18Z</time>
      </trkpt>
      <trkpt lat="51.327734679421" lon="4.753585288957">
        <ele>19</ele>
        <time>2020-07-12T13:16:29Z</time>
      </trkpt>
      <trkpt lat="51.327610878758" lon="4.753178347712">
        <ele>20</ele>
        <time>2020-07-12T13:16:34Z</time>
      </trkpt>
      <trkpt lat="51.327468721734" lon="4.752713655176">
        <ele>20.2</ele>
        <time>2020-07-12T13:16:40Z</time>
      </trkpt>
      <trkpt lat="51.327210223938" lon="4.751905723835">
        <ele>19.4</ele>
        <time>2020-07-12T13:16:53Z</time>
      </trkpt>
      <trkpt lat="51.327096313917" lon="4.751510014336">
        <ele>18.6</ele>
        <time>2020-07-12T13:16:59Z</time>
      </trkpt>
      <trkpt lat="51.326842509985" lon="4.750725468496">
        <ele>18.8</ele>
        <time>2020-07-12T13:17:11Z</time>
      </trkpt>
      <trkpt lat="51.326828260755" lon="4.750653803251">
        <ele>18.2</ele>
        <time>2020-07-12T13:17:12Z</time>
      </trkpt>
      <trkpt lat="51.326618545617" lon="4.749878980415">
        <ele>17.8</ele>
        <time>2020-07-12T13:17:22Z</time>
      </trkpt>
      <trkpt lat="51.32655459172" lon="4.749732464803">
        <ele>19.6</ele>
        <time>2020-07-12T13:17:24Z</time>
      </trkpt>
      <trkpt lat="51.326293160259" lon="4.748971304464">
        <ele>23.8</ele>
        <time>2020-07-12T13:17:34Z</time>
      </trkpt>
      <trkpt lat="51.326030639151" lon="4.748148704798">
        <ele>24.6</ele>
        <time>2020-07-12T13:17:43Z</time>
      </trkpt>
      <trkpt lat="51.325757975944" lon="4.747310598617">
        <ele>20.6</ele>
        <time>2020-07-12T13:17:52Z</time>
      </trkpt>
      <trkpt lat="51.325493359361" lon="4.746461176871">
        <ele>20.8</ele>
        <time>2020-07-12T13:18:01Z</time>
      </trkpt>
      <trkpt lat="51.325230922072" lon="4.745686437854">
        <ele>21</ele>
        <time>2020-07-12T13:18:10Z</time>
      </trkpt>
      <trkpt lat="51.324967646593" lon="4.744865263111">
        <ele>21.8</ele>
        <time>2020-07-12T13:18:20Z</time>
      </trkpt>
      <trkpt lat="51.324723817122" lon="4.744079795262">
        <ele>20</ele>
        <time>2020-07-12T13:18:30Z</time>
      </trkpt>
      <trkpt lat="51.324675202102" lon="4.743929340157">
        <ele>20</ele>
        <time>2020-07-12T13:18:32Z</time>
      </trkpt>
      <trkpt lat="51.324630861851" lon="4.743776789577">
        <ele>20.6</ele>
        <time>2020-07-12T13:18:34Z</time>
      </trkpt>
      <trkpt lat="51.324349481468" lon="4.743011941202">
        <ele>28.8</ele>
        <time>2020-07-12T13:18:43Z</time>
      </trkpt>
      <trkpt lat="51.324065251239" lon="4.742198393988">
        <ele>33</ele>
        <time>2020-07-12T13:18:52Z</time>
      </trkpt>
      <trkpt lat="51.323958884928" lon="4.741829758026">
        <ele>27.6</ele>
        <time>2020-07-12T13:18:56Z</time>
      </trkpt>
      <trkpt lat="51.323909096442" lon="4.74169363597">
        <ele>27.8</ele>
        <time>2020-07-12T13:18:58Z</time>
      </trkpt>
      <trkpt lat="51.323840197224" lon="4.741612080083">
        <ele>27.6</ele>
        <time>2020-07-12T13:19:00Z</time>
      </trkpt>
      <trkpt lat="51.323301157235" lon="4.741222992285">
        <ele>24</ele>
        <time>2020-07-12T13:19:09Z</time>
      </trkpt>
      <trkpt lat="51.322774690096" lon="4.740816134859">
        <ele>20.2</ele>
        <time>2020-07-12T13:19:18Z</time>
      </trkpt>
      <trkpt lat="51.322220981782" lon="4.740467531638">
        <ele>20.2</ele>
        <time>2020-07-12T13:19:27Z</time>
      </trkpt>
      <trkpt lat="51.321885621963" lon="4.740283716571">
        <ele>20.4</ele>
        <time>2020-07-12T13:19:33Z</time>
      </trkpt>
      <trkpt lat="51.321719325067" lon="4.740064026972">
        <ele>20.6</ele>
        <time>2020-07-12T13:19:37Z</time>
      </trkpt>
      <trkpt lat="51.321212723031" lon="4.739794548887">
        <ele>19.2</ele>
        <time>2020-07-12T13:19:46Z</time>
      </trkpt>
      <trkpt lat="51.321146925116" lon="4.73967862721">
        <ele>18.8</ele>
        <time>2020-07-12T13:19:48Z</time>
      </trkpt>
      <trkpt lat="51.3211583245" lon="4.739494644505">
        <ele>18.6</ele>
        <time>2020-07-12T13:19:50Z</time>
      </trkpt>
      <trkpt lat="51.321380528669" lon="4.738680762015">
        <ele>19</ele>
        <time>2020-07-12T13:19:58Z</time>
      </trkpt>
      <trkpt lat="51.321563086451" lon="4.73786729862">
        <ele>19.8</ele>
        <time>2020-07-12T13:20:06Z</time>
      </trkpt>
      <trkpt lat="51.321752433572" lon="4.73701905034">
        <ele>19.6</ele>
        <time>2020-07-12T13:20:14Z</time>
      </trkpt>
      <trkpt lat="51.321927447644" lon="4.736121767945">
        <ele>22</ele>
        <time>2020-07-12T13:20:23Z</time>
      </trkpt>
      <trkpt lat="51.322101036793" lon="4.735270837457">
        <ele>20.8</ele>
        <time>2020-07-12T13:20:33Z</time>
      </trkpt>
      <trkpt lat="51.322282588747" lon="4.734408507585">
        <ele>19.6</ele>
        <time>2020-07-12T13:20:43Z</time>
      </trkpt>
      <trkpt lat="51.322457099905" lon="4.733536622347">
        <ele>19.4</ele>
        <time>2020-07-12T13:20:53Z</time>
      </trkpt>
      <trkpt lat="51.322643010447" lon="4.73263615483">
        <ele>21</ele>
        <time>2020-07-12T13:21:03Z</time>
      </trkpt>
      <trkpt lat="51.322816096682" lon="4.731737866607">
        <ele>23</ele>
        <time>2020-07-12T13:21:14Z</time>
      </trkpt>
      <trkpt lat="51.322969233995" lon="4.730888025766">
        <ele>23.6</ele>
        <time>2020-07-12T13:21:23Z</time>
      </trkpt>
      <trkpt lat="51.32312388005" lon="4.730078334226">
        <ele>22.6</ele>
        <time>2020-07-12T13:21:32Z</time>
      </trkpt>
      <trkpt lat="51.32330325271" lon="4.729261182795">
        <ele>21.6</ele>
        <time>2020-07-12T13:21:42Z</time>
      </trkpt>
      <trkpt lat="51.323349939893" lon="4.72903864335">
        <ele>21.4</ele>
        <time>2020-07-12T13:21:45Z</time>
      </trkpt>
      <trkpt lat="51.323528222906" lon="4.728139936032">
        <ele>20.8</ele>
        <time>2020-07-12T13:21:56Z</time>
      </trkpt>
      <trkpt lat="51.323725449013" lon="4.727296297797">
        <ele>20.2</ele>
        <time>2020-07-12T13:22:06Z</time>
      </trkpt>
      <trkpt lat="51.323900714542" lon="4.726407984035">
        <ele>19.8</ele>
        <time>2020-07-12T13:22:16Z</time>
      </trkpt>
      <trkpt lat="51.323965087534" lon="4.726036330589">
        <ele>20.6</ele>
        <time>2020-07-12T13:22:20Z</time>
      </trkpt>
      <trkpt lat="51.32399056851" lon="4.725865591286">
        <ele>20.6</ele>
        <time>2020-07-12T13:22:22Z</time>
      </trkpt>
      <trkpt lat="51.324151165714" lon="4.725170647957">
        <ele>20.6</ele>
        <time>2020-07-12T13:22:31Z</time>
      </trkpt>
      <trkpt lat="51.324176981966" lon="4.725034861177">
        <ele>20.6</ele>
        <time>2020-07-12T13:22:33Z</time>
      </trkpt>
      <trkpt lat="51.324178239251" lon="4.724895805456">
        <ele>20.6</ele>
        <time>2020-07-12T13:22:35Z</time>
      </trkpt>
      <trkpt lat="51.324144879289" lon="4.724777704485">
        <ele>20.8</ele>
        <time>2020-07-12T13:22:37Z</time>
      </trkpt>
      <trkpt lat="51.32406013828" lon="4.72469681915">
        <ele>21.2</ele>
        <time>2020-07-12T13:22:39Z</time>
      </trkpt>
      <trkpt lat="51.323566612008" lon="4.724330111025">
        <ele>21.8</ele>
        <time>2020-07-12T13:22:48Z</time>
      </trkpt>
      <trkpt lat="51.323087670242" lon="4.723915374613">
        <ele>20.4</ele>
        <time>2020-07-12T13:22:57Z</time>
      </trkpt>
      <trkpt lat="51.322593138142" lon="4.723533327611">
        <ele>20.4</ele>
        <time>2020-07-12T13:23:06Z</time>
      </trkpt>
      <trkpt lat="51.322481910329" lon="4.72344875424">
        <ele>20.8</ele>
        <time>2020-07-12T13:23:08Z</time>
      </trkpt>
      <trkpt lat="51.321979163967" lon="4.723041729176">
        <ele>20.8</ele>
        <time>2020-07-12T13:23:17Z</time>
      </trkpt>
      <trkpt lat="51.321482201116" lon="4.722631602809">
        <ele>20.6</ele>
        <time>2020-07-12T13:23:26Z</time>
      </trkpt>
      <trkpt lat="51.321137872664" lon="4.72194252681">
        <ele>21</ele>
        <time>2020-07-12T13:23:35Z</time>
      </trkpt>
      <trkpt lat="51.320808631632" lon="4.721257055028">
        <ele>21.2</ele>
        <time>2020-07-12T13:23:44Z</time>
      </trkpt>
      <trkpt lat="51.320467488302" lon="4.720574684549">
        <ele>21.8</ele>
        <time>2020-07-12T13:23:54Z</time>
      </trkpt>
      <trkpt lat="51.320114107398" lon="4.719844956335">
        <ele>23.6</ele>
        <time>2020-07-12T13:24:04Z</time>
      </trkpt>
      <trkpt lat="51.319781094511" lon="4.719096285027">
        <ele>22.8</ele>
        <time>2020-07-12T13:24:13Z</time>
      </trkpt>
      <trkpt lat="51.319436011688" lon="4.718351553212">
        <ele>13.6</ele>
        <time>2020-07-12T13:24:23Z</time>
      </trkpt>
      <trkpt lat="51.319130156157" lon="4.717630290717">
        <ele>12.2</ele>
        <time>2020-07-12T13:24:32Z</time>
      </trkpt>
      <trkpt lat="51.318793119958" lon="4.716905926919">
        <ele>15.8</ele>
        <time>2020-07-12T13:24:40Z</time>
      </trkpt>
      <trkpt lat="51.318463208374" lon="4.716211402685">
        <ele>19.6</ele>
        <time>2020-07-12T13:24:48Z</time>
      </trkpt>
      <trkpt lat="51.318116616809" lon="4.715458456608">
        <ele>20.8</ele>
        <time>2020-07-12T13:24:57Z</time>
      </trkpt>
      <trkpt lat="51.318058614061" lon="4.715279586862">
        <ele>21</ele>
        <time>2020-07-12T13:24:59Z</time>
      </trkpt>
      <trkpt lat="51.318026343746" lon="4.715082863669">
        <ele>21</ele>
        <time>2020-07-12T13:25:01Z</time>
      </trkpt>
      <trkpt lat="51.317964401505" lon="4.714236627045">
        <ele>20.6</ele>
        <time>2020-07-12T13:25:10Z</time>
      </trkpt>
      <trkpt lat="51.317906566395" lon="4.714114754219">
        <ele>20.2</ele>
        <time>2020-07-12T13:25:12Z</time>
      </trkpt>
      <trkpt lat="51.317423098403" lon="4.713634471349">
        <ele>20.2</ele>
        <time>2020-07-12T13:25:26Z</time>
      </trkpt>
      <trkpt lat="51.317284545596" lon="4.713489464479">
        <ele>19.6</ele>
        <time>2020-07-12T13:25:30Z</time>
      </trkpt>
      <trkpt lat="51.316832761186" lon="4.712994597103">
        <ele>19.6</ele>
        <time>2020-07-12T13:25:43Z</time>
      </trkpt>
      <trkpt lat="51.31650553181" lon="4.712348268794">
        <ele>19.8</ele>
        <time>2020-07-12T13:25:57Z</time>
      </trkpt>
      <trkpt lat="51.316459850455" lon="4.711452998055">
        <ele>20</ele>
        <time>2020-07-12T13:26:10Z</time>
      </trkpt>
      <trkpt lat="51.316452306745" lon="4.711112944372">
        <ele>20</ele>
        <time>2020-07-12T13:26:14Z</time>
      </trkpt>
      <trkpt lat="51.316441326456" lon="4.710851764368">
        <ele>20</ele>
        <time>2020-07-12T13:26:17Z</time>
      </trkpt>
      <trkpt lat="51.316410145788" lon="4.709910560817">
        <ele>19.8</ele>
        <time>2020-07-12T13:26:28Z</time>
      </trkpt>
      <trkpt lat="51.316382234061" lon="4.709049655868">
        <ele>19.8</ele>
        <time>2020-07-12T13:26:38Z</time>
      </trkpt>
      <trkpt lat="51.316359435293" lon="4.708300314008">
        <ele>19.8</ele>
        <time>2020-07-12T13:26:47Z</time>
      </trkpt>
      <trkpt lat="51.316341749484" lon="4.708099064589">
        <ele>19.8</ele>
        <time>2020-07-12T13:26:50Z</time>
      </trkpt>
      <trkpt lat="51.316303192744" lon="4.707984651654">
        <ele>19.8</ele>
        <time>2020-07-12T13:26:52Z</time>
      </trkpt>
      <trkpt lat="51.316228510015" lon="4.707877866248">
        <ele>20</ele>
        <time>2020-07-12T13:26:54Z</time>
      </trkpt>
      <trkpt lat="51.315700534134" lon="4.707485341871">
        <ele>20.4</ele>
        <time>2020-07-12T13:27:03Z</time>
      </trkpt>
      <trkpt lat="51.315141042309" lon="4.707086028155">
        <ele>20.6</ele>
        <time>2020-07-12T13:27:12Z</time>
      </trkpt>
      <trkpt lat="51.314604097795" lon="4.70668076329">
        <ele>21.2</ele>
        <time>2020-07-12T13:27:20Z</time>
      </trkpt>
      <trkpt lat="51.314056256811" lon="4.706260327186">
        <ele>21</ele>
        <time>2020-07-12T13:27:29Z</time>
      </trkpt>
      <trkpt lat="51.313544960911" lon="4.705889009016">
        <ele>20.8</ele>
        <time>2020-07-12T13:27:37Z</time>
      </trkpt>
      <trkpt lat="51.313024444921" lon="4.705507632566">
        <ele>20.6</ele>
        <time>2020-07-12T13:27:46Z</time>
      </trkpt>
      <trkpt lat="51.31284515608" lon="4.705390537423">
        <ele>20.8</ele>
        <time>2020-07-12T13:27:49Z</time>
      </trkpt>
      <trkpt lat="51.312290358119" lon="4.705332869951">
        <ele>20.8</ele>
        <time>2020-07-12T13:27:57Z</time>
      </trkpt>
      <trkpt lat="51.311511009057" lon="4.705238992671">
        <ele>22.6</ele>
        <time>2020-07-12T13:28:10Z</time>
      </trkpt>
      <trkpt lat="51.310954031802" lon="4.705170931643">
        <ele>20.6</ele>
        <time>2020-07-12T13:28:18Z</time>
      </trkpt>
      <trkpt lat="51.310381548032" lon="4.705120304967">
        <ele>20.2</ele>
        <time>2020-07-12T13:28:26Z</time>
      </trkpt>
      <trkpt lat="51.309820044551" lon="4.705070851757">
        <ele>19.2</ele>
        <time>2020-07-12T13:28:34Z</time>
      </trkpt>
      <trkpt lat="51.309272957938" lon="4.705021063271">
        <ele>19.8</ele>
        <time>2020-07-12T13:28:42Z</time>
      </trkpt>
      <trkpt lat="51.30915376732" lon="4.704935567891">
        <ele>20</ele>
        <time>2020-07-12T13:28:44Z</time>
      </trkpt>
      <trkpt lat="51.309066344103" lon="4.704771115013">
        <ele>20</ele>
        <time>2020-07-12T13:28:46Z</time>
      </trkpt>
      <trkpt lat="51.308760320934" lon="4.704041219161">
        <ele>17.8</ele>
        <time>2020-07-12T13:28:54Z</time>
      </trkpt>
      <trkpt lat="51.308608692363" lon="4.703613909899">
        <ele>16.8</ele>
        <time>2020-07-12T13:28:59Z</time>
      </trkpt>
      <trkpt lat="51.308497883645" lon="4.702741521747">
        <ele>17.6</ele>
        <time>2020-07-12T13:29:08Z</time>
      </trkpt>
      <trkpt lat="51.308394534818" lon="4.701804341508">
        <ele>17.6</ele>
        <time>2020-07-12T13:29:18Z</time>
      </trkpt>
      <trkpt lat="51.308160679808" lon="4.701007138999">
        <ele>16.8</ele>
        <time>2020-07-12T13:29:26Z</time>
      </trkpt>
      <trkpt lat="51.307851639155" lon="4.700239021683">
        <ele>16.2</ele>
        <time>2020-07-12T13:29:34Z</time>
      </trkpt>
      <trkpt lat="51.307519967372" lon="4.699433353455">
        <ele>16</ele>
        <time>2020-07-12T13:29:43Z</time>
      </trkpt>
      <trkpt lat="51.30710271639" lon="4.698799178901">
        <ele>16.4</ele>
        <time>2020-07-12T13:29:51Z</time>
      </trkpt>
      <trkpt lat="51.30667607768" lon="4.698166764546">
        <ele>16.2</ele>
        <time>2020-07-12T13:29:59Z</time>
      </trkpt>
      <trkpt lat="51.306281457828" lon="4.697588497265">
        <ele>16.2</ele>
        <time>2020-07-12T13:30:07Z</time>
      </trkpt>
      <trkpt lat="51.305781477493" lon="4.697193625956">
        <ele>17.2</ele>
        <time>2020-07-12T13:30:17Z</time>
      </trkpt>
      <trkpt lat="51.305400184862" lon="4.696887267511">
        <ele>19.6</ele>
        <time>2020-07-12T13:30:26Z</time>
      </trkpt>
      <trkpt lat="51.305249059205" lon="4.696591302622">
        <ele>20.6</ele>
        <time>2020-07-12T13:30:32Z</time>
      </trkpt>
      <trkpt lat="51.304941778751" lon="4.695872889973">
        <ele>15.2</ele>
        <time>2020-07-12T13:30:47Z</time>
      </trkpt>
      <trkpt lat="51.304691746674" lon="4.695156321342">
        <ele>14.6</ele>
        <time>2020-07-12T13:30:58Z</time>
      </trkpt>
      <trkpt lat="51.3047633281" lon="4.69449850983">
        <ele>17.4</ele>
        <time>2020-07-12T13:31:09Z</time>
      </trkpt>
      <trkpt lat="51.304661571834" lon="4.694340594834">
        <ele>19.6</ele>
        <time>2020-07-12T13:31:12Z</time>
      </trkpt>
      <trkpt lat="51.304180115498" lon="4.693848744942">
        <ele>16.4</ele>
        <time>2020-07-12T13:31:21Z</time>
      </trkpt>
      <trkpt lat="51.303727828174" lon="4.693372401565">
        <ele>15.8</ele>
        <time>2020-07-12T13:31:29Z</time>
      </trkpt>
      <trkpt lat="51.303222231966" lon="4.692872337411">
        <ele>11.6</ele>
        <time>2020-07-12T13:31:39Z</time>
      </trkpt>
      <trkpt lat="51.302760305457" lon="4.692380152243">
        <ele>9.8</ele>
        <time>2020-07-12T13:31:48Z</time>
      </trkpt>
      <trkpt lat="51.302273987619" lon="4.691900288468">
        <ele>10.4</ele>
        <time>2020-07-12T13:31:58Z</time>
      </trkpt>
      <trkpt lat="51.301989254476" lon="4.691685041276">
        <ele>11.6</ele>
        <time>2020-07-12T13:32:06Z</time>
      </trkpt>
      <trkpt lat="51.301920606715" lon="4.69184480029">
        <ele>11.8</ele>
        <time>2020-07-12T13:32:09Z</time>
      </trkpt>
      <trkpt lat="51.301819772458" lon="4.692136238953">
        <ele>13.6</ele>
        <time>2020-07-12T13:32:15Z</time>
      </trkpt>
      <trkpt lat="51.301803260115" lon="4.69221025113">
        <ele>13.4</ele>
        <time>2020-07-12T13:32:17Z</time>
      </trkpt>
      <trkpt lat="51.301787921238" lon="4.69214319593">
        <ele>15.6</ele>
        <time>2020-07-12T13:32:21Z</time>
      </trkpt>
      <trkpt lat="51.30180284102" lon="4.692120732438">
        <ele>15.4</ele>
        <time>2020-07-12T13:32:22Z</time>
      </trkpt>
      <trkpt lat="51.301962767672" lon="4.691746648241">
        <ele>19</ele>
        <time>2020-07-12T13:35:39Z</time>
      </trkpt>
      <trkpt lat="51.301831255661" lon="4.692090892874">
        <ele>16.8</ele>
        <time>2020-07-12T13:35:47Z</time>
      </trkpt>
      <trkpt lat="51.301522717922" lon="4.692266158403">
        <ele>14.2</ele>
        <time>2020-07-12T13:35:58Z</time>
      </trkpt>
      <trkpt lat="51.301517269687" lon="4.692197343004">
        <ele>14.4</ele>
        <time>2020-07-12T13:36:00Z</time>
      </trkpt>
      <trkpt lat="51.301830836566" lon="4.691760059281">
        <ele>16.6</ele>
        <time>2020-07-12T13:36:09Z</time>
      </trkpt>
      <trkpt lat="51.301850198755" lon="4.691612956936">
        <ele>16</ele>
        <time>2020-07-12T13:36:11Z</time>
      </trkpt>
      <trkpt lat="51.301791357817" lon="4.691434003371">
        <ele>15.4</ele>
        <time>2020-07-12T13:36:14Z</time>
      </trkpt>
      <trkpt lat="51.301308476558" lon="4.690972412138">
        <ele>12.4</ele>
        <time>2020-07-12T13:36:23Z</time>
      </trkpt>
      <trkpt lat="51.301215353649" lon="4.690865542913">
        <ele>12.2</ele>
        <time>2020-07-12T13:36:25Z</time>
      </trkpt>
      <trkpt lat="51.301178305651" lon="4.690725229907">
        <ele>11.8</ele>
        <time>2020-07-12T13:36:27Z</time>
      </trkpt>
      <trkpt lat="51.301201691152" lon="4.690573936612">
        <ele>12.8</ele>
        <time>2020-07-12T13:36:29Z</time>
      </trkpt>
      <trkpt lat="51.301282492668" lon="4.690299764663">
        <ele>13.8</ele>
        <time>2020-07-12T13:36:33Z</time>
      </trkpt>
      <trkpt lat="51.301279307546" lon="4.690152075585">
        <ele>13.4</ele>
        <time>2020-07-12T13:36:35Z</time>
      </trkpt>
      <trkpt lat="51.301090714796" lon="4.689288404609">
        <ele>15.4</ele>
        <time>2020-07-12T13:36:45Z</time>
      </trkpt>
      <trkpt lat="51.300904804254" lon="4.68841408862">
        <ele>15</ele>
        <time>2020-07-12T13:36:54Z</time>
      </trkpt>
      <trkpt lat="51.300821655806" lon="4.688058360784">
        <ele>15</ele>
        <time>2020-07-12T13:36:58Z</time>
      </trkpt>
      <trkpt lat="51.300632057228" lon="4.687146242426">
        <ele>15.8</ele>
        <time>2020-07-12T13:37:07Z</time>
      </trkpt>
      <trkpt lat="51.300442877745" lon="4.68625491118">
        <ele>14.8</ele>
        <time>2020-07-12T13:37:16Z</time>
      </trkpt>
      <trkpt lat="51.300257721574" lon="4.685392665127">
        <ele>13.4</ele>
        <time>2020-07-12T13:37:26Z</time>
      </trkpt>
      <trkpt lat="51.300155127118" lon="4.684969379177">
        <ele>13.4</ele>
        <time>2020-07-12T13:37:31Z</time>
      </trkpt>
      <trkpt lat="51.300094023067" lon="4.684802663186">
        <ele>13</ele>
        <time>2020-07-12T13:37:33Z</time>
      </trkpt>
      <trkpt lat="51.299705438183" lon="4.684119789793">
        <ele>16.2</ele>
        <time>2020-07-12T13:37:43Z</time>
      </trkpt>
      <trkpt lat="51.299639807906" lon="4.684013758758">
        <ele>16.2</ele>
        <time>2020-07-12T13:37:45Z</time>
      </trkpt>
      <trkpt lat="51.29961013598" lon="4.683876714693">
        <ele>16.2</ele>
        <time>2020-07-12T13:37:47Z</time>
      </trkpt>
      <trkpt lat="51.299671742945" lon="4.683742185198">
        <ele>16.2</ele>
        <time>2020-07-12T13:37:49Z</time>
      </trkpt>
      <trkpt lat="51.300113301437" lon="4.683136760561">
        <ele>20</ele>
        <time>2020-07-12T13:37:59Z</time>
      </trkpt>
      <trkpt lat="51.30044916417" lon="4.682685646703">
        <ele>20.6</ele>
        <time>2020-07-12T13:38:07Z</time>
      </trkpt>
      <trkpt lat="51.300866079876" lon="4.682079551514">
        <ele>22</ele>
        <time>2020-07-12T13:38:17Z</time>
      </trkpt>
      <trkpt lat="51.301137821074" lon="4.681688116784">
        <ele>20.4</ele>
        <time>2020-07-12T13:38:24Z</time>
      </trkpt>
      <trkpt lat="51.30114737644" lon="4.681549144882">
        <ele>19.2</ele>
        <time>2020-07-12T13:38:26Z</time>
      </trkpt>
      <trkpt lat="51.300979319345" lon="4.680723192456">
        <ele>18.2</ele>
        <time>2020-07-12T13:38:35Z</time>
      </trkpt>
      <trkpt lat="51.300955263292" lon="4.680555554456">
        <ele>18</ele>
        <time>2020-07-12T13:38:37Z</time>
      </trkpt>
      <trkpt lat="51.30088418478" lon="4.680190522711">
        <ele>18.6</ele>
        <time>2020-07-12T13:38:42Z</time>
      </trkpt>
      <trkpt lat="51.300921484235" lon="4.680014502811">
        <ele>18.6</ele>
        <time>2020-07-12T13:38:45Z</time>
      </trkpt>
      <trkpt lat="51.301110244623" lon="4.679801183456">
        <ele>17.6</ele>
        <time>2020-07-12T13:38:51Z</time>
      </trkpt>
      <trkpt lat="51.301404030218" lon="4.679368509778">
        <ele>16</ele>
        <time>2020-07-12T13:39:01Z</time>
      </trkpt>
      <trkpt lat="51.301247540145" lon="4.679398181704">
        <ele>13.4</ele>
        <time>2020-07-12T13:39:05Z</time>
      </trkpt>
      <trkpt lat="51.301135055047" lon="4.679379825343">
        <ele>13.2</ele>
        <time>2020-07-12T13:39:07Z</time>
      </trkpt>
      <trkpt lat="51.301052912427" lon="4.679257365784">
        <ele>12.6</ele>
        <time>2020-07-12T13:39:09Z</time>
      </trkpt>
      <trkpt lat="51.300922825339" lon="4.678980930722">
        <ele>13.6</ele>
        <time>2020-07-12T13:39:13Z</time>
      </trkpt>
      <trkpt lat="51.300926681013" lon="4.678836426766">
        <ele>14.2</ele>
        <time>2020-07-12T13:39:15Z</time>
      </trkpt>
      <trkpt lat="51.301215772744" lon="4.678103345792">
        <ele>17.6</ele>
        <time>2020-07-12T13:39:24Z</time>
      </trkpt>
      <trkpt lat="51.301366311668" lon="4.677202291542">
        <ele>16.8</ele>
        <time>2020-07-12T13:39:33Z</time>
      </trkpt>
      <trkpt lat="51.301472175065" lon="4.676289586451">
        <ele>15.4</ele>
        <time>2020-07-12T13:39:43Z</time>
      </trkpt>
      <trkpt lat="51.301499164783" lon="4.675411414788">
        <ele>18</ele>
        <time>2020-07-12T13:39:52Z</time>
      </trkpt>
      <trkpt lat="51.301519700438" lon="4.675071696381">
        <ele>16.8</ele>
        <time>2020-07-12T13:39:56Z</time>
      </trkpt>
      <trkpt lat="51.301695804157" lon="4.674204505007">
        <ele>17.6</ele>
        <time>2020-07-12T13:40:06Z</time>
      </trkpt>
      <trkpt lat="51.301870902048" lon="4.673382408255">
        <ele>18.8</ele>
        <time>2020-07-12T13:40:15Z</time>
      </trkpt>
      <trkpt lat="51.302025045189" lon="4.672657793">
        <ele>19</ele>
        <time>2020-07-12T13:40:23Z</time>
      </trkpt>
      <trkpt lat="51.302108109818" lon="4.671735113448">
        <ele>19.4</ele>
        <time>2020-07-12T13:40:33Z</time>
      </trkpt>
      <trkpt lat="51.302163095082" lon="4.670793742259">
        <ele>19.4</ele>
        <time>2020-07-12T13:40:44Z</time>
      </trkpt>
      <trkpt lat="51.302229815006" lon="4.669887994145">
        <ele>19.4</ele>
        <time>2020-07-12T13:40:54Z</time>
      </trkpt>
      <trkpt lat="51.302309694513" lon="4.668938324875">
        <ele>19.2</ele>
        <time>2020-07-12T13:41:04Z</time>
      </trkpt>
      <trkpt lat="51.302368116356" lon="4.668080102134">
        <ele>19.2</ele>
        <time>2020-07-12T13:41:13Z</time>
      </trkpt>
      <trkpt lat="51.302415222634" lon="4.667140072049">
        <ele>19.8</ele>
        <time>2020-07-12T13:41:23Z</time>
      </trkpt>
      <trkpt lat="51.302454533745" lon="4.666529366815">
        <ele>20.2</ele>
        <time>2020-07-12T13:41:29Z</time>
      </trkpt>
      <trkpt lat="51.302506250068" lon="4.665591935119">
        <ele>20.2</ele>
        <time>2020-07-12T13:41:38Z</time>
      </trkpt>
      <trkpt lat="51.302528462103" lon="4.664647043532">
        <ele>19.6</ele>
        <time>2020-07-12T13:41:48Z</time>
      </trkpt>
      <trkpt lat="51.302475404676" lon="4.663751605155">
        <ele>19.2</ele>
        <time>2020-07-12T13:41:58Z</time>
      </trkpt>
      <trkpt lat="51.302432489348" lon="4.662828171232">
        <ele>18.2</ele>
        <time>2020-07-12T13:42:08Z</time>
      </trkpt>
      <trkpt lat="51.302338109154" lon="4.661909766449">
        <ele>17.6</ele>
        <time>2020-07-12T13:42:17Z</time>
      </trkpt>
      <trkpt lat="51.3022319943" lon="4.661021033592">
        <ele>18.8</ele>
        <time>2020-07-12T13:42:26Z</time>
      </trkpt>
      <trkpt lat="51.302089753457" lon="4.66015702734">
        <ele>19.6</ele>
        <time>2020-07-12T13:42:36Z</time>
      </trkpt>
      <trkpt lat="51.301920941991" lon="4.659321184272">
        <ele>20</ele>
        <time>2020-07-12T13:42:44Z</time>
      </trkpt>
      <trkpt lat="51.30177350437" lon="4.658417950728">
        <ele>19.4</ele>
        <time>2020-07-12T13:42:52Z</time>
      </trkpt>
      <trkpt lat="51.301596897737" lon="4.657533408821">
        <ele>20</ele>
        <time>2020-07-12T13:43:00Z</time>
      </trkpt>
      <trkpt lat="51.301461278595" lon="4.656643502498">
        <ele>19.4</ele>
        <time>2020-07-12T13:43:08Z</time>
      </trkpt>
      <trkpt lat="51.301334460448" lon="4.65589986033">
        <ele>19.6</ele>
        <time>2020-07-12T13:43:15Z</time>
      </trkpt>
      <trkpt lat="51.301193895985" lon="4.655045828539">
        <ele>20.4</ele>
        <time>2020-07-12T13:43:24Z</time>
      </trkpt>
      <trkpt lat="51.301105969854" lon="4.654591361921">
        <ele>20</ele>
        <time>2020-07-12T13:43:29Z</time>
      </trkpt>
      <trkpt lat="51.301040339577" lon="4.65422683309">
        <ele>20.4</ele>
        <time>2020-07-12T13:43:33Z</time>
      </trkpt>
      <trkpt lat="51.301000022638" lon="4.654050980828">
        <ele>20.6</ele>
        <time>2020-07-12T13:43:35Z</time>
      </trkpt>
      <trkpt lat="51.300872869215" lon="4.653128133638">
        <ele>20</ele>
        <time>2020-07-12T13:43:45Z</time>
      </trkpt>
      <trkpt lat="51.300716714418" lon="4.652261528997">
        <ele>17.8</ele>
        <time>2020-07-12T13:43:55Z</time>
      </trkpt>
      <trkpt lat="51.30055812887" lon="4.651401881333">
        <ele>17.4</ele>
        <time>2020-07-12T13:44:05Z</time>
      </trkpt>
      <trkpt lat="51.300497946828" lon="4.651080519287">
        <ele>16.2</ele>
        <time>2020-07-12T13:44:10Z</time>
      </trkpt>
      <trkpt lat="51.300367189188" lon="4.650204610737">
        <ele>16.6</ele>
        <time>2020-07-12T13:44:19Z</time>
      </trkpt>
      <trkpt lat="51.300180356637" lon="4.649168943173">
        <ele>19.8</ele>
        <time>2020-07-12T13:44:31Z</time>
      </trkpt>
      <trkpt lat="51.300049598997" lon="4.648271912235">
        <ele>19.4</ele>
        <time>2020-07-12T13:44:41Z</time>
      </trkpt>
      <trkpt lat="51.299919595728" lon="4.647409666182">
        <ele>17.8</ele>
        <time>2020-07-12T13:44:50Z</time>
      </trkpt>
      <trkpt lat="51.299784647138" lon="4.646498218376">
        <ele>17.8</ele>
        <time>2020-07-12T13:44:59Z</time>
      </trkpt>
      <trkpt lat="51.299631258368" lon="4.645622477464">
        <ele>19.8</ele>
        <time>2020-07-12T13:45:08Z</time>
      </trkpt>
      <trkpt lat="51.299494298122" lon="4.644721507033">
        <ele>20.4</ele>
        <time>2020-07-12T13:45:19Z</time>
      </trkpt>
      <trkpt lat="51.299433529347" lon="4.64383495347">
        <ele>11.8</ele>
        <time>2020-07-12T13:45:29Z</time>
      </trkpt>
      <trkpt lat="51.299405533801" lon="4.643583580289">
        <ele>11</ele>
        <time>2020-07-12T13:45:32Z</time>
      </trkpt>
      <trkpt lat="51.299338813877" lon="4.642707085006">
        <ele>10.4</ele>
        <time>2020-07-12T13:45:40Z</time>
      </trkpt>
      <trkpt lat="51.299280140577" lon="4.641839474537">
        <ele>13.4</ele>
        <time>2020-07-12T13:45:49Z</time>
      </trkpt>
      <trkpt lat="51.299201602174" lon="4.641105555373">
        <ele>13.4</ele>
        <time>2020-07-12T13:45:58Z</time>
      </trkpt>
      <trkpt lat="51.299120968296" lon="4.640156389017">
        <ele>12.6</ele>
        <time>2020-07-12T13:46:08Z</time>
      </trkpt>
      <trkpt lat="51.299018960573" lon="4.639232200723">
        <ele>16.8</ele>
        <time>2020-07-12T13:46:17Z</time>
      </trkpt>
      <trkpt lat="51.298938913428" lon="4.638282866729">
        <ele>16</ele>
        <time>2020-07-12T13:46:28Z</time>
      </trkpt>
      <trkpt lat="51.298865404165" lon="4.637419950124">
        <ele>14.2</ele>
        <time>2020-07-12T13:46:36Z</time>
      </trkpt>
      <trkpt lat="51.298782926269" lon="4.636475393813">
        <ele>12.6</ele>
        <time>2020-07-12T13:46:45Z</time>
      </trkpt>
      <trkpt lat="51.298696760337" lon="4.635576183581">
        <ele>13.4</ele>
        <time>2020-07-12T13:46:54Z</time>
      </trkpt>
      <trkpt lat="51.298630543327" lon="4.634693401873">
        <ele>11.8</ele>
        <time>2020-07-12T13:47:04Z</time>
      </trkpt>
      <trkpt lat="51.298584861972" lon="4.633883710333">
        <ele>11.2</ele>
        <time>2020-07-12T13:47:13Z</time>
      </trkpt>
      <trkpt lat="51.298567008525" lon="4.633223803346">
        <ele>6.8</ele>
        <time>2020-07-12T13:47:20Z</time>
      </trkpt>
      <trkpt lat="51.298524847568" lon="4.632318893422">
        <ele>5</ele>
        <time>2020-07-12T13:47:30Z</time>
      </trkpt>
      <trkpt lat="51.298492912529" lon="4.631386239409">
        <ele>3.4</ele>
        <time>2020-07-12T13:47:40Z</time>
      </trkpt>
      <trkpt lat="51.298440609473" lon="4.630498763837">
        <ele>6.6</ele>
        <time>2020-07-12T13:47:49Z</time>
      </trkpt>
      <trkpt lat="51.29839978962" lon="4.630369347301">
        <ele>7.8</ele>
        <time>2020-07-12T13:47:52Z</time>
      </trkpt>
      <trkpt lat="51.297861336364" lon="4.630215455617">
        <ele>10</ele>
        <time>2020-07-12T13:48:03Z</time>
      </trkpt>
      <trkpt lat="51.297319949443" lon="4.630096684094">
        <ele>10</ele>
        <time>2020-07-12T13:48:11Z</time>
      </trkpt>
      <trkpt lat="51.296770599717" lon="4.629991239792">
        <ele>9.2</ele>
        <time>2020-07-12T13:48:19Z</time>
      </trkpt>
      <trkpt lat="51.296237846153" lon="4.629856626478">
        <ele>10.8</ele>
        <time>2020-07-12T13:48:27Z</time>
      </trkpt>
      <trkpt lat="51.295682042364" lon="4.629705333183">
        <ele>9</ele>
        <time>2020-07-12T13:48:36Z</time>
      </trkpt>
      <trkpt lat="51.29510151197" lon="4.629549262205">
        <ele>7</ele>
        <time>2020-07-12T13:48:46Z</time>
      </trkpt>
      <trkpt lat="51.29452986639" lon="4.629462174264">
        <ele>7</ele>
        <time>2020-07-12T13:48:56Z</time>
      </trkpt>
      <trkpt lat="51.2939506771" lon="4.629344660026">
        <ele>8.2</ele>
        <time>2020-07-12T13:49:06Z</time>
      </trkpt>
      <trkpt lat="51.293355226924" lon="4.629169310678">
        <ele>6.2</ele>
        <time>2020-07-12T13:49:15Z</time>
      </trkpt>
      <trkpt lat="51.292800596601" lon="4.6290383854">
        <ele>6.4</ele>
        <time>2020-07-12T13:49:23Z</time>
      </trkpt>
      <trkpt lat="51.292257449481" lon="4.628941574455">
        <ele>8.2</ele>
        <time>2020-07-12T13:49:31Z</time>
      </trkpt>
      <trkpt lat="51.291679266019" lon="4.628804362752">
        <ele>6.2</ele>
        <time>2020-07-12T13:49:41Z</time>
      </trkpt>
      <trkpt lat="51.291097645978" lon="4.628665977583">
        <ele>3</ele>
        <time>2020-07-12T13:49:50Z</time>
      </trkpt>
      <trkpt lat="51.290560617645" lon="4.628565310964">
        <ele>2.4</ele>
        <time>2020-07-12T13:49:59Z</time>
      </trkpt>
      <trkpt lat="51.290024511321" lon="4.628423070121">
        <ele>5</ele>
        <time>2020-07-12T13:50:08Z</time>
      </trkpt>
      <trkpt lat="51.289427887679" lon="4.628330031031">
        <ele>14.4</ele>
        <time>2020-07-12T13:50:17Z</time>
      </trkpt>
      <trkpt lat="51.288874011727" lon="4.628182258134">
        <ele>16.4</ele>
        <time>2020-07-12T13:50:26Z</time>
      </trkpt>
      <trkpt lat="51.288283506872" lon="4.628045716983">
        <ele>16.4</ele>
        <time>2020-07-12T13:50:34Z</time>
      </trkpt>
      <trkpt lat="51.287738431915" lon="4.627923089786">
        <ele>12.2</ele>
        <time>2020-07-12T13:50:42Z</time>
      </trkpt>
      <trkpt lat="51.287165026136" lon="4.627790907223">
        <ele>11.2</ele>
        <time>2020-07-12T13:50:50Z</time>
      </trkpt>
      <trkpt lat="51.286587513226" lon="4.627664508171">
        <ele>9.2</ele>
        <time>2020-07-12T13:50:59Z</time>
      </trkpt>
      <trkpt lat="51.286030284514" lon="4.627514136885">
        <ele>11</ele>
        <time>2020-07-12T13:51:08Z</time>
      </trkpt>
      <trkpt lat="51.285443551514" lon="4.627481782751">
        <ele>11.6</ele>
        <time>2020-07-12T13:51:16Z</time>
      </trkpt>
      <trkpt lat="51.284818429412" lon="4.627487398624">
        <ele>11.4</ele>
        <time>2020-07-12T13:51:23Z</time>
      </trkpt>
      <trkpt lat="51.284255081913" lon="4.627487901538">
        <ele>11</ele>
        <time>2020-07-12T13:51:30Z</time>
      </trkpt>
      <trkpt lat="51.283692321147" lon="4.627501480216">
        <ele>10.6</ele>
        <time>2020-07-12T13:51:38Z</time>
      </trkpt>
      <trkpt lat="51.283123860689" lon="4.627386229091">
        <ele>9.4</ele>
        <time>2020-07-12T13:51:47Z</time>
      </trkpt>
      <trkpt lat="51.282543581752" lon="4.627116751006">
        <ele>8.8</ele>
        <time>2020-07-12T13:51:56Z</time>
      </trkpt>
      <trkpt lat="51.282017198432" lon="4.626788096707">
        <ele>9.4</ele>
        <time>2020-07-12T13:52:05Z</time>
      </trkpt>
      <trkpt lat="51.281509339111" lon="4.626469081593">
        <ele>9.2</ele>
        <time>2020-07-12T13:52:13Z</time>
      </trkpt>
      <trkpt lat="51.281006257473" lon="4.626137158353">
        <ele>10.2</ele>
        <time>2020-07-12T13:52:21Z</time>
      </trkpt>
      <trkpt lat="51.280471156977" lon="4.625781262879">
        <ele>11.8</ele>
        <time>2020-07-12T13:52:30Z</time>
      </trkpt>
      <trkpt lat="51.27992692021" lon="4.625388403226">
        <ele>11.2</ele>
        <time>2020-07-12T13:52:40Z</time>
      </trkpt>
      <trkpt lat="51.279378827769" lon="4.625043739498">
        <ele>12.8</ele>
        <time>2020-07-12T13:52:49Z</time>
      </trkpt>
      <trkpt lat="51.279049502918" lon="4.624834946369">
        <ele>11</ele>
        <time>2020-07-12T13:52:55Z</time>
      </trkpt>
      <trkpt lat="51.278433600906" lon="4.624380731208">
        <ele>13.8</ele>
        <time>2020-07-12T13:53:44Z</time>
      </trkpt>
      <trkpt lat="51.277952898941" lon="4.623991140496">
        <ele>12.2</ele>
        <time>2020-07-12T13:53:53Z</time>
      </trkpt>
      <trkpt lat="51.277386114863" lon="4.623657624695">
        <ele>9.4</ele>
        <time>2020-07-12T13:54:01Z</time>
      </trkpt>
      <trkpt lat="51.276838860612" lon="4.623324779446">
        <ele>10.2</ele>
        <time>2020-07-12T13:54:09Z</time>
      </trkpt>
      <trkpt lat="51.276296467863" lon="4.62296486066">
        <ele>10.6</ele>
        <time>2020-07-12T13:54:17Z</time>
      </trkpt>
      <trkpt lat="51.2757870998" lon="4.622624136425">
        <ele>10.2</ele>
        <time>2020-07-12T13:54:25Z</time>
      </trkpt>
      <trkpt lat="51.275255184426" lon="4.622294727755">
        <ele>8</ele>
        <time>2020-07-12T13:54:33Z</time>
      </trkpt>
      <trkpt lat="51.274701140836" lon="4.621895162582">
        <ele>7.4</ele>
        <time>2020-07-12T13:54:41Z</time>
      </trkpt>
      <trkpt lat="51.274147516341" lon="4.621483192197">
        <ele>6.6</ele>
        <time>2020-07-12T13:54:49Z</time>
      </trkpt>
      <trkpt lat="51.273621803573" lon="4.621135510985">
        <ele>7</ele>
        <time>2020-07-12T13:54:57Z</time>
      </trkpt>
      <trkpt lat="51.273074800779" lon="4.62075539182">
        <ele>6.8</ele>
        <time>2020-07-12T13:55:06Z</time>
      </trkpt>
      <trkpt lat="51.272552356952" lon="4.620406034228">
        <ele>7.2</ele>
        <time>2020-07-12T13:55:14Z</time>
      </trkpt>
      <trkpt lat="51.272012646411" lon="4.62003790118">
        <ele>6.6</ele>
        <time>2020-07-12T13:55:23Z</time>
      </trkpt>
      <trkpt lat="51.271794130278" lon="4.619881075831">
        <ele>6.6</ele>
        <time>2020-07-12T13:55:27Z</time>
      </trkpt>
      <trkpt lat="51.272036367188" lon="4.618703083605">
        <ele>10</ele>
        <time>2020-07-12T13:55:59Z</time>
      </trkpt>
      <trkpt lat="51.272441380596" lon="4.618030939044">
        <ele>7.6</ele>
        <time>2020-07-12T13:56:10Z</time>
      </trkpt>
      <trkpt lat="51.272778752071" lon="4.617507154113">
        <ele>8.8</ele>
        <time>2020-07-12T13:56:17Z</time>
      </trkpt>
      <trkpt lat="51.273296250577" lon="4.617066433811">
        <ele>6.8</ele>
        <time>2020-07-12T13:56:26Z</time>
      </trkpt>
      <trkpt lat="51.273479059816" lon="4.616866693134">
        <ele>6.2</ele>
        <time>2020-07-12T13:56:30Z</time>
      </trkpt>
      <trkpt lat="51.273528429207" lon="4.616734678209">
        <ele>4.4</ele>
        <time>2020-07-12T13:56:32Z</time>
      </trkpt>
      <trkpt lat="51.273499846928" lon="4.616599981076">
        <ele>2.6</ele>
        <time>2020-07-12T13:56:34Z</time>
      </trkpt>
      <trkpt lat="51.273454165573" lon="4.616442485175">
        <ele>0.6</ele>
        <time>2020-07-12T13:56:36Z</time>
      </trkpt>
      <trkpt lat="51.273447292415" lon="4.616267387284">
        <ele>0</ele>
        <time>2020-07-12T13:56:38Z</time>
      </trkpt>
      <trkpt lat="51.273470594097" lon="4.615815519055">
        <ele>0</ele>
        <time>2020-07-12T13:56:43Z</time>
      </trkpt>
      <trkpt lat="51.273443101465" lon="4.615644360657">
        <ele>0</ele>
        <time>2020-07-12T13:56:45Z</time>
      </trkpt>
      <trkpt lat="51.273378812292" lon="4.615475800648">
        <ele>0</ele>
        <time>2020-07-12T13:56:47Z</time>
      </trkpt>
      <trkpt lat="51.273044206844" lon="4.614711958101">
        <ele>0</ele>
        <time>2020-07-12T13:56:58Z</time>
      </trkpt>
      <trkpt lat="51.272725024092" lon="4.614004441922">
        <ele>0</ele>
        <time>2020-07-12T13:57:06Z</time>
      </trkpt>
      <trkpt lat="51.272423862425" lon="4.613254848605">
        <ele>0</ele>
        <time>2020-07-12T13:57:15Z</time>
      </trkpt>
      <trkpt lat="51.272190594148" lon="4.612694015676">
        <ele>0</ele>
        <time>2020-07-12T13:57:23Z</time>
      </trkpt>
      <trkpt lat="51.272122868396" lon="4.612563006579">
        <ele>0</ele>
        <time>2020-07-12T13:57:25Z</time>
      </trkpt>
      <trkpt lat="51.271898987847" lon="4.612207111105">
        <ele>0</ele>
        <time>2020-07-12T13:57:32Z</time>
      </trkpt>
      <trkpt lat="51.271525490383" lon="4.612293109399">
        <ele>0</ele>
        <time>2020-07-12T13:57:39Z</time>
      </trkpt>
      <trkpt lat="51.271310829924" lon="4.612241309257">
        <ele>0</ele>
        <time>2020-07-12T13:57:43Z</time>
      </trkpt>
      <trkpt lat="51.271108490858" lon="4.61209185998">
        <ele>0</ele>
        <time>2020-07-12T13:57:47Z</time>
      </trkpt>
      <trkpt lat="51.270994999932" lon="4.611932436242">
        <ele>0</ele>
        <time>2020-07-12T13:57:50Z</time>
      </trkpt>
      <trkpt lat="51.270887711612" lon="4.61164929566">
        <ele>0</ele>
        <time>2020-07-12T13:57:54Z</time>
      </trkpt>
      <trkpt lat="51.270853345822" lon="4.611391552235">
        <ele>0</ele>
        <time>2020-07-12T13:57:57Z</time>
      </trkpt>
      <trkpt lat="51.27085686622" lon="4.611207401892">
        <ele>0</ele>
        <time>2020-07-12T13:57:59Z</time>
      </trkpt>
      <trkpt lat="51.270873881477" lon="4.610939097273">
        <ele>0</ele>
        <time>2020-07-12T13:58:02Z</time>
      </trkpt>
      <trkpt lat="51.270834318909" lon="4.610785205589">
        <ele>0</ele>
        <time>2020-07-12T13:58:04Z</time>
      </trkpt>
      <trkpt lat="51.270731724453" lon="4.610691076852">
        <ele>0</ele>
        <time>2020-07-12T13:58:06Z</time>
      </trkpt>
      <trkpt lat="51.2702466639" lon="4.610357225775">
        <ele>4.2</ele>
        <time>2020-07-12T13:58:16Z</time>
      </trkpt>
      <trkpt lat="51.269724806806" lon="4.609998480455">
        <ele>6</ele>
        <time>2020-07-12T13:58:26Z</time>
      </trkpt>
      <trkpt lat="51.269201105694" lon="4.609643926085">
        <ele>6.2</ele>
        <time>2020-07-12T13:58:35Z</time>
      </trkpt>
      <trkpt lat="51.268687965776" lon="4.609289287896">
        <ele>7</ele>
        <time>2020-07-12T13:58:44Z</time>
      </trkpt>
      <trkpt lat="51.268190500011" lon="4.608929620567">
        <ele>1.2</ele>
        <time>2020-07-12T13:58:54Z</time>
      </trkpt>
      <trkpt lat="51.268002158718" lon="4.608832474346">
        <ele>1</ele>
        <time>2020-07-12T13:58:57Z</time>
      </trkpt>
      <trkpt lat="51.267879363883" lon="4.608783356412">
        <ele>1.2</ele>
        <time>2020-07-12T13:58:59Z</time>
      </trkpt>
      <trkpt lat="51.267723544362" lon="4.608665674536">
        <ele>2.8</ele>
        <time>2020-07-12T13:59:02Z</time>
      </trkpt>
      <trkpt lat="51.267195484662" lon="4.608392508415">
        <ele>11</ele>
        <time>2020-07-12T13:59:11Z</time>
      </trkpt>
      <trkpt lat="51.266683099115" lon="4.607950866104">
        <ele>11</ele>
        <time>2020-07-12T13:59:20Z</time>
      </trkpt>
      <trkpt lat="51.266630293145" lon="4.607883391809">
        <ele>11</ele>
        <time>2020-07-12T13:59:21Z</time>
      </trkpt>
      <trkpt lat="51.266114051924" lon="4.607448957932">
        <ele>6.8</ele>
        <time>2020-07-12T13:59:31Z</time>
      </trkpt>
      <trkpt lat="51.266057893194" lon="4.607416100884">
        <ele>6.2</ele>
        <time>2020-07-12T13:59:32Z</time>
      </trkpt>
      <trkpt lat="51.265555733565" lon="4.607029443837">
        <ele>3.4</ele>
        <time>2020-07-12T13:59:41Z</time>
      </trkpt>
      <trkpt lat="51.265041252543" lon="4.606731383473">
        <ele>1.8</ele>
        <time>2020-07-12T13:59:50Z</time>
      </trkpt>
      <trkpt lat="51.264647470881" lon="4.606440280086">
        <ele>2.4</ele>
        <time>2020-07-12T13:59:57Z</time>
      </trkpt>
      <trkpt lat="51.264226028949" lon="4.605776349787">
        <ele>0.4</ele>
        <time>2020-07-12T14:00:07Z</time>
      </trkpt>
      <trkpt lat="51.263861500118" lon="4.605089453082">
        <ele>0</ele>
        <time>2020-07-12T14:00:17Z</time>
      </trkpt>
      <trkpt lat="51.263524463919" lon="4.604316977178">
        <ele>1.2</ele>
        <time>2020-07-12T14:00:28Z</time>
      </trkpt>
      <trkpt lat="51.263180386924" lon="4.603649945576">
        <ele>1.6</ele>
        <time>2020-07-12T14:00:37Z</time>
      </trkpt>
      <trkpt lat="51.262846871123" lon="4.602948548184">
        <ele>0</ele>
        <time>2020-07-12T14:00:47Z</time>
      </trkpt>
      <trkpt lat="51.262517797729" lon="4.602267854085">
        <ele>4.2</ele>
        <time>2020-07-12T14:00:56Z</time>
      </trkpt>
      <trkpt lat="51.262138600573" lon="4.601591937669">
        <ele>5</ele>
        <time>2020-07-12T14:01:05Z</time>
      </trkpt>
      <trkpt lat="51.261801732012" lon="4.600901772023">
        <ele>4.8</ele>
        <time>2020-07-12T14:01:14Z</time>
      </trkpt>
      <trkpt lat="51.261637865867" lon="4.600548391119">
        <ele>4.4</ele>
        <time>2020-07-12T14:01:19Z</time>
      </trkpt>
      <trkpt lat="51.261382217917" lon="4.599712296594">
        <ele>2.8</ele>
        <time>2020-07-12T14:01:29Z</time>
      </trkpt>
      <trkpt lat="51.261154230237" lon="4.598868406902">
        <ele>1.8</ele>
        <time>2020-07-12T14:01:39Z</time>
      </trkpt>
      <trkpt lat="51.260913082974" lon="4.598067013443">
        <ele>1.4</ele>
        <time>2020-07-12T14:01:48Z</time>
      </trkpt>
      <trkpt lat="51.260666906571" lon="4.597272157866">
        <ele>0</ele>
        <time>2020-07-12T14:01:58Z</time>
      </trkpt>
      <trkpt lat="51.260414359924" lon="4.5964747039">
        <ele>0</ele>
        <time>2020-07-12T14:02:08Z</time>
      </trkpt>
      <trkpt lat="51.260189557366" lon="4.595660067039">
        <ele>0</ele>
        <time>2020-07-12T14:02:20Z</time>
      </trkpt>
      <trkpt lat="51.259952601053" lon="4.594865965833">
        <ele>0</ele>
        <time>2020-07-12T14:02:29Z</time>
      </trkpt>
      <trkpt lat="51.259692929791" lon="4.594067925134">
        <ele>0</ele>
        <time>2020-07-12T14:02:38Z</time>
      </trkpt>
      <trkpt lat="51.259675076344" lon="4.593987039799">
        <ele>0</ele>
        <time>2020-07-12T14:02:39Z</time>
      </trkpt>
      <trkpt lat="51.259655546517" lon="4.593812696279">
        <ele>0</ele>
        <time>2020-07-12T14:02:41Z</time>
      </trkpt>
      <trkpt lat="51.259689996126" lon="4.592886580148">
        <ele>0</ele>
        <time>2020-07-12T14:02:51Z</time>
      </trkpt>
      <trkpt lat="51.259659905105" lon="4.592025423742">
        <ele>0</ele>
        <time>2020-07-12T14:03:02Z</time>
      </trkpt>
      <trkpt lat="51.259611960637" lon="4.59124775106">
        <ele>0</ele>
        <time>2020-07-12T14:03:16Z</time>
      </trkpt>
      <trkpt lat="51.259937848909" lon="4.590472341491">
        <ele>0</ele>
        <time>2020-07-12T14:03:27Z</time>
      </trkpt>
      <trkpt lat="51.260190479375" lon="4.589685029624">
        <ele>0</ele>
        <time>2020-07-12T14:03:36Z</time>
      </trkpt>
      <trkpt lat="51.260429447344" lon="4.588896209015">
        <ele>0</ele>
        <time>2020-07-12T14:03:45Z</time>
      </trkpt>
      <trkpt lat="51.260698171058" lon="4.58805173259">
        <ele>0</ele>
        <time>2020-07-12T14:03:55Z</time>
      </trkpt>
      <trkpt lat="51.260852314199" lon="4.587460641002">
        <ele>0</ele>
        <time>2020-07-12T14:04:02Z</time>
      </trkpt>
      <trkpt lat="51.260909814033" lon="4.586990500231">
        <ele>0</ele>
        <time>2020-07-12T14:04:09Z</time>
      </trkpt>
      <trkpt lat="51.261128581623" lon="4.586108472894">
        <ele>0</ele>
        <time>2020-07-12T14:04:20Z</time>
      </trkpt>
      <trkpt lat="51.26133838058" lon="4.585228121937">
        <ele>0</ele>
        <time>2020-07-12T14:04:31Z</time>
      </trkpt>
      <trkpt lat="51.261513478471" lon="4.584355649966">
        <ele>0</ele>
        <time>2020-07-12T14:04:43Z</time>
      </trkpt>
      <trkpt lat="51.261620599153" lon="4.583805378231">
        <ele>0</ele>
        <time>2020-07-12T14:04:52Z</time>
      </trkpt>
      <trkpt lat="51.261743645445" lon="4.583322245515">
        <ele>0</ele>
        <time>2020-07-12T14:05:00Z</time>
      </trkpt>
      <trkpt lat="51.261913714196" lon="4.582425382215">
        <ele>0</ele>
        <time>2020-07-12T14:05:13Z</time>
      </trkpt>
      <trkpt lat="51.262115801805" lon="4.581625497498">
        <ele>0</ele>
        <time>2020-07-12T14:05:25Z</time>
      </trkpt>
      <trkpt lat="51.262251756223" lon="4.581081512188">
        <ele>0</ele>
        <time>2020-07-12T14:05:33Z</time>
      </trkpt>
      <trkpt lat="51.262629109361" lon="4.579338831359">
        <ele>0</ele>
        <time>2020-07-12T14:06:05Z</time>
      </trkpt>
      <trkpt lat="51.262770344376" lon="4.578954185968">
        <ele>0</ele>
        <time>2020-07-12T14:06:13Z</time>
      </trkpt>
      <trkpt lat="51.262815103722" lon="4.578807083623">
        <ele>0</ele>
        <time>2020-07-12T14:06:15Z</time>
      </trkpt>
      <trkpt lat="51.263010066716" lon="4.577934360195">
        <ele>0</ele>
        <time>2020-07-12T14:06:23Z</time>
      </trkpt>
      <trkpt lat="51.263168316988" lon="4.577003969295">
        <ele>0</ele>
        <time>2020-07-12T14:06:31Z</time>
      </trkpt>
      <trkpt lat="51.263281137362" lon="4.576282287705">
        <ele>0</ele>
        <time>2020-07-12T14:06:38Z</time>
      </trkpt>
      <trkpt lat="51.263279125706" lon="4.576104256149">
        <ele>0</ele>
        <time>2020-07-12T14:06:40Z</time>
      </trkpt>
      <trkpt lat="51.263298823171" lon="4.575918177969">
        <ele>0</ele>
        <time>2020-07-12T14:06:42Z</time>
      </trkpt>
      <trkpt lat="51.263459588013" lon="4.575004802326">
        <ele>0</ele>
        <time>2020-07-12T14:06:51Z</time>
      </trkpt>
      <trkpt lat="51.263625214357" lon="4.574158900978">
        <ele>0</ele>
        <time>2020-07-12T14:07:00Z</time>
      </trkpt>
      <trkpt lat="51.263788242312" lon="4.573310987974">
        <ele>0</ele>
        <time>2020-07-12T14:07:10Z</time>
      </trkpt>
      <trkpt lat="51.263963172565" lon="4.57244547298">
        <ele>0</ele>
        <time>2020-07-12T14:07:21Z</time>
      </trkpt>
      <trkpt lat="51.263948085145" lon="4.571591441189">
        <ele>0</ele>
        <time>2020-07-12T14:07:33Z</time>
      </trkpt>
      <trkpt lat="51.263947833688" lon="4.570627522689">
        <ele>0</ele>
        <time>2020-07-12T14:07:44Z</time>
      </trkpt>
      <trkpt lat="51.263920341056" lon="4.569694784857">
        <ele>0</ele>
        <time>2020-07-12T14:07:52Z</time>
      </trkpt>
      <trkpt lat="51.26390659474" lon="4.568985843755">
        <ele>0</ele>
        <time>2020-07-12T14:08:00Z</time>
      </trkpt>
      <trkpt lat="51.263856890073" lon="4.568581500899">
        <ele>0</ele>
        <time>2020-07-12T14:08:05Z</time>
      </trkpt>
      <trkpt lat="51.263710877375" lon="4.567679608459">
        <ele>0</ele>
        <time>2020-07-12T14:08:15Z</time>
      </trkpt>
      <trkpt lat="51.263577018432" lon="4.566782493702">
        <ele>0</ele>
        <time>2020-07-12T14:08:25Z</time>
      </trkpt>
      <trkpt lat="51.263449865009" lon="4.565939526019">
        <ele>0</ele>
        <time>2020-07-12T14:08:34Z</time>
      </trkpt>
      <trkpt lat="51.263326148165" lon="4.565076190319">
        <ele>0</ele>
        <time>2020-07-12T14:08:44Z</time>
      </trkpt>
      <trkpt lat="51.263194636154" lon="4.564178824105">
        <ele>0</ele>
        <time>2020-07-12T14:08:54Z</time>
      </trkpt>
      <trkpt lat="51.2630466118" lon="4.563409617142">
        <ele>0</ele>
        <time>2020-07-12T14:09:03Z</time>
      </trkpt>
      <trkpt lat="51.262970923243" lon="4.562650049364">
        <ele>0</ele>
        <time>2020-07-12T14:09:40Z</time>
      </trkpt>
      <trkpt lat="51.262935383987" lon="4.562354168294">
        <ele>0</ele>
        <time>2020-07-12T14:09:44Z</time>
      </trkpt>
      <trkpt lat="51.26294351443" lon="4.561399888979">
        <ele>0</ele>
        <time>2020-07-12T14:09:54Z</time>
      </trkpt>
      <trkpt lat="51.263057675908" lon="4.560531691777">
        <ele>0</ele>
        <time>2020-07-12T14:10:03Z</time>
      </trkpt>
      <trkpt lat="51.263117690312" lon="4.559665170955">
        <ele>0</ele>
        <time>2020-07-12T14:10:12Z</time>
      </trkpt>
      <trkpt lat="51.263148200428" lon="4.558740395928">
        <ele>0</ele>
        <time>2020-07-12T14:10:21Z</time>
      </trkpt>
      <trkpt lat="51.263170328644" lon="4.557872031088">
        <ele>0</ele>
        <time>2020-07-12T14:10:31Z</time>
      </trkpt>
      <trkpt lat="51.2631807222" lon="4.55765225767">
        <ele>0.6</ele>
        <time>2020-07-12T14:10:34Z</time>
      </trkpt>
      <trkpt lat="51.263182314761" lon="4.556727650281">
        <ele>3.2</ele>
        <time>2020-07-12T14:10:48Z</time>
      </trkpt>
      <trkpt lat="51.263211399954" lon="4.555843276012">
        <ele>2.6</ele>
        <time>2020-07-12T14:10:58Z</time>
      </trkpt>
      <trkpt lat="51.263242329165" lon="4.555126539743">
        <ele>1</ele>
        <time>2020-07-12T14:11:06Z</time>
      </trkpt>
      <trkpt lat="51.2632393955" lon="4.554713395892">
        <ele>0.8</ele>
        <time>2020-07-12T14:11:12Z</time>
      </trkpt>
      <trkpt lat="51.26317150211" lon="4.554662182483">
        <ele>1.8</ele>
        <time>2020-07-12T14:11:14Z</time>
      </trkpt>
      <trkpt lat="51.262761291924" lon="4.554660087008">
        <ele>3.6</ele>
        <time>2020-07-12T14:11:23Z</time>
      </trkpt>
      <trkpt lat="51.262478738075" lon="4.554611723445">
        <ele>3.4</ele>
        <time>2020-07-12T14:11:30Z</time>
      </trkpt>
      <trkpt lat="51.261938356982" lon="4.554331767985">
        <ele>3.8</ele>
        <time>2020-07-12T14:11:41Z</time>
      </trkpt>
      <trkpt lat="51.261612887805" lon="4.554148791108">
        <ele>3.2</ele>
        <time>2020-07-12T14:11:47Z</time>
      </trkpt>
      <trkpt lat="51.261063789536" lon="4.553841343016">
        <ele>2.2</ele>
        <time>2020-07-12T14:11:59Z</time>
      </trkpt>
      <trkpt lat="51.260934708276" lon="4.553706562064">
        <ele>1.2</ele>
        <time>2020-07-12T14:12:02Z</time>
      </trkpt>
      <trkpt lat="51.260381251419" lon="4.553396264126">
        <ele>0</ele>
        <time>2020-07-12T14:12:11Z</time>
      </trkpt>
      <trkpt lat="51.260147144952" lon="4.553254945292">
        <ele>0</ele>
        <time>2020-07-12T14:12:15Z</time>
      </trkpt>
      <trkpt lat="51.259840367412" lon="4.553112872087">
        <ele>0</ele>
        <time>2020-07-12T14:12:20Z</time>
      </trkpt>
      <trkpt lat="51.259208791247" lon="4.552874993765">
        <ele>0.6</ele>
        <time>2020-07-12T14:12:31Z</time>
      </trkpt>
      <trkpt lat="51.258642845359" lon="4.55268933468">
        <ele>1.2</ele>
        <time>2020-07-12T14:12:40Z</time>
      </trkpt>
      <trkpt lat="51.258065667725" lon="4.552512728047">
        <ele>1.8</ele>
        <time>2020-07-12T14:12:50Z</time>
      </trkpt>
      <trkpt lat="51.25755143816" lon="4.552247524731">
        <ele>0</ele>
        <time>2020-07-12T14:12:59Z</time>
      </trkpt>
      <trkpt lat="51.25739553482" lon="4.552195556951">
        <ele>0.2</ele>
        <time>2020-07-12T14:13:02Z</time>
      </trkpt>
      <trkpt lat="51.257252707244" lon="4.552306030393">
        <ele>0.8</ele>
        <time>2020-07-12T14:13:06Z</time>
      </trkpt>
      <trkpt lat="51.257230579028" lon="4.552464364484">
        <ele>1</ele>
        <time>2020-07-12T14:13:08Z</time>
      </trkpt>
      <trkpt lat="51.25720778026" lon="4.552618675263">
        <ele>1.4</ele>
        <time>2020-07-12T14:13:10Z</time>
      </trkpt>
      <trkpt lat="51.257117507197" lon="4.552709786516">
        <ele>1.2</ele>
        <time>2020-07-12T14:13:13Z</time>
      </trkpt>
      <trkpt lat="51.256594811913" lon="4.552354310137">
        <ele>0</ele>
        <time>2020-07-12T14:13:22Z</time>
      </trkpt>
      <trkpt lat="51.256040265409" lon="4.552035881756">
        <ele>0</ele>
        <time>2020-07-12T14:13:31Z</time>
      </trkpt>
      <trkpt lat="51.255520755247" lon="4.551755171925">
        <ele>0</ele>
        <time>2020-07-12T14:13:41Z</time>
      </trkpt>
      <trkpt lat="51.254944164346" lon="4.551497847595">
        <ele>0</ele>
        <time>2020-07-12T14:13:51Z</time>
      </trkpt>
      <trkpt lat="51.254816172733" lon="4.551440934494">
        <ele>0</ele>
        <time>2020-07-12T14:13:53Z</time>
      </trkpt>
      <trkpt lat="51.254272522699" lon="4.551067604668">
        <ele>0</ele>
        <time>2020-07-12T14:14:03Z</time>
      </trkpt>
      <trkpt lat="51.253776398038" lon="4.550804664465">
        <ele>0</ele>
        <time>2020-07-12T14:14:13Z</time>
      </trkpt>
      <trkpt lat="51.253340203962" lon="4.550858224806">
        <ele>0</ele>
        <time>2020-07-12T14:14:22Z</time>
      </trkpt>
      <trkpt lat="51.253282368852" lon="4.550777171833">
        <ele>0</ele>
        <time>2020-07-12T14:14:24Z</time>
      </trkpt>
      <trkpt lat="51.253187401925" lon="4.549927163354">
        <ele>0</ele>
        <time>2020-07-12T14:14:34Z</time>
      </trkpt>
      <trkpt lat="51.25305790157" lon="4.549064665844">
        <ele>0</ele>
        <time>2020-07-12T14:14:43Z</time>
      </trkpt>
      <trkpt lat="51.252934184726" lon="4.548136035143">
        <ele>0</ele>
        <time>2020-07-12T14:14:51Z</time>
      </trkpt>
      <trkpt lat="51.252827147863" lon="4.547218720007">
        <ele>0</ele>
        <time>2020-07-12T14:15:00Z</time>
      </trkpt>
      <trkpt lat="51.25271340548" lon="4.546286568908">
        <ele>0</ele>
        <time>2020-07-12T14:15:11Z</time>
      </trkpt>
      <trkpt lat="51.2526530558" lon="4.5455462795">
        <ele>0</ele>
        <time>2020-07-12T14:15:26Z</time>
      </trkpt>
      <trkpt lat="51.252390367054" lon="4.545398925698">
        <ele>0</ele>
        <time>2020-07-12T14:15:32Z</time>
      </trkpt>
      <trkpt lat="51.252298752887" lon="4.545326086987">
        <ele>0</ele>
        <time>2020-07-12T14:15:34Z</time>
      </trkpt>
      <trkpt lat="51.252199259734" lon="4.545296079785">
        <ele>0</ele>
        <time>2020-07-12T14:15:36Z</time>
      </trkpt>
      <trkpt lat="51.251688131472" lon="4.545024506225">
        <ele>0</ele>
        <time>2020-07-12T14:15:46Z</time>
      </trkpt>
      <trkpt lat="51.251177422305" lon="4.544707418948">
        <ele>0</ele>
        <time>2020-07-12T14:15:55Z</time>
      </trkpt>
      <trkpt lat="51.250694792503" lon="4.544312882915">
        <ele>0</ele>
        <time>2020-07-12T14:16:04Z</time>
      </trkpt>
      <trkpt lat="51.25022062842" lon="4.543863864532">
        <ele>0</ele>
        <time>2020-07-12T14:16:13Z</time>
      </trkpt>
      <trkpt lat="51.249741519016" lon="4.543415013787">
        <ele>0</ele>
        <time>2020-07-12T14:16:22Z</time>
      </trkpt>
      <trkpt lat="51.249204323045" lon="4.543023914333">
        <ele>0</ele>
        <time>2020-07-12T14:16:32Z</time>
      </trkpt>
      <trkpt lat="51.248727728211" lon="4.542608507369">
        <ele>2.4</ele>
        <time>2020-07-12T14:16:42Z</time>
      </trkpt>
      <trkpt lat="51.248223473107" lon="4.542212714051">
        <ele>7.4</ele>
        <time>2020-07-12T14:16:51Z</time>
      </trkpt>
      <trkpt lat="51.247701616013" lon="4.541760007632">
        <ele>8.6</ele>
        <time>2020-07-12T14:17:00Z</time>
      </trkpt>
      <trkpt lat="51.247197193271" lon="4.541259859659">
        <ele>6.6</ele>
        <time>2020-07-12T14:17:09Z</time>
      </trkpt>
      <trkpt lat="51.246801735229" lon="4.540753760537">
        <ele>0</ele>
        <time>2020-07-12T14:17:18Z</time>
      </trkpt>
      <trkpt lat="51.246334276666" lon="4.540309016923">
        <ele>0</ele>
        <time>2020-07-12T14:17:27Z</time>
      </trkpt>
      <trkpt lat="51.245792554469" lon="4.539979608253">
        <ele>0</ele>
        <time>2020-07-12T14:17:37Z</time>
      </trkpt>
      <trkpt lat="51.245233649377" lon="4.539813646633">
        <ele>0</ele>
        <time>2020-07-12T14:17:48Z</time>
      </trkpt>
      <trkpt lat="51.244654627725" lon="4.539652714153">
        <ele>0</ele>
        <time>2020-07-12T14:17:59Z</time>
      </trkpt>
      <trkpt lat="51.244085664353" lon="4.539509216025">
        <ele>0</ele>
        <time>2020-07-12T14:18:10Z</time>
      </trkpt>
      <trkpt lat="51.243646536612" lon="4.539397150022">
        <ele>0</ele>
        <time>2020-07-12T14:18:19Z</time>
      </trkpt>
      <trkpt lat="51.243100623465" lon="4.539281312164">
        <ele>0</ele>
        <time>2020-07-12T14:18:29Z</time>
      </trkpt>
      <trkpt lat="51.242524284021" lon="4.539102777694">
        <ele>0</ele>
        <time>2020-07-12T14:18:38Z</time>
      </trkpt>
      <trkpt lat="51.241982813281" lon="4.538969924579">
        <ele>0</ele>
        <time>2020-07-12T14:18:49Z</time>
      </trkpt>
      <trkpt lat="51.241808469761" lon="4.538892056728">
        <ele>0</ele>
        <time>2020-07-12T14:18:53Z</time>
      </trkpt>
      <trkpt lat="51.241766308804" lon="4.538812093402">
        <ele>0</ele>
        <time>2020-07-12T14:18:55Z</time>
      </trkpt>
      <trkpt lat="51.241789694305" lon="4.538734560827">
        <ele>0</ele>
        <time>2020-07-12T14:18:57Z</time>
      </trkpt>
      <trkpt lat="51.241904861611" lon="4.538601372436">
        <ele>0</ele>
        <time>2020-07-12T14:19:00Z</time>
      </trkpt>
      <trkpt lat="51.24235672984" lon="4.538076162582">
        <ele>0</ele>
        <time>2020-07-12T14:19:10Z</time>
      </trkpt>
      <trkpt lat="51.242790493165" lon="4.53747786256">
        <ele>0</ele>
        <time>2020-07-12T14:19:21Z</time>
      </trkpt>
      <trkpt lat="51.243192153813" lon="4.536892470664">
        <ele>0</ele>
        <time>2020-07-12T14:19:35Z</time>
      </trkpt>
      <trkpt lat="51.243368928084" lon="4.53661787962">
        <ele>0</ele>
        <time>2020-07-12T14:19:41Z</time>
      </trkpt>
      <trkpt lat="51.243703617351" lon="4.535932575476">
        <ele>0</ele>
        <time>2020-07-12T14:19:51Z</time>
      </trkpt>
      <trkpt lat="51.244082227774" lon="4.53519211843">
        <ele>0</ele>
        <time>2020-07-12T14:20:01Z</time>
      </trkpt>
      <trkpt lat="51.244157916331" lon="4.535040238402">
        <ele>0</ele>
        <time>2020-07-12T14:20:03Z</time>
      </trkpt>
      <trkpt lat="51.244411384987" lon="4.534257955675">
        <ele>0</ele>
        <time>2020-07-12T14:20:13Z</time>
      </trkpt>
      <trkpt lat="51.244517248384" lon="4.533385316066">
        <ele>0</ele>
        <time>2020-07-12T14:20:23Z</time>
      </trkpt>
      <trkpt lat="51.244605677429" lon="4.53253337975">
        <ele>0</ele>
        <time>2020-07-12T14:20:33Z</time>
      </trkpt>
      <trkpt lat="51.244913628435" lon="4.531824354829">
        <ele>0</ele>
        <time>2020-07-12T14:20:45Z</time>
      </trkpt>
      <trkpt lat="51.244952185175" lon="4.531773644334">
        <ele>0</ele>
        <time>2020-07-12T14:20:46Z</time>
      </trkpt>
      <trkpt lat="51.245427941819" lon="4.531367708917">
        <ele>0</ele>
        <time>2020-07-12T14:20:57Z</time>
      </trkpt>
      <trkpt lat="51.245639668613" lon="4.531486312802">
        <ele>0</ele>
        <time>2020-07-12T14:21:03Z</time>
      </trkpt>
      <trkpt lat="51.245831697942" lon="4.531814715644">
        <ele>0</ele>
        <time>2020-07-12T14:21:08Z</time>
      </trkpt>
      <trkpt lat="51.245998497752" lon="4.532153428223">
        <ele>0</ele>
        <time>2020-07-12T14:21:13Z</time>
      </trkpt>
      <trkpt lat="51.246075359775" lon="4.532199612492">
        <ele>0</ele>
        <time>2020-07-12T14:21:15Z</time>
      </trkpt>
      <trkpt lat="51.24617300891" lon="4.532162815951">
        <ele>0</ele>
        <time>2020-07-12T14:21:17Z</time>
      </trkpt>
      <trkpt lat="51.246689920683" lon="4.531848829977">
        <ele>0</ele>
        <time>2020-07-12T14:21:26Z</time>
      </trkpt>
      <trkpt lat="51.247195013977" lon="4.531483462956">
        <ele>0</ele>
        <time>2020-07-12T14:21:37Z</time>
      </trkpt>
      <trkpt lat="51.247702118927" lon="4.531043413206">
        <ele>4.4</ele>
        <time>2020-07-12T14:21:50Z</time>
      </trkpt>
      <trkpt lat="51.2482357945" lon="4.530648625716">
        <ele>11.4</ele>
        <time>2020-07-12T14:22:01Z</time>
      </trkpt>
      <trkpt lat="51.248373760574" lon="4.530545276889">
        <ele>12.2</ele>
        <time>2020-07-12T14:22:04Z</time>
      </trkpt>
      <trkpt lat="51.248892600184" lon="4.530214694753">
        <ele>8.8</ele>
        <time>2020-07-12T14:22:13Z</time>
      </trkpt>
      <trkpt lat="51.249339187816" lon="4.529767939483">
        <ele>0</ele>
        <time>2020-07-12T14:22:24Z</time>
      </trkpt>
      <trkpt lat="51.249381851687" lon="4.528908291819">
        <ele>0</ele>
        <time>2020-07-12T14:22:36Z</time>
      </trkpt>
      <trkpt lat="51.249393083433" lon="4.527973207055">
        <ele>0</ele>
        <time>2020-07-12T14:22:47Z</time>
      </trkpt>
      <trkpt lat="51.249391490872" lon="4.527087491682">
        <ele>0</ele>
        <time>2020-07-12T14:22:57Z</time>
      </trkpt>
      <trkpt lat="51.24946122828" lon="4.526169422175">
        <ele>0</ele>
        <time>2020-07-12T14:23:09Z</time>
      </trkpt>
      <trkpt lat="51.249532642068" lon="4.525267278278">
        <ele>0</ele>
        <time>2020-07-12T14:23:20Z</time>
      </trkpt>
      <trkpt lat="51.249597769431" lon="4.524403858759">
        <ele>0</ele>
        <time>2020-07-12T14:23:31Z</time>
      </trkpt>
      <trkpt lat="51.249581005631" lon="4.524330265677">
        <ele>0</ele>
        <time>2020-07-12T14:23:32Z</time>
      </trkpt>
      <trkpt lat="51.249327453156" lon="4.523523507802">
        <ele>0</ele>
        <time>2020-07-12T14:23:43Z</time>
      </trkpt>
      <trkpt lat="51.249021513806" lon="4.522797719081">
        <ele>0</ele>
        <time>2020-07-12T14:23:53Z</time>
      </trkpt>
      <trkpt lat="51.248716412646" lon="4.521988781912">
        <ele>0</ele>
        <time>2020-07-12T14:24:05Z</time>
      </trkpt>
      <trkpt lat="51.248418771377" lon="4.52120356552">
        <ele>0</ele>
        <time>2020-07-12T14:24:15Z</time>
      </trkpt>
      <trkpt lat="51.248140492297" lon="4.520448440149">
        <ele>0</ele>
        <time>2020-07-12T14:24:24Z</time>
      </trkpt>
      <trkpt lat="51.247923317268" lon="4.519663139938">
        <ele>0</ele>
        <time>2020-07-12T14:24:33Z</time>
      </trkpt>
      <trkpt lat="51.247810664532" lon="4.518797708763">
        <ele>0</ele>
        <time>2020-07-12T14:24:42Z</time>
      </trkpt>
      <trkpt lat="51.247786273203" lon="4.518559159889">
        <ele>0</ele>
        <time>2020-07-12T14:24:45Z</time>
      </trkpt>
      <trkpt lat="51.247716451976" lon="4.517636145061">
        <ele>0</ele>
        <time>2020-07-12T14:24:56Z</time>
      </trkpt>
      <trkpt lat="51.247646044016" lon="4.516707933455">
        <ele>0</ele>
        <time>2020-07-12T14:25:07Z</time>
      </trkpt>
      <trkpt lat="51.247646630749" lon="4.516626042292">
        <ele>0</ele>
        <time>2020-07-12T14:25:08Z</time>
      </trkpt>
      <trkpt lat="51.247663143092" lon="4.516475419549">
        <ele>0</ele>
        <time>2020-07-12T14:25:10Z</time>
      </trkpt>
      <trkpt lat="51.247624921628" lon="4.516351032153">
        <ele>0</ele>
        <time>2020-07-12T14:25:13Z</time>
      </trkpt>
      <trkpt lat="51.247052018763" lon="4.516646913223">
        <ele>0</ele>
        <time>2020-07-12T14:25:25Z</time>
      </trkpt>
      <trkpt lat="51.246521109217" lon="4.516861825139">
        <ele>0</ele>
        <time>2020-07-12T14:25:34Z</time>
      </trkpt>
      <trkpt lat="51.245989529119" lon="4.517085035136">
        <ele>0</ele>
        <time>2020-07-12T14:25:44Z</time>
      </trkpt>
      <trkpt lat="51.245937393701" lon="4.51711822746">
        <ele>0</ele>
        <time>2020-07-12T14:25:45Z</time>
      </trkpt>
      <trkpt lat="51.245578229286" lon="4.517416287824">
        <ele>0</ele>
        <time>2020-07-12T14:25:52Z</time>
      </trkpt>
      <trkpt lat="51.245318558024" lon="4.517709654324">
        <ele>0</ele>
        <time>2020-07-12T14:25:57Z</time>
      </trkpt>
      <trkpt lat="51.244858643171" lon="4.518115338284">
        <ele>0</ele>
        <time>2020-07-12T14:26:05Z</time>
      </trkpt>
      <trkpt lat="51.244254978733" lon="4.518608110185">
        <ele>0</ele>
        <time>2020-07-12T14:26:16Z</time>
      </trkpt>
      <trkpt lat="51.243805541255" lon="4.519027289004">
        <ele>0</ele>
        <time>2020-07-12T14:26:24Z</time>
      </trkpt>
      <trkpt lat="51.243713340355" lon="4.519123094121">
        <ele>0</ele>
        <time>2020-07-12T14:26:26Z</time>
      </trkpt>
      <trkpt lat="51.243621055636" lon="4.519229460432">
        <ele>0</ele>
        <time>2020-07-12T14:26:28Z</time>
      </trkpt>
      <trkpt lat="51.243128619011" lon="4.519712090234">
        <ele>0</ele>
        <time>2020-07-12T14:26:36Z</time>
      </trkpt>
      <trkpt lat="51.242601900415" lon="4.520152894355">
        <ele>0</ele>
        <time>2020-07-12T14:26:44Z</time>
      </trkpt>
      <trkpt lat="51.24211868388" lon="4.520615239959">
        <ele>0</ele>
        <time>2020-07-12T14:26:54Z</time>
      </trkpt>
      <trkpt lat="51.24161325531" lon="4.521127457868">
        <ele>0</ele>
        <time>2020-07-12T14:27:04Z</time>
      </trkpt>
      <trkpt lat="51.241121405418" lon="4.521572117663">
        <ele>0</ele>
        <time>2020-07-12T14:27:14Z</time>
      </trkpt>
      <trkpt lat="51.240648414801" lon="4.521995738889">
        <ele>0</ele>
        <time>2020-07-12T14:27:22Z</time>
      </trkpt>
      <trkpt lat="51.240401651665" lon="4.522227582243">
        <ele>0</ele>
        <time>2020-07-12T14:27:27Z</time>
      </trkpt>
      <trkpt lat="51.239860767658" lon="4.522576353102">
        <ele>0</ele>
        <time>2020-07-12T14:27:38Z</time>
      </trkpt>
      <trkpt lat="51.239281494549" lon="4.522774501218">
        <ele>0</ele>
        <time>2020-07-12T14:27:48Z</time>
      </trkpt>
      <trkpt lat="51.238988211868" lon="4.522793360493">
        <ele>0</ele>
        <time>2020-07-12T14:27:53Z</time>
      </trkpt>
      <trkpt lat="51.238871200544" lon="4.52279696471">
        <ele>0</ele>
        <time>2020-07-12T14:27:55Z</time>
      </trkpt>
      <trkpt lat="51.23830491938" lon="4.522860080417">
        <ele>0</ele>
        <time>2020-07-12T14:28:06Z</time>
      </trkpt>
      <trkpt lat="51.237736375103" lon="4.522909030713">
        <ele>0</ele>
        <time>2020-07-12T14:28:18Z</time>
      </trkpt>
      <trkpt lat="51.237171770319" lon="4.522948760919">
        <ele>0</ele>
        <time>2020-07-12T14:28:31Z</time>
      </trkpt>
      <trkpt lat="51.236670616518" lon="4.522723706904">
        <ele>0</ele>
        <time>2020-07-12T14:28:47Z</time>
      </trkpt>
      <trkpt lat="51.236402144261" lon="4.521926588214">
        <ele>0</ele>
        <time>2020-07-12T14:29:05Z</time>
      </trkpt>
      <trkpt lat="51.236164349758" lon="4.521141790917">
        <ele>0</ele>
        <time>2020-07-12T14:29:19Z</time>
      </trkpt>
      <trkpt lat="51.236008446418" lon="4.520587160594">
        <ele>0</ele>
        <time>2020-07-12T14:29:34Z</time>
      </trkpt>
      <trkpt lat="51.235633943126" lon="4.519742851807">
        <ele>0.4</ele>
        <time>2020-07-12T14:35:11Z</time>
      </trkpt>
      <trkpt lat="51.23532850669" lon="4.518984457495">
        <ele>0</ele>
        <time>2020-07-12T14:35:28Z</time>
      </trkpt>
      <trkpt lat="51.234982082763" lon="4.518253388177">
        <ele>0</ele>
        <time>2020-07-12T14:35:45Z</time>
      </trkpt>
      <trkpt lat="51.234871357864" lon="4.518028585619">
        <ele>0</ele>
        <time>2020-07-12T14:35:50Z</time>
      </trkpt>
      <trkpt lat="51.234766165019" lon="4.517609155343">
        <ele>0</ele>
        <time>2020-07-12T14:36:00Z</time>
      </trkpt>
      <trkpt lat="51.234612273335" lon="4.516721847409">
        <ele>0</ele>
        <time>2020-07-12T14:36:16Z</time>
      </trkpt>
      <trkpt lat="51.234594168431" lon="4.516588239923">
        <ele>0</ele>
        <time>2020-07-12T14:36:18Z</time>
      </trkpt>
      <trkpt lat="51.234291330384" lon="4.516157913177">
        <ele>0</ele>
        <time>2020-07-12T14:37:37Z</time>
      </trkpt>
      <trkpt lat="51.234091002974" lon="4.516590419217">
        <ele>0</ele>
        <time>2020-07-12T14:37:47Z</time>
      </trkpt>
      <trkpt lat="51.234049344931" lon="4.516712208224">
        <ele>0</ele>
        <time>2020-07-12T14:37:49Z</time>
      </trkpt>
      <trkpt lat="51.233877180705" lon="4.517591637172">
        <ele>0</ele>
        <time>2020-07-12T14:38:01Z</time>
      </trkpt>
      <trkpt lat="51.23384239582" lon="4.517727256314">
        <ele>0</ele>
        <time>2020-07-12T14:38:04Z</time>
      </trkpt>
      <trkpt lat="51.233851951186" lon="4.51768903485">
        <ele>0</ele>
        <time>2020-07-12T14:40:08Z</time>
      </trkpt>
      <trkpt lat="51.233900566206" lon="4.517430117959">
        <ele>0</ele>
        <time>2020-07-12T14:40:13Z</time>
      </trkpt>
      <trkpt lat="51.234121010176" lon="4.516622102799">
        <ele>0</ele>
        <time>2020-07-12T14:40:24Z</time>
      </trkpt>
      <trkpt lat="51.234408425527" lon="4.51581735658">
        <ele>0</ele>
        <time>2020-07-12T14:40:36Z</time>
      </trkpt>
      <trkpt lat="51.23466633659" lon="4.5149774902">
        <ele>0</ele>
        <time>2020-07-12T14:40:46Z</time>
      </trkpt>
      <trkpt lat="51.234908322043" lon="4.514203337916">
        <ele>0</ele>
        <time>2020-07-12T14:40:54Z</time>
      </trkpt>
      <trkpt lat="51.235165981649" lon="4.51341678042">
        <ele>0</ele>
        <time>2020-07-12T14:41:02Z</time>
      </trkpt>
      <trkpt lat="51.235419450305" lon="4.512644639792">
        <ele>0</ele>
        <time>2020-07-12T14:41:11Z</time>
      </trkpt>
      <trkpt lat="51.23566881183" lon="4.511820615203">
        <ele>0</ele>
        <time>2020-07-12T14:41:20Z</time>
      </trkpt>
      <trkpt lat="51.235926303798" lon="4.510985861782">
        <ele>0</ele>
        <time>2020-07-12T14:41:29Z</time>
      </trkpt>
      <trkpt lat="51.236197877358" lon="4.51014783942">
        <ele>0</ele>
        <time>2020-07-12T14:41:38Z</time>
      </trkpt>
      <trkpt lat="51.236431983825" lon="4.509358767354">
        <ele>0</ele>
        <time>2020-07-12T14:41:46Z</time>
      </trkpt>
      <trkpt lat="51.236677405857" lon="4.508540526276">
        <ele>0</ele>
        <time>2020-07-12T14:41:55Z</time>
      </trkpt>
      <trkpt lat="51.236902124596" lon="4.507729577451">
        <ele>0</ele>
        <time>2020-07-12T14:42:05Z</time>
      </trkpt>
      <trkpt lat="51.237153078682" lon="4.506952994416">
        <ele>0</ele>
        <time>2020-07-12T14:42:15Z</time>
      </trkpt>
      <trkpt lat="51.237368158236" lon="4.506164173807">
        <ele>0</ele>
        <time>2020-07-12T14:42:25Z</time>
      </trkpt>
      <trkpt lat="51.237586758188" lon="4.505359930502">
        <ele>0</ele>
        <time>2020-07-12T14:42:34Z</time>
      </trkpt>
      <trkpt lat="51.237800245181" lon="4.504517968647">
        <ele>0</ele>
        <time>2020-07-12T14:42:43Z</time>
      </trkpt>
      <trkpt lat="51.23799981822" lon="4.50363091217">
        <ele>0</ele>
        <time>2020-07-12T14:42:54Z</time>
      </trkpt>
      <trkpt lat="51.238172736817" lon="4.50276757647">
        <ele>0</ele>
        <time>2020-07-12T14:43:04Z</time>
      </trkpt>
      <trkpt lat="51.238336351505" lon="4.501967021201">
        <ele>0</ele>
        <time>2020-07-12T14:43:14Z</time>
      </trkpt>
      <trkpt lat="51.238466857688" lon="4.501396632906">
        <ele>0</ele>
        <time>2020-07-12T14:43:21Z</time>
      </trkpt>
      <trkpt lat="51.238543719711" lon="4.501238214996">
        <ele>0</ele>
        <time>2020-07-12T14:43:23Z</time>
      </trkpt>
      <trkpt lat="51.238631981118" lon="4.501119275835">
        <ele>0</ele>
        <time>2020-07-12T14:43:25Z</time>
      </trkpt>
      <trkpt lat="51.238730384624" lon="4.501042497631">
        <ele>0</ele>
        <time>2020-07-12T14:43:27Z</time>
      </trkpt>
      <trkpt lat="51.238837002392" lon="4.500999666122">
        <ele>0</ele>
        <time>2020-07-12T14:43:29Z</time>
      </trkpt>
      <trkpt lat="51.238954265173" lon="4.501007042194">
        <ele>0</ele>
        <time>2020-07-12T14:43:31Z</time>
      </trkpt>
      <trkpt lat="51.239066582633" lon="4.501043503459">
        <ele>0</ele>
        <time>2020-07-12T14:43:33Z</time>
      </trkpt>
      <trkpt lat="51.239591457211" lon="4.501308120042">
        <ele>0</ele>
        <time>2020-07-12T14:43:43Z</time>
      </trkpt>
      <trkpt lat="51.240127479716" lon="4.501586902036">
        <ele>0.6</ele>
        <time>2020-07-12T14:43:54Z</time>
      </trkpt>
      <trkpt lat="51.240646319326" lon="4.50191094629">
        <ele>2.2</ele>
        <time>2020-07-12T14:44:09Z</time>
      </trkpt>
      <trkpt lat="51.240993749081" lon="4.501442062804">
        <ele>5.8</ele>
        <time>2020-07-12T14:44:26Z</time>
      </trkpt>
      <trkpt lat="51.241062815937" lon="4.501009808221">
        <ele>4.4</ele>
        <time>2020-07-12T14:44:33Z</time>
      </trkpt>
      <trkpt lat="51.240985618638" lon="4.500914673656">
        <ele>4.6</ele>
        <time>2020-07-12T14:44:35Z</time>
      </trkpt>
      <trkpt lat="51.240468874503" lon="4.500655253851">
        <ele>1.6</ele>
        <time>2020-07-12T14:44:45Z</time>
      </trkpt>
      <trkpt lat="51.24026796036" lon="4.500541595287">
        <ele>1</ele>
        <time>2020-07-12T14:44:49Z</time>
      </trkpt>
      <trkpt lat="51.240058329041" lon="4.500320983679">
        <ele>1.8</ele>
        <time>2020-07-12T14:44:54Z</time>
      </trkpt>
      <trkpt lat="51.239673432193" lon="4.499688485505">
        <ele>1.8</ele>
        <time>2020-07-12T14:45:06Z</time>
      </trkpt>
      <trkpt lat="51.239662703361" lon="4.499635847173">
        <ele>1.8</ele>
        <time>2020-07-12T14:45:07Z</time>
      </trkpt>
      <trkpt lat="51.239621380594" lon="4.499226810453">
        <ele>1.4</ele>
        <time>2020-07-12T14:45:14Z</time>
      </trkpt>
      <trkpt lat="51.239700254273" lon="4.498295581363">
        <ele>0</ele>
        <time>2020-07-12T14:45:25Z</time>
      </trkpt>
      <trkpt lat="51.23973151876" lon="4.497345576817">
        <ele>0</ele>
        <time>2020-07-12T14:45:33Z</time>
      </trkpt>
      <trkpt lat="51.239717520987" lon="4.49641577265">
        <ele>0</ele>
        <time>2020-07-12T14:45:40Z</time>
      </trkpt>
      <trkpt lat="51.239718275358" lon="4.495488566872">
        <ele>0</ele>
        <time>2020-07-12T14:45:47Z</time>
      </trkpt>
      <trkpt lat="51.239815673036" lon="4.494564965311">
        <ele>0</ele>
        <time>2020-07-12T14:45:55Z</time>
      </trkpt>
      <trkpt lat="51.239970989643" lon="4.493700539964">
        <ele>0</ele>
        <time>2020-07-12T14:46:03Z</time>
      </trkpt>
      <trkpt lat="51.240143405326" lon="4.492848855105">
        <ele>0</ele>
        <time>2020-07-12T14:46:12Z</time>
      </trkpt>
      <trkpt lat="51.240284807979" lon="4.491991051459">
        <ele>0</ele>
        <time>2020-07-12T14:46:24Z</time>
      </trkpt>
      <trkpt lat="51.240302745245" lon="4.491800111777">
        <ele>0</ele>
        <time>2020-07-12T14:46:27Z</time>
      </trkpt>
      <trkpt lat="51.240854106627" lon="4.491710676904">
        <ele>0</ele>
        <time>2020-07-12T14:46:40Z</time>
      </trkpt>
      <trkpt lat="51.241046219775" lon="4.491706653592">
        <ele>0</ele>
        <time>2020-07-12T14:46:44Z</time>
      </trkpt>
      <trkpt lat="51.241569585611" lon="4.491880410379">
        <ele>0</ele>
        <time>2020-07-12T14:46:59Z</time>
      </trkpt>
      <trkpt lat="51.241703444554" lon="4.492129185171">
        <ele>0</ele>
        <time>2020-07-12T14:47:04Z</time>
      </trkpt>
      <trkpt lat="51.24192673837" lon="4.492954131769">
        <ele>0</ele>
        <time>2020-07-12T14:47:17Z</time>
      </trkpt>
      <trkpt lat="51.242061770779" lon="4.493795171615">
        <ele>0</ele>
        <time>2020-07-12T14:47:31Z</time>
      </trkpt>
      <trkpt lat="51.242076103828" lon="4.493809253207">
        <ele>0</ele>
        <time>2020-07-12T14:47:32Z</time>
      </trkpt>
      <trkpt lat="51.242123042468" lon="4.493807828284">
        <ele>0</ele>
        <time>2020-07-12T14:47:35Z</time>
      </trkpt>
      <trkpt lat="51.242160258104" lon="4.493752423925">
        <ele>0</ele>
        <time>2020-07-12T14:47:37Z</time>
      </trkpt>
      <trkpt lat="51.242024136048" lon="4.492856314996">
        <ele>0</ele>
        <time>2020-07-12T14:47:49Z</time>
      </trkpt>
      <trkpt lat="51.241809810865" lon="4.491989039803">
        <ele>0</ele>
        <time>2020-07-12T14:47:59Z</time>
      </trkpt>
      <trkpt lat="51.241560616978" lon="4.491542703628">
        <ele>0</ele>
        <time>2020-07-12T14:48:06Z</time>
      </trkpt>
      <trkpt lat="51.241018559505" lon="4.491188065439">
        <ele>0.8</ele>
        <time>2020-07-12T14:48:19Z</time>
      </trkpt>
      <trkpt lat="51.240480190068" lon="4.490962927605">
        <ele>4</ele>
        <time>2020-07-12T14:48:32Z</time>
      </trkpt>
      <trkpt lat="51.239961685734" lon="4.490718511401">
        <ele>2.8</ele>
        <time>2020-07-12T14:48:45Z</time>
      </trkpt>
      <trkpt lat="51.239734117149" lon="4.490603595552">
        <ele>1.8</ele>
        <time>2020-07-12T14:48:50Z</time>
      </trkpt>
      <trkpt lat="51.239200860671" lon="4.490324478282">
        <ele>0</ele>
        <time>2020-07-12T14:49:00Z</time>
      </trkpt>
      <trkpt lat="51.238637261715" lon="4.490104034312">
        <ele>0</ele>
        <time>2020-07-12T14:49:08Z</time>
      </trkpt>
      <trkpt lat="51.23804508048" lon="4.490064974658">
        <ele>0</ele>
        <time>2020-07-12T14:49:15Z</time>
      </trkpt>
      <trkpt lat="51.237459018032" lon="4.490262368403">
        <ele>0</ele>
        <time>2020-07-12T14:49:22Z</time>
      </trkpt>
      <trkpt lat="51.236941854802" lon="4.490513406308">
        <ele>0</ele>
        <time>2020-07-12T14:49:29Z</time>
      </trkpt>
      <trkpt lat="51.236710933457" lon="4.490561769871">
        <ele>0</ele>
        <time>2020-07-12T14:49:33Z</time>
      </trkpt>
      <trkpt lat="51.236383284986" lon="4.49039086293">
        <ele>0</ele>
        <time>2020-07-12T14:49:41Z</time>
      </trkpt>
      <trkpt lat="51.236327796808" lon="4.490287178827">
        <ele>0</ele>
        <time>2020-07-12T14:49:43Z</time>
      </trkpt>
      <trkpt lat="51.236299801262" lon="4.490143513061">
        <ele>0</ele>
        <time>2020-07-12T14:49:45Z</time>
      </trkpt>
      <trkpt lat="51.236290329715" lon="4.489873112967">
        <ele>0</ele>
        <time>2020-07-12T14:49:48Z</time>
      </trkpt>
      <trkpt lat="51.236373059068" lon="4.488565201291">
        <ele>0</ele>
        <time>2020-07-12T14:50:01Z</time>
      </trkpt>
      <trkpt lat="51.23634439297" lon="4.487869084496">
        <ele>0</ele>
        <time>2020-07-12T14:50:08Z</time>
      </trkpt>
      <trkpt lat="51.236320169279" lon="4.48769105294">
        <ele>0</ele>
        <time>2020-07-12T14:50:10Z</time>
      </trkpt>
      <trkpt lat="51.236286893136" lon="4.486740461661">
        <ele>0</ele>
        <time>2020-07-12T14:50:19Z</time>
      </trkpt>
      <trkpt lat="51.236284378566" lon="4.486642393431">
        <ele>0</ele>
        <time>2020-07-12T14:50:20Z</time>
      </trkpt>
      <trkpt lat="51.23626727949" lon="4.485768999451">
        <ele>0</ele>
        <time>2020-07-12T14:50:30Z</time>
      </trkpt>
      <trkpt lat="51.236257891762" lon="4.485683252614">
        <ele>0</ele>
        <time>2020-07-12T14:50:31Z</time>
      </trkpt>
      <trkpt lat="51.236246073283" lon="4.485506981257">
        <ele>0</ele>
        <time>2020-07-12T14:50:33Z</time>
      </trkpt>
      <trkpt lat="51.236292592828" lon="4.485251249488">
        <ele>0</ele>
        <time>2020-07-12T14:50:36Z</time>
      </trkpt>
      <trkpt lat="51.236315223958" lon="4.484336365103">
        <ele>0</ele>
        <time>2020-07-12T14:50:45Z</time>
      </trkpt>
      <trkpt lat="51.236293179561" lon="4.483429359704">
        <ele>0</ele>
        <time>2020-07-12T14:50:54Z</time>
      </trkpt>
      <trkpt lat="51.236268704413" lon="4.482464435376">
        <ele>0</ele>
        <time>2020-07-12T14:51:03Z</time>
      </trkpt>
      <trkpt lat="51.236311200646" lon="4.481572768854">
        <ele>0</ele>
        <time>2020-07-12T14:51:12Z</time>
      </trkpt>
      <trkpt lat="51.236355457078" lon="4.480663584161">
        <ele>0</ele>
        <time>2020-07-12T14:51:21Z</time>
      </trkpt>
      <trkpt lat="51.236397031302" lon="4.479796476606">
        <ele>0</ele>
        <time>2020-07-12T14:51:31Z</time>
      </trkpt>
      <trkpt lat="51.236383368805" lon="4.478913946355">
        <ele>0</ele>
        <time>2020-07-12T14:51:42Z</time>
      </trkpt>
      <trkpt lat="51.236366856462" lon="4.478618652018">
        <ele>0</ele>
        <time>2020-07-12T14:51:46Z</time>
      </trkpt>
      <trkpt lat="51.236302902565" lon="4.478078354744">
        <ele>0</ele>
        <time>2020-07-12T14:51:53Z</time>
      </trkpt>
      <trkpt lat="51.236283540376" lon="4.477917673721">
        <ele>0</ele>
        <time>2020-07-12T14:51:55Z</time>
      </trkpt>
      <trkpt lat="51.236222436325" lon="4.477621792651">
        <ele>0</ele>
        <time>2020-07-12T14:52:02Z</time>
      </trkpt>
      <trkpt lat="51.23606443751" lon="4.476795337311">
        <ele>0</ele>
        <time>2020-07-12T14:52:14Z</time>
      </trkpt>
      <trkpt lat="51.235898811166" lon="4.47596226027">
        <ele>0</ele>
        <time>2020-07-12T14:52:22Z</time>
      </trkpt>
      <trkpt lat="51.235703764353" lon="4.475113089981">
        <ele>0</ele>
        <time>2020-07-12T14:52:31Z</time>
      </trkpt>
      <trkpt lat="51.235523302046" lon="4.474233744852">
        <ele>0</ele>
        <time>2020-07-12T14:52:41Z</time>
      </trkpt>
      <trkpt lat="51.235306043198" lon="4.473347694203">
        <ele>0</ele>
        <time>2020-07-12T14:52:49Z</time>
      </trkpt>
      <trkpt lat="51.235130526212" lon="4.472465499228">
        <ele>0</ele>
        <time>2020-07-12T14:52:58Z</time>
      </trkpt>
      <trkpt lat="51.234973868501" lon="4.471560421666">
        <ele>0</ele>
        <time>2020-07-12T14:53:07Z</time>
      </trkpt>
      <trkpt lat="51.23482559269" lon="4.470659535054">
        <ele>0</ele>
        <time>2020-07-12T14:53:16Z</time>
      </trkpt>
      <trkpt lat="51.234689722091" lon="4.469749931266">
        <ele>0</ele>
        <time>2020-07-12T14:53:25Z</time>
      </trkpt>
      <trkpt lat="51.234545385773" lon="4.468857175097">
        <ele>0</ele>
        <time>2020-07-12T14:53:35Z</time>
      </trkpt>
      <trkpt lat="51.234431308114" lon="4.467995012863">
        <ele>0</ele>
        <time>2020-07-12T14:53:46Z</time>
      </trkpt>
      <trkpt lat="51.234306166347" lon="4.467120864512">
        <ele>0</ele>
        <time>2020-07-12T14:53:56Z</time>
      </trkpt>
      <trkpt lat="51.234162752038" lon="4.466230790551">
        <ele>0</ele>
        <time>2020-07-12T14:54:06Z</time>
      </trkpt>
      <trkpt lat="51.234153280491" lon="4.466146971551">
        <ele>0</ele>
        <time>2020-07-12T14:54:07Z</time>
      </trkpt>
      <trkpt lat="51.234023696317" lon="4.465240888161">
        <ele>0</ele>
        <time>2020-07-12T14:54:18Z</time>
      </trkpt>
      <trkpt lat="51.234013302761" lon="4.465170144925">
        <ele>0</ele>
        <time>2020-07-12T14:54:19Z</time>
      </trkpt>
      <trkpt lat="51.233984636663" lon="4.465034106688">
        <ele>0</ele>
        <time>2020-07-12T14:54:21Z</time>
      </trkpt>
      <trkpt lat="51.233952869262" lon="4.464889435094">
        <ele>0</ele>
        <time>2020-07-12T14:54:23Z</time>
      </trkpt>
      <trkpt lat="51.233811634247" lon="4.464039594253">
        <ele>0</ele>
        <time>2020-07-12T14:54:32Z</time>
      </trkpt>
      <trkpt lat="51.233743657038" lon="4.463663163124">
        <ele>0</ele>
        <time>2020-07-12T14:54:36Z</time>
      </trkpt>
      <trkpt lat="51.233633937967" lon="4.462804269831">
        <ele>0</ele>
        <time>2020-07-12T14:54:45Z</time>
      </trkpt>
      <trkpt lat="51.23350963439" lon="4.461942610511">
        <ele>0</ele>
        <time>2020-07-12T14:54:56Z</time>
      </trkpt>
      <trkpt lat="51.233380972225" lon="4.461101654484">
        <ele>0</ele>
        <time>2020-07-12T14:55:06Z</time>
      </trkpt>
      <trkpt lat="51.233242503237" lon="4.460230355979">
        <ele>0</ele>
        <time>2020-07-12T14:55:16Z</time>
      </trkpt>
      <trkpt lat="51.233089030648" lon="4.459333492679">
        <ele>0</ele>
        <time>2020-07-12T14:55:25Z</time>
      </trkpt>
      <trkpt lat="51.232938324086" lon="4.458462697088">
        <ele>0</ele>
        <time>2020-07-12T14:55:34Z</time>
      </trkpt>
      <trkpt lat="51.23283321506" lon="4.457933044827">
        <ele>0</ele>
        <time>2020-07-12T14:55:41Z</time>
      </trkpt>
      <trkpt lat="51.232623583741" lon="4.457679492352">
        <ele>0</ele>
        <time>2020-07-12T14:56:56Z</time>
      </trkpt>
      <trkpt lat="51.232552756686" lon="4.457623585079">
        <ele>0</ele>
        <time>2020-07-12T14:56:59Z</time>
      </trkpt>
      <trkpt lat="51.232076245671" lon="4.457980989295">
        <ele>1</ele>
        <time>2020-07-12T14:57:10Z</time>
      </trkpt>
      <trkpt lat="51.231535026388" lon="4.458394133146">
        <ele>6</ele>
        <time>2020-07-12T14:57:20Z</time>
      </trkpt>
      <trkpt lat="51.230982826816" lon="4.458665203792">
        <ele>0</ele>
        <time>2020-07-12T14:57:28Z</time>
      </trkpt>
      <trkpt lat="51.230422161525" lon="4.458821861503">
        <ele>0</ele>
        <time>2020-07-12T14:57:36Z</time>
      </trkpt>
      <trkpt lat="51.229930646909" lon="4.458962425966">
        <ele>0</ele>
        <time>2020-07-12T14:57:44Z</time>
      </trkpt>
      <trkpt lat="51.229752615353" lon="4.458963347975">
        <ele>0</ele>
        <time>2020-07-12T14:57:47Z</time>
      </trkpt>
      <trkpt lat="51.229320109313" lon="4.459088741199">
        <ele>0</ele>
        <time>2020-07-12T14:57:57Z</time>
      </trkpt>
      <trkpt lat="51.228749888656" lon="4.459238441933">
        <ele>0</ele>
        <time>2020-07-12T14:58:08Z</time>
      </trkpt>
      <trkpt lat="51.228652993892" lon="4.459250511869">
        <ele>0</ele>
        <time>2020-07-12T14:58:10Z</time>
      </trkpt>
      <trkpt lat="51.228597589533" lon="4.459141966264">
        <ele>0</ele>
        <time>2020-07-12T14:58:12Z</time>
      </trkpt>
      <trkpt lat="51.228585351959" lon="4.458988745132">
        <ele>0</ele>
        <time>2020-07-12T14:58:14Z</time>
      </trkpt>
      <trkpt lat="51.228572862928" lon="4.458368316894">
        <ele>0</ele>
        <time>2020-07-12T14:58:22Z</time>
      </trkpt>
      <trkpt lat="51.228635810997" lon="4.458223980576">
        <ele>0</ele>
        <time>2020-07-12T14:58:25Z</time>
      </trkpt>
      <trkpt lat="51.229169654208" lon="4.45802415608">
        <ele>0.8</ele>
        <time>2020-07-12T14:58:41Z</time>
      </trkpt>
      <trkpt lat="51.229706179627" lon="4.457891051508">
        <ele>2.8</ele>
        <time>2020-07-12T14:58:54Z</time>
      </trkpt>
      <trkpt lat="51.229822185123" lon="4.457821900833">
        <ele>3.2</ele>
        <time>2020-07-12T14:58:58Z</time>
      </trkpt>
      <trkpt lat="51.229837104905" lon="4.457912844448">
        <ele>2</ele>
        <time>2020-07-12T14:59:01Z</time>
      </trkpt>
      <trkpt lat="51.22997414897" lon="4.45874835224">
        <ele>0</ele>
        <time>2020-07-12T14:59:15Z</time>
      </trkpt>
      <trkpt lat="51.229965347975" lon="4.458862094623">
        <ele>0</ele>
        <time>2020-07-12T14:59:17Z</time>
      </trkpt>
      <trkpt lat="51.229904663019" lon="4.458914062403">
        <ele>0</ele>
        <time>2020-07-12T14:59:19Z</time>
      </trkpt>
      <trkpt lat="51.229365790668" lon="4.459077006539">
        <ele>0</ele>
        <time>2020-07-12T14:59:31Z</time>
      </trkpt>
      <trkpt lat="51.228822895005" lon="4.459215643165">
        <ele>0</ele>
        <time>2020-07-12T14:59:41Z</time>
      </trkpt>
      <trkpt lat="51.228710242269" lon="4.459252188249">
        <ele>0</ele>
        <time>2020-07-12T14:59:43Z</time>
      </trkpt>
      <trkpt lat="51.228618292826" lon="4.459174236579">
        <ele>0</ele>
        <time>2020-07-12T14:59:45Z</time>
      </trkpt>
      <trkpt lat="51.228596416067" lon="4.459000731249">
        <ele>0</ele>
        <time>2020-07-12T14:59:47Z</time>
      </trkpt>
      <trkpt lat="51.228617538455" lon="4.458285838998">
        <ele>0</ele>
        <time>2020-07-12T14:59:55Z</time>
      </trkpt>
      <trkpt lat="51.228786936654" lon="4.458126079984">
        <ele>0</ele>
        <time>2020-07-12T15:00:00Z</time>
      </trkpt>
    </trkseg>
  </trk>
</gpx>